[[{"header":{"parameterUnit":"m.s-1","parameterCategory":1,"la1":31.0,"la2":29.5877,"lo1":-88.7671,"lo2":-86.6584,"dy":0.0162,"dx":0.0185,"nx":115,"ny":88,"refTime":"2024-08-13T06:00:00:Z","depth":0,"parameterNumber":2,"parameterNumberName":"U-component_of_WINDS"},"data":[0.0,0.0,0.0,0.0,0.0,0.0,0.0,0.0,0.0,0.0,0.0,0.0,0.0,0.0,0.0,0.0,0.0,0.0,0.0,0.0,0.0,0.0,0.0,0.0,0.0,0.0,0.0,0.0,0.0,0.0,0.0,0.0,0.0,0.0,0.0,0.0,0.0,0.0,0.0,0.0,0.0,0.0,0.0,0.0,0.0,0.0,0.0,0.0,0.0,0.0,0.0,0.0,0.0,0.0,0.0,0.0,0.0,0.0,0.0,0.0,0.0,0.0,0.0,0.0,0.0,0.0,0.0,0.0,0.0,0.0,0.0,0.0,0.0,0.0,0.0,0.0,0.0,0.0,0.0,0.0,0.0,0.0,0.0,0.0,0.0,0.0,0.0,0.0,0.0,0.0,0.0,0.0,0.0,0.0,0.0,0.0,0.0,0.0,0.0,0.0,0.0,0.0,0.0,0.0,0.0,0.0,0.0,0.0,0.0,0.0,0.0,0.0,0.0,0.0,0.0,0.0,0.0,0.0,0.0,0.0,0.0,0.0,0.0,0.0,0.0,0.0,0.0,0.0,0.0,0.0,0.0,0.0,0.0,0.0,0.0,0.0,0.0,0.0,0.0,0.0,0.0,0.0,0.0,0.0,0.0,0.0,0.0,0.0,0.0,0.0,0.0,0.0,0.0,0.0,0.0,0.0,0.0,0.0,0.0,0.0,0.0,0.0,0.0,0.0,0.0,0.0,0.0,0.0,0.0,0.0,0.0,0.0,0.0,0.0,0.0,0.0,0.0,0.0,0.0,0.0,0.0,0.0,0.0,0.0,0.0,0.0,0.0,0.0,0.0,0.0,0.0,0.0,0.0,0.0,0.0,0.0,0.0,0.0,0.0,0.0,0.0,0.0,0.0,0.0,0.0,0.0,0.0,0.0,0.0,0.0,0.0,0.0,0.0,0.0,0.0,0.0,0.0,0.0,0.0,0.0,0.0,0.0,0.0,0.0,0.0,0.0,0.0,0.0,0.0,0.0,0.0,0.0,0.0,0.0,0.0,0.0,0.0,0.0,0.0,0.0,0.0,0.0,0.0,0.0,0.0,0.0,0.0,0.0,0.0,0.0,0.0,0.0,0.0,0.0,0.0,0.0,0.0,0.0,0.0,0.0,0.0,0.0,0.0,0.0,0.0,0.0,0.0,0.0,0.0,0.0,0.0,0.0,0.0,0.0,0.0,0.0,0.0,0.0,0.0,0.0,0.0,0.0,0.0,0.0,0.0,0.0,0.0,0.0,0.0,0.0,0.0,0.0,0.0,0.0,0.0,0.0,0.0,0.0,0.0,0.0,0.0,0.0,0.0,0.0,0.0,0.0,0.0,0.0,0.0,0.0,0.0,0.0,0.0,0.0,0.0,0.0,0.0,0.0,0.0,0.0,0.0,0.0,0.0,0.0,0.0,0.0,0.0,0.0,0.0,0.0,0.0,0.0,0.0,0.0,0.0,0.0,0.0,0.0,0.0,0.0,0.0,0.0,0.0,0.0,0.0,0.0,0.0,0.0,0.0,0.0,0.0,0.0,0.0,0.0,0.0,0.0,0.0,0.0,0.0,0.0,0.0,0.0,0.0,0.0,0.0,0.0,0.0,0.0,0.0,0.0,0.0,0.0,0.0,0.0,0.0,0.0,0.0,0.0,0.0,0.0,0.0,0.0,0.0,0.0,0.0,0.0,0.0,0.0,0.0,0.0,0.0,0.0,0.0,0.0,0.0,0.0,0.0,0.0,0.0,0.0,0.0,0.0,0.0,0.0,0.0,0.0,0.0,0.0,0.0,0.0,0.0,0.0,0.0,0.0,0.0,0.0,0.0,0.0,0.0,0.0,0.0,0.0,0.0,0.0,0.0,0.0,0.0,0.0,0.0,0.0,0.0,0.0,0.0,0.0,0.0,0.0,0.0,0.0,0.0,0.0,0.0,0.0,0.0,0.0,0.0,0.0,0.0,0.0,0.0,0.0,0.0,0.0,0.0,0.0,0.0,0.0,0.0,0.0,0.0,0.0,0.0,0.0,0.0,0.0,0.0,0.0,0.0,0.0,0.0,0.0,0.0,0.0,0.0,0.0,0.0,0.0,0.0,0.0,0.0,0.0,0.0,0.0,0.0,0.0,0.0,0.0,0.0,0.0,0.0,0.0,0.0,0.0,0.0,0.0,0.0,0.0,0.0,0.0,0.0,0.0,0.0,0.0,0.0,0.0,0.0,0.0,0.0,0.0,0.0,0.0,0.0,0.0,0.0,0.0,0.0,0.0,0.0,0.0,0.0,0.0,0.0,0.0,0.0,0.0,0.0,0.0,0.0,0.0,0.0,0.0,0.0,0.0,0.0,0.0,0.0,0.0,0.0,0.0,0.0,0.0,0.0,0.0,0.0,0.0,0.0,0.0,0.0,0.0,0.0,0.0,0.0,0.0,0.0,0.0,0.0,0.0,0.0,0.0,0.0,0.0,0.0,0.0,0.0,0.0,0.0,0.0,0.0,0.0,0.0,0.0,0.0,0.0,0.0,0.0,0.0,0.0,0.0,0.0,0.0,0.0,0.0,0.0,0.0,0.0,0.0,0.0,0.0,0.0,0.0,0.0,0.0,0.0,0.0,0.0,0.0,0.0,0.0,0.0,0.0,0.0,0.0,0.0,0.0,0.0,0.0,0.0,0.0,0.0,0.0,0.0,0.0,0.0,0.0,0.0,0.0,0.0,0.0,0.0,0.0,0.0,0.0,0.0,0.0,0.0,0.0,0.0,0.0,0.0,0.0,0.0,0.0,0.0,0.0,0.0,0.0,0.0,0.0,0.0,0.0,0.0,0.0,0.0,0.0,0.0,0.0,0.0,0.0,0.0,0.0,0.0,0.0,0.0,0.0,0.0,0.0,0.0,0.0,0.0,0.0,0.0,0.0,0.0,0.0,0.0,0.0,0.0,0.0,0.0,0.0,0.0,0.0,0.0,0.0,0.0,0.0,0.0,0.0,0.0,0.0,0.0,0.0,0.0,0.0,0.0,0.0,0.0,0.0,0.0,0.0,0.0,0.0,0.0,0.0,0.0,0.0,0.0,0.0,0.0,0.0,0.0,0.0,0.0,0.0,0.0,0.0,0.0,0.0,0.0,0.0,0.0,0.0,0.0,0.0,0.0,0.0,0.0,0.0,0.0,0.0,0.0,0.0,0.0,0.0,0.0,0.0,0.0,0.0,0.0,0.0,0.0,0.0,0.0,0.0,0.0,0.0,0.0,0.0,0.0,0.0,0.0,0.0,0.0,0.0,0.0,0.0,0.0,0.0,0.0,0.0,0.0,0.0,0.0,0.0,0.0,0.0,0.0,0.0,0.0,0.0,0.0,0.0,0.0,0.0,0.0,0.0,0.0,0.0,0.0,0.0,0.0,0.0,0.0,0.0,0.0,0.0,0.0,0.0,0.0,0.0,0.0,0.0,0.0,0.0,0.0,0.0,0.0,0.0,0.0,0.0,0.0,0.0,0.0,0.0,0.0,0.0,0.0,0.0,0.0,0.0,0.0,0.0,0.0,0.0,0.0,0.0,0.0,0.0,0.0,0.0,0.0,0.0,0.0,0.0,0.0,0.0,0.0,0.0,0.0,0.0,0.0,0.0,0.0,0.0,0.0,0.0,0.0,0.0,0.0,0.0,0.0,0.0,0.0,0.0,0.0,0.0,0.0,0.0,0.0,0.0,0.0,0.0,0.0,0.0,0.0,0.0,0.0,0.0,0.0,0.0,0.0,0.0,0.0,0.0,0.0,0.0,0.0,0.0,0.0,0.0,0.0,0.0,0.0,0.0,0.0,0.0,0.0,0.0,0.0,0.0,0.0,0.0,0.0,0.0,0.0,0.0,0.0,0.0,0.0,0.0,0.0,0.0,0.0,0.0,0.0,0.0,0.0,0.0,0.0,0.0,0.0,0.0,0.0,0.0,0.0,0.0,0.0,0.0,0.0,0.0,0.0,0.0,0.0,0.0,0.0,0.0,0.0,0.0,0.0,0.0,0.0,0.0,0.0,0.0,0.0,0.0,0.0,0.0,0.0,0.0,0.0,0.0,0.0,0.0,0.0,0.0,0.0,0.0,0.0,0.0,0.0,0.0,0.0,0.0,0.0,0.0,0.0,0.0,0.0,0.0,0.0,0.0,0.0,0.0,0.0,0.0,0.0,0.0,0.0,0.0,0.0,0.0,0.0,0.0,0.0,0.0,0.0,0.0,0.0,0.0,0.0,0.0,0.0,0.0,0.0,0.0,0.0,-0.6498,0.0,0.0,0.0,0.0,0.0,0.0,0.0,0.0,0.0,0.0,0.0,0.0,0.0,0.0,0.0,0.0,0.0,0.0,0.0,0.0,0.0,0.0,0.0,0.0,0.0,0.0,0.0,0.0,0.0,0.0,0.0,0.0,0.0,0.0,0.0,0.0,0.0,0.0,0.0,0.0,0.0,0.0,0.0,0.0,0.0,0.0,0.0,0.0,0.0,0.0,0.0,0.0,0.0,0.0,0.0,0.0,0.0,0.0,0.0,0.0,0.0,0.0,0.0,0.0,0.0,0.0,0.0,0.0,0.0,0.0,0.0,0.0,0.0,0.0,0.0,0.0,0.0,0.0,0.0,0.0,0.0,0.0,0.0,0.0,0.0,0.0,0.0,0.0,0.0,0.0,0.0,0.0,0.0,0.0,0.0,0.0,0.0,0.0,0.0,0.0,0.0,0.0,0.0,0.0,0.0,0.0,0.0,0.0,0.0,0.0,-0.769,-0.7285,-0.6855,-0.6437,-0.5978,0.0,0.0,0.0,0.0,0.0,0.0,0.0,0.0,0.0,0.0,0.0,0.0,0.0,0.0,0.0,0.0,0.0,0.0,0.0,0.0,0.0,0.0,0.0,0.0,0.0,0.0,0.0,0.0,0.0,0.0,0.0,0.0,0.0,0.0,0.0,0.0,0.0,0.0,0.0,0.0,0.0,0.0,0.0,0.0,0.0,0.0,0.0,0.0,0.0,0.0,0.0,0.0,0.0,0.0,0.0,0.0,0.0,0.0,0.0,0.0,0.0,0.0,0.0,0.0,0.0,0.0,0.0,0.0,0.0,0.0,0.0,0.0,0.0,0.0,0.0,0.0,0.0,0.0,0.0,0.0,0.0,0.0,0.0,0.0,0.0,0.0,0.0,0.0,0.0,0.0,0.0,0.0,0.0,0.0,0.0,0.0,0.0,0.0,0.0,0.0,0.0,0.0,0.0,0.0,0.0,0.0,0.0,0.0,0.0,0.0,0.0,0.0,-0.6691,-0.6363,-0.5772,0.0,0.0,0.0,0.0,0.0,0.0,0.0,0.0,0.0,0.0,0.0,0.0,0.0,0.0,0.0,0.0,0.0,0.0,0.0,0.0,0.0,0.0,0.0,0.0,0.0,0.0,0.0,0.0,0.0,0.0,0.0,0.0,0.0,0.0,0.0,0.0,0.0,0.0,0.0,0.0,0.0,0.0,0.0,0.0,0.0,0.0,0.0,0.0,0.0,0.0,0.0,0.0,0.0,0.0,0.0,0.0,0.0,0.0,0.0,0.0,0.0,0.0,0.0,0.0,0.0,0.0,0.0,0.0,0.0,0.0,0.0,0.0,0.0,0.0,0.0,0.0,0.0,0.0,0.0,0.0,0.0,0.0,0.0,0.0,0.0,0.0,0.0,0.0,0.0,0.0,0.0,0.0,0.0,0.0,0.0,0.0,0.0,0.0,0.0,0.0,0.0,0.0,0.0,0.0,0.0,0.0,0.0,0.0,0.0,0.0,-0.6745,-0.7647,-0.7257,0.0,-0.6513,0.0,0.0,0.0,0.0,0.0,0.0,0.0,0.0,0.0,0.0,0.0,0.0,0.0,0.0,0.0,0.0,0.0,0.0,0.0,0.0,0.0,0.0,0.0,0.0,0.0,0.0,0.0,0.0,0.0,0.0,0.0,0.0,0.0,0.0,0.0,0.0,0.0,0.0,0.0,0.0,0.0,0.0,0.0,0.0,0.0,0.0,0.0,0.0,0.0,0.0,0.0,0.0,0.0,0.0,0.0,0.0,0.0,0.0,0.0,0.0,0.0,0.0,0.0,0.0,0.0,0.0,0.0,0.0,0.0,0.0,0.0,0.0,0.0,0.0,0.0,0.0,0.0,0.0,0.0,0.0,0.0,0.0,0.0,0.0,0.0,0.0,0.0,0.0,0.0,0.0,0.0,0.0,0.0,0.0,0.0,0.0,0.0,0.0,0.0,0.0,0.0,0.0,0.0,0.0,0.0,0.0,0.0,0.0,0.0,0.0,0.0,-0.678,-0.6603,-0.6401,0.0,0.0,0.0,0.0,0.0,0.0,0.0,0.0,0.0,0.0,0.0,0.0,0.0,0.0,0.0,0.0,0.0,0.0,0.0,0.0,0.0,0.0,0.0,0.0,0.0,0.0,0.0,0.0,0.0,0.0,0.0,0.0,0.0,0.0,0.0,0.0,0.0,0.0,0.0,0.0,0.0,0.0,0.0,0.0,0.0,0.0,0.0,0.0,0.0,0.0,0.0,0.0,0.0,0.0,0.0,0.0,0.0,0.0,0.0,0.0,0.0,0.0,0.0,0.0,0.0,0.0,0.0,0.0,0.0,0.0,0.0,0.0,0.0,0.0,0.0,0.0,0.0,0.0,0.0,0.0,0.0,0.0,0.0,0.0,0.0,0.0,0.0,0.0,0.0,0.0,0.0,0.0,0.0,0.0,0.0,0.0,0.0,0.0,0.0,0.0,0.0,0.0,0.0,0.0,0.0,0.0,0.0,0.0,0.0,0.0,-0.6296,0.0,-0.6422,-0.643,-0.6231,-0.5824,0.0,0.0,0.0,0.0,0.0,0.0,0.0,0.0,0.0,0.0,0.0,0.0,0.0,0.0,0.0,0.0,0.0,0.0,0.0,0.0,0.0,0.0,0.0,0.0,0.0,0.0,0.0,0.0,0.0,0.0,0.0,0.0,0.0,0.0,0.0,0.0,0.0,0.0,0.0,0.0,0.0,0.0,0.0,0.0,0.0,0.0,0.0,0.0,0.0,0.0,0.0,0.0,0.0,0.0,0.0,0.0,0.0,0.0,0.0,0.0,0.0,0.0,0.0,0.0,0.0,0.0,0.0,0.0,0.0,0.0,0.0,0.0,0.0,0.0,0.0,0.0,0.0,0.0,0.0,0.0,0.0,0.0,0.0,0.0,0.0,0.0,0.0,0.0,0.0,0.0,0.0,0.0,0.0,0.0,0.0,0.0,0.0,0.0,0.0,0.0,0.0,0.0,0.0,0.0,0.0,0.0,0.0,0.0,0.0,-0.6313,-0.6305,-0.7189,-0.7221,-0.6794,0.0,0.0,0.0,0.0,0.0,0.0,0.0,0.0,0.0,0.0,0.0,0.0,0.0,0.0,0.0,0.0,0.0,0.0,0.0,0.0,0.0,0.0,0.0,0.0,0.0,0.0,0.0,0.0,0.0,0.0,0.0,0.0,0.0,0.0,0.0,0.0,0.0,0.0,0.0,0.0,0.0,0.0,0.0,0.0,0.0,0.0,0.0,0.0,0.0,0.0,0.0,0.0,0.0,0.0,0.0,0.0,0.0,0.0,0.0,0.0,0.0,0.0,0.0,0.0,0.0,0.0,0.0,0.0,0.0,0.0,0.0,0.0,0.0,0.0,0.0,0.0,0.0,0.0,0.0,0.0,0.0,0.0,0.0,0.0,0.0,0.0,0.0,0.0,0.0,0.0,0.0,0.0,0.0,0.0,0.0,0.0,0.0,0.0,0.0,0.0,0.0,0.0,0.0,0.0,0.0,0.0,0.0,0.0,0.0,-0.5283,-0.562,-0.6481,-0.782,-0.6919,-0.6348,0.0,0.0,0.0,0.0,0.0,0.0,0.0,0.0,0.0,0.0,0.0,0.0,0.0,0.0,0.0,0.0,0.0,0.0,0.0,0.0,0.0,0.0,0.0,0.0,0.0,0.0,0.0,0.0,0.0,0.0,0.0,0.0,0.0,0.0,0.0,0.0,0.0,0.0,0.0,0.0,0.0,0.0,0.0,0.0,0.0,0.0,0.0,0.0,0.0,0.0,0.0,0.0,0.0,0.0,0.0,0.0,0.0,0.0,0.0,0.0,0.0,0.0,0.0,0.0,0.0,0.0,0.0,0.0,0.0,0.0,0.0,0.0,0.0,0.0,0.0,0.0,0.0,0.0,0.0,0.0,0.0,0.0,0.0,0.0,0.0,0.0,0.0,0.0,0.0,0.0,0.0,0.0,0.0,0.0,0.0,0.0,0.0,0.0,0.0,0.0,0.0,0.0,0.0,0.0,0.0,0.0,0.0,0.0,0.0,-0.5144,0.0,-0.7042,0.0,-0.6731,-0.599,0.0,0.0,0.0,0.0,0.0,0.0,0.0,0.0,0.0,0.0,0.0,0.0,0.0,0.0,0.0,0.0,0.0,0.0,0.0,0.0,0.0,0.0,0.0,0.0,0.0,0.0,0.0,0.0,0.0,0.0,0.0,0.0,0.0,0.0,0.0,0.0,0.0,0.0,0.0,0.0,0.0,0.0,0.0,0.0,0.0,0.0,0.0,0.0,0.0,0.0,0.0,0.0,0.0,0.0,0.0,0.0,0.0,0.0,0.0,0.0,0.0,0.0,0.0,0.0,0.0,0.0,0.0,0.0,0.0,0.0,0.0,0.0,0.0,0.0,0.0,0.0,0.0,0.0,0.0,0.0,0.0,0.0,0.0,0.0,0.0,0.0,0.0,0.0,0.0,0.0,0.0,0.0,0.0,0.0,0.0,0.0,0.0,0.0,0.0,0.0,0.0,0.0,0.0,0.0,0.0,0.0,0.0,0.0,-0.5135,-0.6977,-0.7906,-0.7829,-0.6775,-0.6782,-0.5817,0.0,0.0,0.0,0.0,0.0,0.0,0.0,0.0,0.0,0.0,0.0,0.0,0.0,0.0,0.0,0.0,0.0,0.0,0.0,0.0,0.0,0.0,0.0,0.0,0.0,0.0,0.0,0.0,0.0,0.0,0.0,0.0,0.0,0.0,0.0,0.0,0.0,0.0,0.0,0.0,0.0,0.0,0.0,0.0,0.0,0.0,0.0,0.0,0.0,0.0,0.0,0.0,0.0,0.0,0.0,0.0,0.0,0.0,0.0,0.0,0.0,0.0,0.0,0.0,0.0,0.0,0.0,0.0,0.0,0.0,0.0,0.0,0.0,0.0,0.0,0.0,0.0,0.0,0.0,0.0,0.0,0.0,0.0,0.0,0.0,0.0,0.0,0.0,0.0,0.0,0.0,0.0,0.0,0.0,0.0,0.0,0.0,0.0,0.0,0.0,0.0,0.0,0.0,0.0,0.0,0.0,0.0,0.0,0.0,-0.6261,-0.7009,-0.7274,-0.7007,-0.6392,-0.5667,0.0,0.0,0.0,0.0,0.0,0.0,0.0,0.0,0.0,0.0,0.0,0.0,0.0,0.0,0.0,0.0,0.0,0.0,0.0,0.0,0.0,0.0,0.0,0.0,0.0,0.0,0.0,0.0,0.0,0.0,0.0,0.0,0.0,0.0,0.0,0.0,0.0,0.0,0.0,0.0,0.0,0.0,0.0,0.0,0.0,0.0,0.0,0.0,0.0,0.0,0.0,0.0,0.0,0.0,0.0,0.0,0.0,0.0,0.0,0.0,0.0,0.0,0.0,0.0,0.0,0.0,0.0,0.0,0.0,0.0,0.0,0.0,0.0,0.0,0.0,0.0,0.0,0.0,0.0,0.0,0.0,0.0,0.0,0.0,0.0,0.0,0.0,0.0,0.0,0.0,0.0,0.0,0.0,0.0,0.0,0.0,0.0,0.0,0.0,0.0,0.0,0.0,0.0,0.0,0.0,0.0,0.0,0.0,0.0,-0.6334,-0.7389,-0.7795,-0.7359,-0.6581,-0.5847,-0.5139,0.0,0.0,0.0,0.0,0.0,0.0,0.0,0.0,0.0,0.0,0.0,0.0,0.0,0.0,0.0,0.0,0.0,0.0,0.0,0.0,0.0,0.0,0.0,0.0,0.0,0.0,0.0,0.0,0.0,0.0,0.0,0.0,0.0,0.0,0.0,0.0,0.0,0.0,0.0,0.0,0.0,0.0,0.0,0.0,0.0,0.0,0.0,0.0,0.0,0.0,0.0,0.0,0.0,0.0,0.0,0.0,0.0,0.0,0.0,0.0,0.0,0.0,0.0,0.0,0.0,0.0,0.0,0.0,0.0,0.0,0.0,0.0,0.0,0.0,0.0,0.0,0.0,0.0,0.0,0.0,0.0,0.0,0.0,0.0,0.0,0.0,0.0,0.0,0.0,0.0,0.0,0.0,0.0,0.0,0.0,0.0,0.0,0.0,0.0,0.0,0.0,0.0,0.0,0.0,0.0,0.0,0.0,0.0,-0.6894,-0.8772,-0.9027,-0.7627,-0.7238,-0.629,0.0,0.0,0.0,0.0,0.0,0.0,0.0,0.0,0.0,0.0,0.0,0.0,0.0,0.0,0.0,0.0,0.0,0.0,0.0,0.0,0.0,0.0,0.0,0.0,0.0,0.0,0.0,0.0,0.0,0.0,0.0,0.0,0.0,0.0,0.0,0.0,0.0,0.0,0.0,0.0,0.0,0.0,0.0,0.0,0.0,0.0,0.0,0.0,0.0,0.0,0.0,0.0,0.0,0.0,0.0,0.0,0.0,0.0,0.0,0.0,0.0,0.0,0.0,0.0,0.0,0.0,0.0,0.0,0.0,0.0,0.0,0.0,0.0,0.0,0.0,0.0,0.0,0.0,0.0,0.0,0.0,0.0,0.0,0.0,0.0,0.0,0.0,0.0,0.0,0.0,0.0,0.0,0.0,0.0,0.0,0.0,0.0,0.0,0.0,0.0,0.0,0.0,0.0,0.0,0.0,0.0,0.0,0.0,0.0,-0.72,-0.8402,-0.8589,-0.7629,-0.7502,-0.6644,0.0,0.0,0.0,0.0,0.0,0.0,0.0,0.0,0.0,0.0,0.0,0.0,0.0,0.0,0.0,0.0,0.0,0.0,0.0,0.0,0.0,0.0,0.0,0.0,0.0,0.0,0.0,0.0,0.0,0.0,0.0,0.0,0.0,0.0,0.0,0.0,0.0,0.0,0.0,0.0,0.0,0.0,0.0,0.0,0.0,0.0,0.0,0.0,0.0,0.0,0.0,0.0,0.0,0.0,0.0,0.0,0.0,0.0,0.0,0.0,0.0,0.0,0.0,0.0,0.0,0.0,0.0,0.0,0.0,0.0,0.0,0.0,0.0,0.0,0.0,0.0,0.0,0.0,0.0,0.0,0.0,0.0,0.0,0.0,0.0,0.0,0.0,0.0,0.0,0.0,0.0,0.0,0.0,0.0,0.0,0.0,0.0,0.0,0.0,0.0,0.0,0.0,0.0,0.0,0.0,0.0,0.0,0.0,-0.6735,-0.6945,-0.8241,-0.8456,-0.7436,-0.7517,-0.6961,0.0,0.0,0.0,0.0,0.0,0.0,0.0,0.0,0.0,0.0,0.0,0.0,0.0,0.0,0.0,0.0,0.0,0.0,0.0,0.0,0.0,0.0,0.0,0.0,0.0,0.0,0.0,0.0,0.0,0.0,0.0,0.0,0.0,0.0,0.0,0.0,0.0,0.0,0.0,0.0,0.0,0.0,0.0,0.0,0.0,0.0,0.0,0.0,0.0,0.0,0.0,0.0,0.0,0.0,0.0,0.0,0.0,0.0,0.0,0.0,0.0,0.0,0.0,0.0,0.0,0.0,0.0,0.0,0.0,0.0,0.0,0.0,0.0,0.0,0.0,0.0,0.0,0.0,0.0,0.0,0.0,0.0,0.0,0.0,0.0,0.0,0.0,0.0,0.0,0.0,0.0,0.0,0.0,0.0,0.0,0.0,0.0,0.0,0.0,0.0,0.0,0.0,0.0,0.0,0.0,0.0,0.0,0.0,-0.6865,-0.6521,-0.8034,-0.8348,-0.7389,-0.7467,-0.7182,0.0,0.0,0.0,0.0,0.0,0.0,0.0,0.0,0.0,0.0,0.0,0.0,0.0,0.0,0.0,0.0,0.0,0.0,0.0,0.0,0.0,0.0,0.0,0.0,0.0,0.0,0.0,0.0,0.0,0.0,0.0,0.0,0.0,0.0,0.0,0.0,0.0,0.0,0.0,0.0,0.0,0.0,0.0,0.0,0.0,0.0,0.0,0.0,0.0,0.0,0.0,0.0,0.0,0.0,0.0,0.0,0.0,0.0,0.0,0.0,0.0,0.0,0.0,0.0,0.0,0.0,0.0,0.0,0.0,0.0,0.0,0.0,0.0,0.0,0.0,0.0,0.0,0.0,0.0,0.0,0.0,0.0,0.0,0.0,0.0,0.0,0.0,0.0,0.0,0.0,0.0,0.0,0.0,0.0,0.0,0.0,0.0,0.0,0.0,0.0,0.0,0.0,0.0,0.0,0.0,0.0,0.0,0.0,-0.6559,-0.653,-0.734,-0.782,-0.7897,-0.8045,-0.7541,0.0,0.0,0.0,0.0,0.0,0.0,0.0,0.0,0.0,0.0,0.0,0.0,0.0,0.0,0.0,0.0,0.0,0.0,0.0,0.0,0.0,0.0,0.0,0.0,0.0,0.0,0.0,0.0,0.0,0.0,0.0,0.0,0.0,0.0,0.0,0.0,0.0,0.0,0.0,0.0,0.0,0.0,0.0,0.0,0.0,0.0,0.0,0.0,-0.2243,0.0,0.0,0.0,0.0,0.0,0.0,0.0,0.0,0.0,0.0,0.0,0.0,0.0,0.0,0.0,0.0,0.0,0.0,0.0,0.0,0.0,0.0,0.0,0.0,0.0,0.0,0.0,0.0,0.0,0.0,0.0,0.0,0.0,0.0,0.0,0.0,0.0,0.0,0.0,0.0,0.0,0.0,0.0,0.0,0.0,0.0,0.0,0.0,0.0,0.0,0.0,0.0,0.0,0.0,0.0,0.0,0.0,0.0,0.0,-0.67,-0.6627,-0.738,-0.7797,-0.779,-0.8093,-0.7773,0.0,0.0,0.0,0.0,0.0,0.0,0.0,0.0,0.0,0.0,0.0,0.0,0.0,0.0,0.0,0.0,0.0,0.0,0.0,0.0,0.0,0.0,0.0,0.0,0.0,0.0,0.0,0.0,0.0,0.0,0.0,0.0,0.0,0.0,0.0,0.0,0.0,0.0,0.0,0.0,0.0,0.0,0.0,0.0,0.0,0.0,0.0,0.0,0.0,0.0,0.0,0.0,0.0,0.0,0.0,0.0,0.0,0.0,0.0,0.0,0.0,0.0,0.0,0.0,0.0,0.0,0.0,0.0,0.0,0.0,0.0,0.0,0.0,0.0,0.0,0.0,0.0,0.0,0.0,0.0,0.0,0.0,0.0,0.0,0.0,0.0,0.0,0.0,0.0,0.0,0.0,0.0,0.0,0.0,0.0,0.0,0.0,0.0,0.0,0.0,0.0,0.0,0.0,0.0,0.0,0.0,0.0,-0.6277,-0.6837,-0.6911,-0.7633,-0.7917,-0.7647,-0.7926,-0.784,-0.7211,0.0,0.0,0.0,0.0,0.0,0.0,0.0,0.0,0.0,0.0,0.0,0.0,0.0,0.0,0.0,0.0,0.0,0.0,0.0,0.0,0.0,0.0,0.0,0.0,0.0,0.0,0.0,0.0,0.0,0.0,0.0,0.0,0.0,0.0,0.0,0.0,0.0,0.0,-0.209,-0.2373,0.0,0.0,0.0,0.0,0.0,0.0,0.0,0.0,-0.2552,0.0,0.0,0.0,0.0,0.0,0.0,0.0,0.0,0.0,0.0,0.0,0.0,0.0,0.0,0.0,0.0,0.0,0.0,0.0,0.0,0.0,0.0,0.0,0.0,0.0,0.0,0.0,0.0,0.0,0.0,0.0,0.0,0.0,0.0,0.0,0.0,0.0,0.0,0.0,0.0,0.0,0.0,0.0,0.0,0.0,0.0,0.0,0.0,0.0,0.0,0.0,0.0,0.0,0.0,0.0,0.0,-0.5771,-0.631,-0.6798,-0.7315,-0.7754,-0.8117,-0.8306,-0.7803,-0.748,-0.7331,0.0,0.0,0.0,0.0,0.0,0.0,0.0,0.0,0.0,0.0,0.0,0.0,0.0,0.0,0.0,0.0,0.0,0.0,0.0,0.0,0.0,0.0,0.0,0.0,0.0,0.0,0.0,0.0,0.0,0.0,0.0,0.0,0.0,0.0,0.0,0.0,0.0,0.0,0.0,-0.2794,-0.2928,0.0,0.0,0.0,0.0,0.0,0.0,0.0,0.0,-0.2726,0.0,0.0,0.0,0.0,0.0,0.0,0.0,0.0,0.0,0.0,0.0,0.0,0.0,0.0,0.0,0.0,0.0,0.0,0.0,0.0,0.0,0.0,0.0,0.0,0.0,0.0,0.0,0.0,0.0,0.0,0.0,0.0,0.0,0.0,0.0,0.0,0.0,0.0,0.0,0.0,0.0,0.0,0.0,0.0,0.0,0.0,0.0,0.0,0.0,0.0,0.0,0.0,0.0,0.0,0.0,-0.5682,-0.6328,-0.6881,-0.7384,-0.7818,-0.8182,-0.8495,-0.7806,-0.7318,0.0,0.0,0.0,0.0,0.0,0.0,0.0,0.0,0.0,0.0,0.0,0.0,0.0,0.0,0.0,0.0,0.0,0.0,0.0,0.0,0.0,0.0,0.0,0.0,0.0,0.0,0.0,0.0,0.0,0.0,0.0,0.0,0.0,0.0,0.0,0.0,0.0,0.0,0.0,0.0,-0.2936,-0.2995,-0.3011,0.0,0.0,0.0,0.0,0.0,0.0,-0.293,-0.2841,0.0,0.0,0.0,0.0,0.0,0.0,0.0,0.0,0.0,0.0,0.0,0.0,0.0,0.0,0.0,0.0,0.0,0.0,0.0,0.0,0.0,0.0,0.0,0.0,0.0,0.0,0.0,0.0,0.0,0.0,0.0,0.0,0.0,0.0,0.0,0.0,0.0,0.0,0.0,0.0,0.0,0.0,0.0,0.0,0.0,0.0,0.0,0.0,0.0,0.0,0.0,0.0,0.0,0.0,0.0,-0.5536,-0.6308,-0.7022,-0.7511,-0.7911,-0.8247,-0.856,-0.7905,-0.7391,0.0,0.0,0.0,0.0,0.0,0.0,0.0,0.0,0.0,0.0,0.0,0.0,0.0,0.0,0.0,0.0,0.0,0.0,0.0,0.0,0.0,0.0,0.0,0.0,0.0,0.0,0.0,0.0,0.0,0.0,0.0,0.0,0.0,0.0,0.0,0.0,0.0,0.0,0.0,0.0,0.0,-0.3063,-0.3056,-0.3034,0.0,0.0,0.0,0.0,-0.3232,-0.3134,0.0,0.0,0.0,0.0,0.0,0.0,0.0,0.0,0.0,0.0,0.0,0.0,0.0,0.0,0.0,0.0,0.0,0.0,0.0,0.0,0.0,0.0,0.0,0.0,0.0,0.0,0.0,0.0,0.0,0.0,0.0,0.0,0.0,0.0,0.0,0.0,0.0,0.0,0.0,0.0,0.0,0.0,0.0,0.0,0.0,0.0,0.0,0.0,0.0,0.0,0.0,0.0,0.0,0.0,0.0,0.0,-0.5738,-0.6256,-0.7021,-0.8019,-0.8308,-0.8576,-0.8947,-0.8468,-0.7796,0.0,0.0,0.0,0.0,0.0,0.0,0.0,0.0,0.0,0.0,0.0,0.0,0.0,0.0,0.0,0.0,0.0,0.0,0.0,0.0,0.0,0.0,0.0,0.0,0.0,0.0,0.0,0.0,0.0,0.0,0.0,0.0,0.0,0.0,0.0,0.0,0.0,0.0,0.0,0.0,0.0,-0.316,-0.3358,-0.3164,-0.3094,0.0,0.0,-0.3471,-0.3395,-0.3531,0.0,0.0,0.0,0.0,0.0,0.0,0.0,0.0,0.0,0.0,0.0,0.0,0.0,0.0,0.0,0.0,0.0,0.0,0.0,0.0,0.0,0.0,0.0,0.0,0.0,0.0,0.0,0.0,0.0,0.0,0.0,0.0,0.0,0.0,0.0,0.0,0.0,0.0,0.0,0.0,0.0,0.0,0.0,0.0,0.0,0.0,0.0,0.0,0.0,0.0,0.0,0.0,0.0,0.0,0.0,-0.5031,-0.6065,-0.646,-0.7175,-0.8135,-0.8388,-0.8575,-0.8748,-0.83,-0.77,0.0,0.0,0.0,0.0,0.0,0.0,0.0,0.0,0.0,0.0,0.0,0.0,0.0,0.0,0.0,0.0,0.0,0.0,0.0,0.0,0.0,0.0,0.0,0.0,0.0,0.0,0.0,0.0,0.0,0.0,0.0,0.0,0.0,0.0,0.0,0.0,0.0,0.0,0.0,0.0,0.0,0.0,-0.3011,-0.3177,0.0,0.0,0.0,-0.3613,-0.3691,0.0,0.0,0.0,0.0,0.0,0.0,0.0,0.0,0.0,0.0,0.0,0.0,0.0,0.0,0.0,0.0,0.0,0.0,0.0,0.0,0.0,0.0,0.0,0.0,0.0,0.0,0.0,0.0,0.0,0.0,0.0,0.0,0.0,0.0,0.0,0.0,0.0,0.0,0.0,0.0,0.0,0.0,0.0,0.0,0.0,0.0,0.0,0.0,0.0,0.0,0.0,0.0,0.0,0.0,0.0,0.0,0.0,-0.6342,-0.6844,-0.7522,-0.8351,-0.8548,-0.8654,-0.8707,-0.8321,0.0,0.0,0.0,0.0,0.0,0.0,0.0,0.0,0.0,0.0,0.0,0.0,0.0,0.0,0.0,0.0,0.0,0.0,0.0,0.0,0.0,0.0,0.0,0.0,0.0,0.0,0.0,-0.1884,0.0,0.0,0.0,0.0,0.0,0.0,0.0,0.0,0.0,0.0,0.0,0.0,0.0,0.0,-0.3294,-0.2963,-0.3295,-0.3472,0.0,0.0,-0.3757,-0.3871,-0.3795,-0.3645,0.0,0.0,0.0,0.0,0.0,0.0,0.0,0.0,0.0,0.0,0.0,0.0,0.0,0.0,0.0,0.0,0.0,0.0,0.0,0.0,0.0,0.0,0.0,0.0,0.0,0.0,0.0,0.0,0.0,0.0,0.0,0.0,0.0,0.0,0.0,0.0,0.0,0.0,0.0,0.0,0.0,0.0,0.0,0.0,0.0,0.0,0.0,0.0,0.0,0.0,0.0,0.0,0.0,0.0,0.0,-0.6546,-0.7361,-0.8082,-0.8907,-0.8947,-0.896,-0.907,-0.8783,-0.8075,0.0,0.0,0.0,0.0,0.0,0.0,0.0,0.0,0.0,0.0,0.0,0.0,0.0,0.0,0.0,0.0,0.0,0.0,0.0,0.0,0.0,0.0,0.0,0.0,0.0,0.0,0.0,0.0,0.0,0.0,0.0,0.0,0.0,0.0,0.0,0.0,0.0,0.0,0.0,0.0,0.0,-0.3352,-0.3487,-0.3541,-0.3613,0.0,0.0,-0.4009,-0.3859,-0.3944,-0.3928,-0.3474,0.0,0.0,0.0,0.0,0.0,0.0,0.0,0.0,0.0,0.0,0.0,0.0,0.0,0.0,0.0,0.0,0.0,0.0,0.0,0.0,0.0,0.0,0.0,0.0,0.0,0.0,0.0,0.0,0.0,0.0,0.0,0.0,0.0,0.0,0.0,0.0,0.0,0.0,0.0,0.0,0.0,0.0,0.0,0.0,0.0,0.0,0.0,0.0,0.0,0.0,0.0,0.0,0.0,-0.5556,-0.6954,-0.7366,-0.8027,-0.893,-0.9022,-0.896,-0.8769,-0.8753,-0.819,0.0,0.0,0.0,0.0,0.0,0.0,0.0,0.0,0.0,0.0,0.0,0.0,0.0,0.0,0.0,0.0,0.0,0.0,0.0,0.0,0.0,0.0,0.0,0.0,0.0,0.0,0.0,0.0,-0.3069,-0.2999,-0.282,0.0,0.0,0.0,0.0,0.0,0.0,0.0,0.0,0.0,0.0,-0.4235,-0.45,-0.4735,0.0,0.0,-0.4965,-0.5065,-0.5104,-0.4728,-0.4403,-0.4172,-0.3836,0.0,0.0,0.0,0.0,0.0,0.0,0.0,0.0,0.0,0.0,0.0,0.0,0.0,0.0,0.0,0.0,0.0,0.0,0.0,0.0,0.0,0.0,0.0,0.0,0.0,0.0,0.0,0.0,0.0,0.0,0.0,0.0,0.0,0.0,0.0,0.0,0.0,0.0,0.0,0.0,0.0,0.0,0.0,0.0,0.0,0.0,0.0,0.0,0.0,0.0,0.0,0.0,-0.5755,-0.7309,-0.7628,-0.821,-0.9139,-0.9151,-0.9029,-0.8769,-0.8699,-0.8275,0.0,0.0,0.0,0.0,0.0,0.0,0.0,0.0,0.0,0.0,0.0,0.0,0.0,0.0,0.0,0.0,0.0,0.0,0.0,0.0,0.0,0.0,0.0,0.0,0.0,0.0,0.0,0.0,-0.3569,-0.3474,-0.331,0.0,0.0,0.0,0.0,0.0,0.0,0.0,0.0,0.0,0.0,-0.4977,-0.5265,-0.5546,-0.5728,-0.5575,-0.5675,-0.5735,-0.5806,-0.5403,-0.5023,-0.4845,0.0,0.0,0.0,0.0,0.0,0.0,0.0,0.0,0.0,0.0,0.0,0.0,0.0,0.0,0.0,0.0,0.0,0.0,0.0,0.0,0.0,0.0,0.0,0.0,0.0,0.0,0.0,0.0,0.0,0.0,-0.3579,0.0,0.0,0.0,0.0,0.0,0.0,0.0,0.0,0.0,0.0,0.0,0.0,0.0,0.0,0.0,0.0,0.0,0.0,0.0,0.0,0.0,0.0,-0.6264,-0.7571,-0.8279,-0.8944,-0.9466,-0.9478,-0.9352,-0.9076,-0.8813,-0.8353,-0.7595,0.0,0.0,0.0,0.0,0.0,0.0,0.0,0.0,0.0,0.0,0.0,0.0,0.0,0.0,0.0,0.0,0.0,0.0,0.0,0.0,0.0,0.0,0.0,0.0,0.0,0.0,-0.3788,-0.3695,-0.356,0.0,0.0,0.0,0.0,0.0,0.0,0.0,0.0,0.0,0.0,-0.5385,-0.5698,-0.5702,-0.5845,-0.6011,-0.6158,-0.6052,-0.5898,-0.5818,-0.5902,-0.577,0.0,0.0,0.0,0.0,0.0,0.0,0.0,0.0,0.0,0.0,0.0,0.0,0.0,0.0,0.0,0.0,0.0,0.0,0.0,0.0,0.0,0.0,0.0,0.0,0.0,0.0,0.0,-0.5414,-0.5043,0.0,0.0,0.0,0.0,0.0,0.0,0.0,0.0,0.0,0.0,0.0,-0.8082,-0.8347,0.0,0.0,0.0,0.0,0.0,0.0,0.0,0.0,0.0,0.0,0.0,0.0,-0.6478,-0.7739,-0.8375,-0.8939,-0.9466,-0.9478,-0.9442,-0.9409,-0.8914,-0.8281,-0.7364,0.0,0.0,0.0,0.0,0.0,0.0,0.0,0.0,0.0,0.0,0.0,0.0,0.0,0.0,0.0,0.0,0.0,0.0,0.0,0.0,0.0,0.0,0.0,0.0,0.0,-0.4182,0.0,0.0,0.0,0.0,0.0,0.0,0.0,0.0,0.0,0.0,0.0,-0.5235,-0.6059,-0.644,-0.6764,-0.7034,-0.7269,-0.7411,0.0,0.0,0.0,0.0,0.0,0.0,0.0,0.0,0.0,0.0,0.0,0.0,0.0,0.0,-0.6998,-0.595,-0.5649,-0.5657,-0.576,0.0,0.0,0.0,0.0,0.0,0.0,0.0,0.0,0.0,0.0,0.0,0.0,0.0,0.0,-0.6224,0.0,-0.5669,0.0,0.0,0.0,0.0,0.0,0.0,0.0,0.0,-0.8273,-0.8855,-0.91,-0.9421,-0.9599,0.0,-0.926,-0.8419,0.0,0.0,0.0,0.0,0.0,0.0,0.0,0.0,-0.6924,-0.8015,-0.8551,-0.9021,-0.9466,-0.9478,-0.9478,-0.9472,-0.8962,-0.8329,-0.746,-0.706,-0.6611,0.0,0.0,0.0,0.0,0.0,0.0,0.0,0.0,0.0,0.0,0.0,0.0,0.0,0.0,0.0,0.0,0.0,0.0,0.0,0.0,0.0,0.0,0.0,-0.4634,0.0,0.0,0.0,0.0,0.0,0.0,0.0,0.0,0.0,-0.5682,-0.5813,-0.6253,-0.7145,-0.7377,-0.7559,-0.7985,0.0,0.0,0.0,0.0,0.0,0.0,0.0,-0.7579,-0.7565,-0.7194,-0.6906,-0.6894,-0.749,-0.7883,-0.761,0.0,0.0,-0.7073,-0.6818,-0.6771,-0.6771,-0.6932,-0.704,-0.6979,-0.7182,-0.7357,0.0,0.0,0.0,0.0,0.0,0.0,0.0,0.0,-0.7078,-0.7088,0.0,-0.6829,0.0,0.0,0.0,0.0,0.0,-0.7832,0.0,0.0,-0.9807,-1.0287,-1.0068,-1.0305,-1.0293,-1.0056,-1.0876,-1.0817,-0.996,-0.7696,0.0,0.0,0.0,0.0,0.0,0.0,-0.7644,-0.844,-0.8968,-0.9351,-0.9554,-0.9554,-0.9542,-0.9454,-0.8968,-0.8447,-0.7937,-0.7707,-0.7255,-0.6489,-0.6167,0.0,0.0,0.0,0.0,0.0,0.0,0.0,0.0,0.0,0.0,0.0,0.0,0.0,0.0,0.0,0.0,0.0,0.0,0.0,0.0,-0.4515,0.0,0.0,0.0,0.0,0.0,0.0,0.0,0.0,0.0,0.0,-0.6641,-0.6912,-0.7376,-0.8,0.0,0.0,0.0,0.0,-0.8264,-0.8666,-0.8557,-0.8505,-0.8689,-0.8883,-0.8874,-0.8496,0.0,0.0,-0.85,-0.876,-0.8892,-0.8505,-0.86,-0.8595,-0.8184,-0.7919,-0.7792,-0.7787,-0.7655,-0.766,-0.7763,-0.7844,-0.79,-0.9108,0.0,0.0,0.0,0.0,-0.9492,-0.9603,-0.9796,-0.9555,-0.9293,-0.8942,-0.8633,0.0,0.0,0.0,0.0,0.0,0.0,-1.0878,-1.1462,-1.2045,-1.2213,-1.2145,-1.2364,-1.2453,-1.2255,-1.2193,-1.2002,-1.168,-1.0678,-0.9296,-0.7603,0.0,0.0,0.0,0.0,-0.9385,-1.0322,-1.0737,-1.071,-1.0464,-1.0213,-0.9825,-0.9252,-0.9034,-0.8711,-0.8195,-0.8105,-0.7834,-0.7285,-0.6823,0.0,0.0,0.0,0.0,0.0,0.0,0.0,0.0,0.0,0.0,0.0,0.0,0.0,0.0,0.0,0.0,0.0,0.0,0.0,-0.5091,-0.5035,-0.5209,0.0,0.0,0.0,0.0,0.0,0.0,0.0,0.0,0.0,-0.808,-0.8017,-0.8152,0.0,0.0,-0.8883,-0.8647,-0.8817,-0.9011,-0.9129,-0.91,0.0,-0.9133,-0.9077,-0.903,-0.9058,-0.9157,-0.9195,-0.9077,-0.9157,-0.92,-0.9077,-0.9105,-0.91,-0.8982,-0.8675,-0.8453,-0.8439,-0.8505,-0.859,-0.8652,-0.8666,-0.868,-1.0307,-1.0288,-1.0124,-1.0171,-1.0358,-1.0525,-1.0622,-1.0651,-1.0505,-1.0327,-1.0125,-1.003,-0.9668,-0.9168,-0.9235,0.0,0.0,0.0,-1.2412,-1.3034,-1.3259,-1.34,-1.3325,-1.3501,-1.3554,-1.3492,-1.3295,-1.3177,-1.3126,-1.2796,-1.1821,-1.0279,0.0,0.0,-0.8807,-0.963,-1.0299,-1.0644,-1.0943,-1.0842,-1.0447,-1.0128,-0.9775,-0.9301,-0.9124,-0.8867,-0.8465,-0.8345,-0.8148,-0.7725,-0.7352,-0.6829,0.0,0.0,0.0,0.0,0.0,0.0,0.0,0.0,0.0,0.0,0.0,-0.3875,0.0,0.0,0.0,0.0,-0.434,-0.5048,-0.5806,-0.5706,0.0,0.0,0.0,0.0,0.0,0.0,0.0,-0.785,-0.8382,-0.8812,-0.893,-0.8921,-0.8935,-0.9063,-0.9219,-0.9261,-0.91,0.0,-0.9356,-0.9436,-0.945,-0.9483,-0.9559,-0.9474,-0.9436,-0.9554,-0.9578,-0.9573,-0.9573,-0.9573,-0.9573,-0.9573,-0.9573,-0.9573,-0.9573,-0.9606,-0.9528,-0.9061,-0.9053,-0.9213,-0.9622,-0.9697,-0.9776,-1.0983,-1.1339,-1.1062,-1.0545,-1.011,-1.0785,-1.0875,-1.0548,-1.0633,-1.0726,-1.095,-1.1134,-1.1041,-1.0842,-1.1294,0.0,-1.1997,-1.2938,-1.3532,-1.3772,-1.3967,-1.4095,-1.4073,-1.4066,-1.4052,-1.4024,-1.4281,-1.4441,-1.4403,-1.4268,-1.3846,-1.3104,-1.2108,-1.1001,-0.9854,-1.0562,-1.0711,-1.0269,-1.0511,-1.0424,-1.0074,-0.9835,-0.9637,-0.96,-0.9339,-0.9126,-0.8804,-0.8543,-0.8226,-0.7961,-0.7765,-0.7334,-0.6544,0.0,0.0,0.0,0.0,0.0,0.0,0.0,0.0,0.0,0.0,0.0,0.0,0.0,0.0,0.0,-0.4953,0.0,-0.6314,-0.6484,0.0,0.0,0.0,-0.7461,-0.7885,-0.828,-0.8461,-0.8496,0.0,0.0,-0.9422,-0.9597,-0.9719,-0.9719,-0.9516,-0.9436,-0.9541,-0.9488,-0.9441,-0.9649,-0.9667,-0.9738,-0.9875,-0.999,-0.9981,-0.9995,-1.0038,-1.0014,-1.0009,-0.9927,-1.0028,-1.0009,-1.0033,-1.0024,-1.0115,-1.0758,-1.0931,-0.9838,-0.962,-0.9866,-1.0686,-1.0827,-1.1047,-1.2194,-1.2192,-1.2461,-1.2104,-1.1542,-1.2037,-1.2127,-1.1877,-1.2312,-1.2542,-1.2688,-1.2706,-1.2922,-1.3101,-1.366,-1.4157,-1.4465,-1.5164,-1.563,-1.5947,-1.6033,-1.5932,-1.5676,-1.5676,-1.5537,-1.5289,-1.5357,-1.5402,-1.5394,-1.5312,-1.4903,-1.4056,-1.4194,-1.3393,-1.1833,-1.2407,-1.2898,-1.3104,-1.3179,-1.2735,-1.1731,-1.1321,-1.0975,-1.0618,-1.0315,-1.002,-0.9789,-0.9154,-0.8703,-0.8434,-0.8403,-0.8031,-0.7328,-0.6715,0.0,0.0,0.0,0.0,0.0,0.0,0.0,0.0,0.0,-0.5145,-0.4269,0.0,-0.5728,0.0,-0.5663,-0.6212,-0.691,-0.7183,0.0,0.0,-0.85,-0.8832,-0.8966,-0.9135,-0.9306,-0.9604,-0.971,-0.9923,-1.0239,-1.0319,-1.0353,-1.0343,-1.0036,-0.9762,-0.9672,-0.9743,-0.9819,-0.9861,-0.9871,-0.9894,-1.0024,-1.0038,-1.0038,-1.0038,-1.0038,-1.0038,-1.0038,-1.0038,-1.0038,-1.0038,-1.0038,-1.0207,-1.0895,-1.1154,-1.1461,-1.1764,-1.1899,-1.1983,-1.2152,-1.2094,-1.2034,-1.2684,-1.265,-1.3205,-1.3214,-1.289,-1.2963,-1.3152,-1.3373,-1.3647,-1.3993,-1.445,-1.445,-1.4455,-1.4582,-1.5161,-1.5434,-1.5546,-1.6113,-1.6547,-1.673,-1.673,-1.6627,-1.6444,-1.6444,-1.6333,-1.6142,-1.5983,-1.5912,-1.5904,-1.5753,-1.5425,-1.4934,-1.5245,-1.4862,-1.3708,-1.3605,-1.3562,-1.3562,-1.3427,-1.3033,-1.2415,-1.186,-1.1374,-1.0996,-1.0815,-1.046,-0.989,-0.9602,-0.9329,-0.8917,-0.889,-0.8553,-0.7904,-0.7556,-0.7139,0.0,0.0,0.0,0.0,0.0,0.0,0.0,0.0,0.0,0.0,0.0,-0.6425,-0.6526,-0.6779,-0.7197,-0.7982,-0.8132,-0.8379,-0.8736,-0.9113,-0.9404,-0.9628,-0.9663,-0.9887,-1.0252,-1.023,-1.0315,-1.0542,-1.057,-1.057,-1.057,-1.0376,-1.0159,-0.9965,-0.9951,-1.0038,-1.0038,-1.0038,-1.0038,-1.0038,-1.0038,-1.0038,-1.0038,-1.0038,-1.0038,-1.0038,-1.0038,-1.012,-1.0467,-1.0554,-1.089,-1.1746,-1.2254,-1.2778,-1.3197,-1.362,-1.3711,-1.3451,-1.3245,-1.3227,-1.305,-1.305,-1.3698,-1.3974,-1.413,-1.3797,-1.4132,-1.4733,-1.4823,-1.5246,-1.591,-1.5999,-1.5936,-1.5677,-1.6208,-1.6314,-1.6035,-1.6578,-1.6802,-1.6802,-1.6754,-1.673,-1.673,-1.673,-1.673,-1.6714,-1.642,-1.6277,-1.6261,-1.596,-1.5785,-1.5745,-1.5745,-1.5578,-1.5245,-1.444,-1.3659,-1.3112,-1.2849,-1.2763,-1.272,-1.2183,-1.1732,-1.1311,-1.1156,-1.071,-0.9889,-1.0059,-0.9883,-0.9415,-0.9355,-0.9079,-0.8426,-0.8519,-0.8226,0.0,-0.7496,0.0,0.0,0.0,0.0,0.0,0.0,0.0,0.0,-0.6584,-0.7081,-0.7833,-0.7986,-0.826,-0.8998,-0.9115,-0.9181,-0.9379,-0.9426,-0.9601,-1.0062,-1.0119,-1.0182,-1.057,-1.0617,-1.0715,-1.0939,-1.0836,-1.0934,-1.1223,-1.1184,-1.1079,-1.0648,-1.0272,-1.0064,-1.0119,-1.0095,-1.0095,-1.0047,-1.0038,-1.0038,-1.0038,-1.0038,-1.0033,-1.0207,-1.0212,-1.0463,-1.1235,-1.1494,-1.1832,-1.2681,-1.3542,-1.4055,-1.423,-1.4831,-1.4999,-1.4482,-1.4216,-1.4489,-1.4004,-1.401,-1.4196,-1.4573,-1.5134,-1.5038,-1.5145,-1.5284,-1.5741,-1.6145,-1.6624,-1.7152,-1.7383,-1.7321,-1.7494,-1.7463,-1.7384,-1.7209,-1.7175,-1.7167,-1.6873,-1.673,-1.673,-1.673,-1.673,-1.673,-1.6667,-1.6635,-1.6635,-1.6571,-1.6389,-1.6111,-1.6111,-1.5928,-1.5586,0.0,0.0,0.0,-1.4212,-1.4049,-1.377,-1.3707,-1.3357,-1.2741,-1.2112,0.0,-1.1135,-1.0635,-1.0312,-1.0193,-1.0439,0.0,0.0,0.0,0.0,0.0,0.0,0.0,0.0,0.0,0.0,0.0,-0.9337,-0.8588,-0.7577,-0.7827,-0.8178,-0.8598,-0.8841,-0.9011,-0.9047,-0.9308,-0.9611,-0.9809,-0.9984,-1.0192,-1.0423,-1.0543,-1.056,-1.0801,-1.0839,-1.1272,-1.2172,-1.231,-1.2587,-1.3317,-1.3467,-1.2966,-1.2072,-1.1119,-1.0543,-1.0447,-1.0305,-1.0149,-1.0067,-1.0052,-1.0076,-1.0038,-1.0038,-1.0299,-1.0911,-1.1068,-1.1408,-1.2254,-1.2425,-1.2766,-1.3626,-1.3971,-1.4398,-1.5006,-1.5257,-1.534,-1.5173,-1.5173,-1.5173,-1.5057,0.0,-1.5812,-1.6183,0.0,-1.6943,-1.7037,-1.7069,-1.6985,-1.7249,-1.7838,-1.8116,-1.8192,-1.8033,-1.8033,-1.7938,-1.7763,-1.7596,-1.7525,-1.7517,-1.7326,-1.7159,-1.7,-1.7,-1.6913,-1.673,-1.673,-1.673,-1.673,-1.673,-1.6643,-1.6468,-1.6468,-1.6293,-1.5928,-1.5435,-1.5006,-1.4569,-1.4569,-1.4482,-1.4379,-1.4204,-1.3862,-1.3346,-1.283,0.0,0.0,0.0,0.0,0.0,0.0,0.0,0.0,0.0,0.0,-1.0166,-1.0401,-1.0621,-1.0751,-1.0938,-1.1153,-1.1369,-1.1286,-1.0731,-0.9478,-0.9783,-1.0231,-1.0551,-1.075,-1.0914,-1.1033,-1.1261,-1.1494,-1.1816,-1.1958,-1.2031,-1.2248,-1.2297,-1.2395,-1.2511,-1.256,-1.28,-1.3386,-1.3499,-1.3692,-1.4166,-1.3778,-1.3412,-1.3188,-1.216,-1.1206,-1.0662,-1.0499,-1.0386,-1.0291,-1.0348,-1.0522,-1.0865,-1.0868,-1.1242,-1.2099,-1.2083,-1.2254,-1.3197,-1.3366,-1.3711,-1.4482,-1.4741,-1.4915,-1.5257,-1.5431,-1.5431,-1.5431,-1.5431,-1.5431,-1.5913,-1.6676,-1.7232,-1.7598,-1.7785,-1.835,-1.8643,-1.8735,0.0,0.0,0.0,-1.8827,-1.8661,-1.839,-1.839,-1.8232,-1.7962,-1.789,-1.7866,-1.7858,-1.7795,-1.7628,-1.7374,-1.7366,-1.7183,-1.6833,-1.6833,-1.6794,-1.673,-1.673,-1.673,-1.673,-1.673,-1.6563,-1.619,-1.565,-1.5181,-1.4832,-1.4697,-1.4569,-1.4561,-1.4355,-1.4037,-1.3688,-1.3354,-1.2869,-1.2242,-1.221,-1.2075,-1.1789,-1.1829,-1.1721,-1.1333,-1.1929,-1.2085,-1.1768,-1.2436,-1.2819,-1.2601,-1.2976,-1.3103,-1.2928,-1.3071,-1.2581,-1.1378,-1.1624,-1.208,-1.2484,-1.2569,-1.2777,-1.3212,-1.3297,-1.3432,-1.3701,-1.3731,-1.3835,-1.4005,-1.4042,-1.4032,-1.4321,-1.416,-1.4358,-1.4549,-1.4549,-1.4651,-1.4746,-1.4345,-1.3686,-1.4214,-1.335,-1.2265,-1.1574,-1.1461,-1.1349,-1.1211,-1.1273,-1.1477,-1.2161,-1.2108,-1.2354,-1.3115,-1.3312,-1.3525,-1.4426,-1.447,-1.4838,-1.5437,-1.5558,-1.5577,-1.5526,-1.5511,-1.5489,-1.5445,-1.5431,-1.5431,-1.5913,-1.6581,-1.6676,-1.7138,-1.7684,-1.7785,-1.8257,-1.8827,-1.8643,-1.8735,-1.8827,-1.8827,-1.8804,-1.8748,-1.8756,-1.8724,-1.8661,-1.8367,-1.8224,-1.8208,-1.7914,-1.7747,-1.7707,-1.7699,-1.7525,-1.7215,-1.7207,-1.704,-1.6762,-1.673,-1.673,-1.673,-1.673,-1.6563,-1.6222,-1.6111,-1.5888,-1.5523,-1.4943,-1.4569,-1.4569,-1.4522,-1.4395,-1.4045,-1.3696,-1.3346,-1.2957,-1.2941,-1.2917,-1.2869,-1.3132,-1.3163,-1.2838,-1.3171,-1.3243,-1.2925,-1.3126,-1.3372,-1.359,-1.3523,-1.3744,-1.4263,-1.4881,-1.4381,-1.2407,-1.23,-1.2471,-1.2934,-1.3243,-1.3343,-1.3442,-1.3735,-1.3985,-1.397,-1.4019,-1.4023,-1.4361,-1.4392,-1.4404,-1.4447,-1.4358,-1.4746,-1.5412,-1.5602,-1.5893,-1.656,-1.6278,-1.6278,-1.5501,-1.4684,-1.3968,-1.3608,-1.3548,-1.3454,-1.3135,-1.3211,-1.3247,-1.3375,-1.3363,-1.3591,-1.4596,-1.4701,-1.4913,-1.5855,-1.5893,-1.6002,-1.6191,-1.6235,-1.6096,-1.5899,-1.5848,-1.5767,-1.554,-1.5467,-1.5452,-1.7138,-1.78,-1.78,-1.7978,-1.8257,-1.8265,-1.8542,-1.8827,-1.8827,-1.8827,-1.8827,-1.8827,-1.8827,-1.8827,-1.8827,-1.8827,-1.8819,-1.8653,-1.8589,-1.8573,-1.8414,-1.824,-1.8065,-1.8057,-1.7882,-1.7548,-1.7358,-1.7191,-1.7024,-1.6833,-1.673,-1.673,-1.673,-1.6569,-1.6492,-1.6301,-1.6126,-1.5952,-1.5284,-1.4935,-1.4935,-1.4744,-1.4482,-1.4324,-1.4053,-1.3807,-1.3648,-1.3465,-1.3354,-1.3362,-1.3505,-1.3513,-1.3378,-1.368,-1.3799,-1.3664,-1.3913,-1.4096,-1.4238,-1.4378,-1.4712,-1.5296,-1.5566,-1.5418,-1.4503,-1.4434,-1.4469,-1.476,-1.484,-1.506,-1.5274,-1.5445,-1.565,-1.5765,-1.5792,-1.5846,-1.5859,-1.5893,-1.5893,-1.5893,-1.5886,-1.6082,-1.656,-1.6662,-1.6756,-1.7232,-1.7333,-1.6951,-1.5988,-1.5893,-1.5468,-1.4401,-1.4187,-1.4139,-1.4011,-1.3999,-1.4279,-1.4651,-1.4609,-1.4988,-1.5791,-1.5887,-1.5946,-1.6279,-1.6374,-1.6367,-1.6374,-1.6367,-1.6294,-1.6228,-1.6162,-1.603,-1.5789,-1.5694,-1.5635,-1.8164,-1.8827,-1.8827,-1.8827,-1.8827,-1.8827,-1.8827,-1.8827,-1.8827,-1.8827,-1.8827,-1.8827,-1.8827,-1.8827,-1.8827,-1.8827,-1.8827,-1.8827,-1.8827,-1.8827,-1.8827,-1.8684,-1.8438,-1.8414,-1.8232,-1.7898,-1.762,-1.7429,-1.7262,-1.6992,-1.681,-1.6746,-1.673,-1.673,-1.673,-1.646,-1.6325,-1.6285,-1.5721,-1.5372,-1.5284,-1.4943,-1.4688,-1.4744,-1.4418,-1.4228,-1.4212,-1.3966,-1.3823,-1.3823,-1.3823,-1.3823,-1.3831,-1.4077,-1.4228,-1.426,-1.4561,-1.48,-1.4887,-1.5205,-1.5565,-1.5936,-1.6061,-1.6129,-1.6214,-1.6322,-1.6301,-1.6282,-1.6301,-1.6498,-1.6808,-1.7014,-1.7154,-1.7304,-1.7333,-1.7225,-1.7239,-1.7333,-1.7333,-1.7333,-1.7333,-1.7239,-1.7333,-1.7333,-1.7333,-1.7239,-1.7333,-1.6951,-1.6372,-1.685,-1.656,-1.5609,-1.4937,-1.5013,-1.4937,-1.5007,-1.5386,-1.6082,-1.5892,-1.6139,-1.6649,-1.674,-1.6616,-1.6638,-1.6616,-1.6638,-1.6608,-1.6608,-1.6579,-1.6521,-1.6477,-1.6382,-1.6089,-1.6023,-1.5913,-1.8156,-1.8735,-1.8827,-1.8827,-1.8827,-1.8827,-1.8827,-1.8827,-1.8827,-1.8827,-1.8827,-1.8827,-1.8827,-1.8827,-1.8827,-1.8827,-1.8827,-1.8827,-1.8827,-1.8827,-1.8827,-1.8804,-1.8764,-1.8772,-1.8597,-1.8279,-1.82,-1.7858,-1.735,-1.7247,-1.7056,-1.677,-1.673,-1.673,-1.6722,-1.6698,-1.6683,-1.6675,-1.6301,-1.596,-1.5634,-1.5308,-1.5133,-1.5133,-1.4784,-1.4593,-1.4522,-1.4554,-1.4546,-1.4466,-1.4538,-1.4466,-1.4538,-1.4577,-1.4593,-1.4537,-1.4935,-1.5261,-1.5562,-1.5912,-1.6126,-1.6222,-1.6427,-1.6609,-1.6672,-1.6949,-1.6977,-1.673,-1.6858,-1.7009,-1.7191,-1.739,-1.7461,-1.7311,-1.7333,-1.7333,-1.7333,-1.7333,-1.7333,-1.7333,-1.7333,-1.7333,-1.7333,-1.7333,-1.7333,-1.7333,-1.7333,-1.7232,-1.7044,-1.7138,-1.7232,-1.6951,-1.6943,-1.6943,-1.685,-1.7044,-1.685,-1.7037,-1.7117,-1.7059,-1.7115,-1.7216,-1.7223,-1.7055,-1.7165,-1.7143,-1.7165,-1.723,-1.7099,-1.6857,-1.6769,-1.6786,-1.6426,-1.633,-1.6213,-1.8542,-1.8827,-1.8827,-1.8827,-1.8827,-1.8827,-1.8827,-1.8827,-1.8827,-1.8827,-1.8827,-1.8827,-1.8827,-1.8827,-1.8827,-1.8827,-1.8827,-1.8827,-1.8827,-1.8827,-1.8827,-1.8827,-1.8827,-1.8827,-1.8748,-1.8597,-1.8406,-1.816,-1.7858,-1.7485,-1.7088,-1.677,-1.673,-1.673,-1.673,-1.673,-1.673,-1.673,-1.6595,-1.6444,-1.6261,-1.5761,-1.5483,-1.5459,-1.5324,-1.5157,-1.5006,-1.5141,-1.5062,-1.4712,-1.503,-1.5165,-1.4975,-1.5141,-1.5253,-1.5261,-1.5388,-1.5626,-1.5968,-1.6126,-1.6301,-1.65,-1.6643,-1.673,-1.6746,-1.7072,-1.7187,-1.6983,-1.7178,-1.7424,-1.7467,-1.7453,-1.7434,-1.7326,-1.7333,-1.7333,-1.7333,-1.7333,-1.7333,-1.7333,-1.7333,-1.7333,-1.7333,-1.7333,-1.7333,-1.7333,-1.7333,-1.7333,-1.7333,-1.7333,-1.7333,-1.7333,-1.7333,-1.7333,-1.7333,-1.7333,-1.7333,-1.7333,-1.7333,-1.7333,-1.7333,-1.7333,-1.7326,-1.7333,-1.7333,-1.7333,-1.7296,-1.7333,-1.7267,-1.7106,-1.693,-1.6897,-1.6674,-1.666,-1.6587,-1.8827,-1.8827,-1.8827,-1.8827,-1.8827,-1.8827,-1.8827,-1.8827,-1.8827,-1.8827,-1.8827,-1.8827,-1.8827,-1.8827,-1.8827,-1.8827,-1.8827,-1.8827,-1.8827,-1.8827,-1.8827,-1.8827,-1.8827,-1.8827,-1.8827,-1.8788,-1.8573,-1.839,-1.824,-1.7612,-1.7143,-1.6905,-1.6786,-1.673,-1.673,-1.673,-1.673,-1.673,-1.673,-1.673,-1.6659,-1.623,-1.592,-1.5825,-1.5721,-1.5562,-1.5348,-1.5547,-1.5451,-1.4975,-1.5419,-1.557,-1.5356,-1.5547,-1.5721,-1.5809,-1.5817,-1.5975,-1.6317,-1.6357,-1.6468,-1.669,-1.673,-1.6778,-1.6921,-1.7207,-1.7384,-1.737,-1.7612,-1.7743,-1.7569,-1.7426,-1.7333,-1.7333,-1.7333,-1.7333,-1.7333,-1.7333,-1.7333,-1.7333,-1.7333,-1.7333,-1.7333,-1.7333,-1.7333,-1.7333,-1.7333,-1.7333,-1.7333,-1.7333,-1.7333,-1.7333,-1.7333,-1.7333,-1.7333,-1.7333,-1.7333,-1.7333,-1.7333,-1.7333,-1.7333,-1.7333,-1.7333,-1.7333,-1.7333,-1.7333,-1.7333,-1.7333,-1.7333,-1.7282,-1.7143,-1.6982,-1.6982,-1.6982,-1.6982,-1.8827,-1.8827,-1.8827,-1.8827,-1.8827,-1.8827,-1.8827,-1.8827,-1.8827,-1.8827,-1.8827,-1.8827,-1.8827,-1.8827,-1.8827,-1.8827,-1.8827,-1.8827,-1.8827,-1.8827,-1.8827,-1.8827,-1.8827,-1.8827,-1.8827,-1.8827,-1.8788,-1.8605,-1.8271,-1.7644,-1.727,-1.7231,-1.6929,-1.6746,-1.673,-1.673,-1.673,-1.673,-1.673,-1.673,-1.673,-1.669,-1.6492,-1.619,-1.5872,-1.5713,-1.5666,-1.5674,-1.5658,-1.5618,-1.5682,-1.569,-1.5658,-1.569,-1.5864,-1.6134,-1.6182,-1.6333,-1.6635,-1.6675,-1.6698,-1.673,-1.6762,-1.6881,-1.7191,-1.7548,-1.7882,-1.8142,-1.8094,-1.7863,-1.7412,-1.7326,-1.7333,-1.7333,-1.7333,-1.7333,-1.7333,-1.7333,-1.7333,-1.7333,-1.7333,-1.7333,-1.7333,-1.7333,-1.7333,-1.7333,-1.7333,-1.7333,-1.7333,-1.7333,-1.7333,-1.7333,-1.7333,-1.7333,-1.7333,-1.7333,-1.7333,-1.7333,-1.7333,-1.7333,-1.7333,-1.7333,-1.7333,-1.7333,-1.7333,-1.7333,-1.7333,-1.7333,-1.7333,-1.7318,-1.7311,-1.7238,-1.7186,-1.7267,-1.7439,-1.8827,-1.8827,-1.8827,-1.8827,-1.8827,-1.8827,-1.8827,-1.8827,-1.8827,-1.8827,-1.8827,-1.8827,-1.8827,-1.8827,-1.8827,-1.8827,-1.8827,-1.8827,-1.8827,-1.8827,-1.8827,-1.8827,-1.8827,-1.8827,-1.8827,-1.8827,-1.8827,-1.8653,-1.8319,-1.8041,-1.7699,-1.7318,-1.7159,-1.6976,-1.6778,-1.673,-1.673,-1.673,-1.673,-1.673,-1.673,-1.673,-1.6667,-1.6547,-1.642,-1.6246,-1.6015,-1.623,-1.615,-1.5705,-1.6103,-1.6246,-1.6063,-1.6238,-1.6404,-1.6524,-1.654,-1.6603,-1.6714,-1.673,-1.673,-1.6746,-1.6953,-1.7127,-1.7342,-1.7779,-1.8079,-1.8073,-1.8072,-1.7885,-1.7621,-1.7426,-1.7333,-1.7333,-1.7333,-1.7333,-1.7333,-1.7333,-1.7333,-1.7333,-1.7333,-1.7333,-1.7333,-1.7333,-1.7333,-1.7333,-1.7333,-1.7333,-1.7333,-1.7333,-1.7333,-1.7333,-1.7333,-1.7333,-1.7333,-1.7333,-1.7333,-1.7333,-1.7333,-1.7333,-1.7333,-1.7333,-1.7333,-1.7333,-1.7333,-1.7333,-1.7333,-1.7333,-1.7333,-1.7333,-1.7333,-1.7333,-1.7333,-1.7692,-1.8056,-1.8827,-1.8827,-1.8827,-1.8827,-1.8827,-1.8827,-1.8827,-1.8827,-1.8827,-1.8827,-1.8827,-1.8827,-1.8827,-1.8827,-1.8827,-1.8827,-1.8827,-1.8827,-1.8827,-1.8827,-1.8827,-1.8827,-1.8827,-1.8827,-1.8827,-1.8827,-1.8827,-1.8684,-1.8486,-1.8359,-1.8057,-1.7636,-1.7509,-1.7326,-1.7088,-1.6969,-1.6913,-1.6897,-1.6794,-1.673,-1.673,-1.673,-1.673,-1.673,-1.673,-1.6627,-1.6389,-1.6611,-1.654,-1.6158,-1.6492,-1.6627,-1.6436,-1.6603,-1.673,-1.673,-1.673,-1.673,-1.673,-1.673,-1.6786,-1.6905,-1.7127,-1.7342,-1.7596,-1.8041,-1.8221,-1.8222,-1.8218,-1.8094,-1.7807,-1.7613,-1.7426,-1.7333,-1.7333,-1.7333,-1.7333,-1.7333,-1.7333,-1.7333,-1.7333,-1.7333,-1.7333,-1.7333,-1.7333,-1.7333,-1.7333,-1.7333,-1.7333,-1.7333,-1.7333,-1.7333,-1.7333,-1.7333,-1.7333,-1.7333,-1.7333,-1.7333,-1.7333,-1.7333,-1.7333,-1.7333,-1.7333,-1.7333,-1.7333,-1.7333,-1.7426,-1.7434,-1.7426,-1.752,-1.7434,-1.7527,-1.7792,-1.8334,-1.8788,-1.8827,-1.8827,-1.8827,-1.8827,-1.8827,-1.8827,-1.8827,-1.8827,-1.8827,-1.8827,-1.8827,-1.8827,-1.8827,-1.8827,-1.8827,-1.8827,-1.8827,-1.8827,-1.8827,-1.8827,-1.8827,-1.8827,-1.8827,-1.8827,-1.8827,-1.8827,-1.8827,-1.8819,-1.8772,-1.8494,-1.8303,-1.8208,-1.7914,-1.7739,-1.7739,-1.7421,-1.7278,-1.7223,-1.6969,-1.6778,-1.6738,-1.6746,-1.673,-1.673,-1.673,-1.6722,-1.6698,-1.673,-1.6706,-1.6683,-1.6698,-1.673,-1.669,-1.673,-1.673,-1.673,-1.673,-1.673,-1.673,-1.6762,-1.6937,-1.7175,-1.7302,-1.762,-1.8081,-1.8287,-1.847,-1.8624,-1.8535,-1.8381,-1.8094,-1.7807,-1.7628,-1.7333,-1.7326,-1.7333,-1.7333,-1.7333,-1.7333,-1.7333,-1.7333,-1.7333,-1.7333,-1.7333,-1.7333,-1.7333,-1.7333,-1.7333,-1.7333,-1.7333,-1.7333,-1.7333,-1.7333,-1.7333,-1.7333,-1.7333,-1.7333,-1.7333,-1.7333,-1.7333,-1.7333,-1.7333,-1.7333,-1.7426,-1.752,-1.7613,-1.8071,-1.8164,-1.8249,-1.8249,-1.7978,-1.8164,-1.8703,-1.933,-1.9704,-1.8827,-1.8827,-1.8827,-1.8827,-1.8827,-1.8827,-1.8827,-1.8827,-1.8827,-1.8827,-1.8827,-1.8827,-1.8827,-1.8827,-1.8827,-1.8827,-1.8827,-1.8827,-1.8827,-1.8827,-1.8827,-1.8827,-1.8827,-1.8827,-1.8827,-1.8827,-1.8827,-1.8827,-1.8804,-1.8708,-1.8557,-1.8319,-1.8192,-1.8001,-1.7803,-1.7668,-1.762,-1.758,-1.7286,-1.7111,-1.708,-1.6857,-1.6738,-1.673,-1.673,-1.673,-1.673,-1.673,-1.673,-1.673,-1.673,-1.673,-1.673,-1.673,-1.673,-1.673,-1.673,-1.673,-1.677,-1.6969,-1.7135,-1.7342,-1.7691,-1.8033,-1.8287,-1.8526,-1.8684,-1.8819,-1.8658,-1.8481,-1.8381,-1.8087,-1.79,-1.7621,-1.7426,-1.7333,-1.7426,-1.7426,-1.7333,-1.7333,-1.7333,-1.7333,-1.7333,-1.7333,-1.7333,-1.7333,-1.7333,-1.7333,-1.7333,-1.7333,-1.7333,-1.7333,-1.7333,-1.7333,-1.7333,-1.7333,-1.7333,-1.7333,-1.7333,-1.7333,-1.7333,-1.7333,-1.7426,-1.7707,-1.78,-1.8164,-1.8719,-1.8988,-1.9155,-1.9513,-1.9778,-1.9869,-2.0051,-2.0322,-2.0872,-1.8827,-1.8827,-1.8827,-1.8827,-1.8827,-1.8827,-1.8827,-1.8827,-1.8827,-1.8827,-1.8827,-1.8827,-1.8827,-1.8827,-1.8827,-1.8827,-1.8827,-1.8827,-1.8827,-1.8827,-1.8827,-1.8827,-1.8827,-1.8827,-1.8827,-1.8827,-1.8827,-1.8827,-1.8827,-1.8819,-1.8708,-1.8533,-1.8502,-1.8398,-1.816,-1.8033,-1.7969,-1.7922,-1.7636,-1.7405,-1.7262,-1.7056,-1.6865,-1.6762,-1.673,-1.673,-1.673,-1.673,-1.673,-1.673,-1.673,-1.673,-1.673,-1.673,-1.673,-1.673,-1.673,-1.673,-1.677,-1.7056,-1.735,-1.7525,-1.7985,-1.8359,-1.8486,-1.874,-1.8819,-1.8735,-1.8651,-1.8558,-1.8373,-1.8187,-1.8001,-1.7721,-1.7527,-1.7434,-1.7527,-1.7426,-1.7326,-1.7333,-1.7333,-1.7333,-1.7333,-1.7333,-1.7333,-1.7333,-1.7333,-1.7333,-1.7333,-1.7333,-1.7333,-1.7333,-1.7333,-1.7333,-1.7333,-1.7333,-1.7333,-1.7333,-1.7333,-1.7333,-1.7333,-1.7333,-1.7426,-1.8241,-1.8519,-1.9247,-1.9795,-2.0059,-2.0322,-2.0854,-2.1203,-2.0944,-2.0854,-2.1747,-2.2208,-1.8827,-1.8827,-1.8827,-1.8827,-1.8827,-1.8827,-1.8827,-1.8827,-1.8827,-1.8827,-1.8827,-1.8827,-1.8827,-1.8827,-1.8827,-1.8827,-1.8827,-1.8827,-1.8827,-1.8827,-1.8827,-1.8827,-1.8827,-1.8827,-1.8827,-1.8827,-1.8827,-1.8827,-1.8827,-1.8827,-1.8827,-1.8788,-1.8772,-1.8812,-1.8676,-1.847,-1.8327,-1.8279,-1.7977,-1.7668,-1.7397,-1.727,-1.7119,-1.681,-1.6754,-1.673,-1.673,-1.673,-1.673,-1.673,-1.673,-1.673,-1.673,-1.673,-1.673,-1.673,-1.673,-1.6688,-1.6833,-1.7159,-1.7493,-1.7795,-1.816,-1.8462,-1.874,-1.8796,-1.8827,-1.8827,-1.8743,-1.8558,-1.8272,-1.8087,-1.7994,-1.7721,-1.7621,-1.7527,-1.7333,-1.7333,-1.7333,-1.7333,-1.7333,-1.7333,-1.7333,-1.7333,-1.7333,-1.7333,-1.7333,-1.7333,-1.7333,-1.7333,-1.7333,-1.7333,-1.7333,-1.7333,-1.7333,-1.7333,-1.7333,-1.7333,-1.7333,-1.7333,-1.7426,-1.7426,-1.7792,-1.8611,-1.9422,-2.0141,-2.0863,-2.1221,-2.1569,-2.2022,-2.2013,-2.1569,-2.1924,-2.2911,-2.3183,-1.8827,-1.8827,-1.8827,-1.8827,-1.8827,-1.8827,-1.8827,-1.8827,-1.8827,-1.8827,-1.8827,-1.8827,-1.8827,-1.8827,-1.8827,-1.8827,-1.8827,-1.8827,-1.8827,-1.8827,-1.8827,-1.8827,-1.8827,-1.8827,-1.8827,-1.8827,-1.8827,-1.8827,-1.8827,-1.8827,-1.8827,-1.8827,-1.8827,-1.8827,-1.8796,-1.8724,-1.87,-1.8637,-1.8335,-1.8128,-1.7954,-1.7517,-1.7247,-1.7143,-1.6881,-1.6754,-1.673,-1.673,-1.673,-1.673,-1.673,-1.673,-1.673,-1.673,-1.673,-1.673,-1.6738,-1.6865,-1.7127,-1.7437,-1.7787,-1.8144,-1.8454,-1.8724,-1.8804,-1.8827,-1.8827,-1.8735,-1.8651,-1.8558,-1.855,-1.8272,-1.7994,-1.7721,-1.7721,-1.7527,-1.7333,-1.7333,-1.7333,-1.7333,-1.7333,-1.7333,-1.7333,-1.7333,-1.7333,-1.7333,-1.7333,-1.7333,-1.7333,-1.7333,-1.7333,-1.7333,-1.7333,-1.7333,-1.7333,-1.7333,-1.7333,-1.7333,-1.7333,-1.7419,-1.752,-1.7621,-1.8257,-1.908,-1.9968,-2.0683,-2.1845,-2.2561,-2.2911,-2.3183,-2.328,-2.3193,-2.3464,-2.409,-2.4003,-1.8827,-1.8827,-1.8827,-1.8827,-1.8827,-1.8827,-1.8827,-1.8827,-1.8827,-1.8827,-1.8827,-1.8827,-1.8827,-1.8827,-1.8827,-1.8827,-1.8827,-1.8827,-1.8827,-1.8827,-1.8827,-1.8827,-1.8827,-1.8827,-1.8827,-1.8827,-1.8827,-1.8827,-1.8827,-1.8827,-1.8827,-1.8827,-1.8827,-1.8827,-1.8827,-1.8827,-1.8827,-1.8788,-1.8605,-1.8462,-1.8263,-1.7922,-1.7548,-1.7342,-1.7056,-1.6921,-1.677,-1.673,-1.673,-1.673,-1.673,-1.673,-1.673,-1.673,-1.673,-1.673,-1.673,-1.6897,-1.7247,-1.7588,-1.7922,-1.8271,-1.8629,-1.8796,-1.8827,-1.8827,-1.8827,-1.8735,-1.8651,-1.8651,-1.8558,-1.8187,-1.7807,-1.7621,-1.7527,-1.7426,-1.7333,-1.7333,-1.7333,-1.7333,-1.7333,-1.7333,-1.7333,-1.7333,-1.7333,-1.7333,-1.7333,-1.7333,-1.7333,-1.7333,-1.7333,-1.7333,-1.7426,-1.7434,-1.7527,-1.7527,-1.7707,-1.7707,-1.7792,-1.7785,-1.8241,-1.8434,-1.9247,-2.0158,-2.0692,-2.14,-2.2658,-2.3637,-2.382,-2.409,-2.4454,-2.455,-2.455,-2.455,-2.455,-1.8827,-1.8827,-1.8827,-1.8827,-1.8827,-1.8827,-1.8827,-1.8827,-1.8827,-1.8827,-1.8827,-1.8827,-1.8827,-1.8827,-1.8827,-1.8827,-1.8827,-1.8827,-1.8827,-1.8827,-1.8827,-1.8827,-1.8827,-1.8827,-1.8827,-1.8827,-1.8827,-1.8827,-1.8827,-1.8827,-1.8827,-1.8827,-1.8827,-1.8827,-1.8827,-1.8827,-1.8827,-1.8827,-1.8796,-1.8645,-1.8438,-1.8247,-1.7954,-1.7564,-1.7286,-1.7056,-1.6826,-1.673,-1.673,-1.673,-1.673,-1.6762,-1.6778,-1.6802,-1.6849,-1.6905,-1.6969,-1.7088,-1.7374,-1.7747,-1.8001,-1.8375,-1.8676,-1.8819,-1.8827,-1.8827,-1.8827,-1.8827,-1.8727,-1.8651,-1.8465,-1.8001,-1.7815,-1.7621,-1.7419,-1.7426,-1.7326,-1.7326,-1.7333,-1.7333,-1.7333,-1.7333,-1.7333,-1.7333,-1.7333,-1.7333,-1.7333,-1.7333,-1.7333,-1.7333,-1.7333,-1.7333,-1.7434,-1.7628,-1.7721,-1.7815,-1.8087,-1.8265,-1.8442,-1.8703,-1.9505,-1.996,-2.0773,-2.1409,-2.1667,-2.2473,-2.3734,-2.4368,-2.4454,-2.4454,-2.4464,-2.455,-2.455,-2.455,-2.455,-1.8827,-1.8827,-1.8827,-1.8827,-1.8827,-1.8827,-1.8827,-1.8827,-1.8827,-1.8827,-1.8827,-1.8827,-1.8827,-1.8827,-1.8827,-1.8827,-1.8827,-1.8827,-1.8827,-1.8827,-1.8827,-1.8827,-1.8827,-1.8827,-1.8827,-1.8827,-1.8827,-1.8827,-1.8827,-1.8827,-1.8827,-1.8827,-1.8827,-1.8827,-1.8827,-1.8827,-1.8827,-1.8827,-1.8827,-1.8788,-1.8669,-1.8446,-1.824,-1.7985,-1.7556,-1.7127,-1.6818,-1.673,-1.673,-1.673,-1.6778,-1.6921,-1.708,-1.7151,-1.7254,-1.7413,-1.7501,-1.7676,-1.8001,-1.812,-1.8327,-1.8637,-1.8756,-1.8827,-1.8827,-1.8827,-1.8827,-1.8735,-1.8651,-1.8473,-1.828,-1.8288,-1.8102,-1.79,-1.7893,-1.78,-1.7621,-1.7434,-1.7333,-1.7333,-1.7333,-1.7333,-1.7333,-1.7333,-1.7333,-1.7333,-1.7333,-1.7333,-1.7333,-1.7333,-1.7333,-1.7333,-1.7434,-1.7628,-1.7815,-1.8094,-1.8542,-1.8904,-1.9171,-1.9795,-2.0683,-2.0944,-2.1489,-2.2022,-2.2463,-2.3454,-2.4368,-2.455,-2.4454,-2.4464,-2.455,-2.455,-2.455,-2.455,-2.455,-1.8827,-1.8827,-1.8827,-1.8827,-1.8827,-1.8827,-1.8827,-1.8827,-1.8827,-1.8827,-1.8827,-1.8827,-1.8827,-1.8827,-1.8827,-1.8827,-1.8827,-1.8827,-1.8827,-1.8827,-1.8827,-1.8827,-1.8827,-1.8827,-1.8827,-1.8827,-1.8827,-1.8827,-1.8827,-1.8827,-1.8827,-1.8827,-1.8827,-1.8827,-1.8827,-1.8827,-1.8827,-1.8827,-1.8827,-1.8827,-1.878,-1.8653,-1.843,-1.8255,-1.7795,-1.7397,-1.7262,-1.7231,-1.7231,-1.7215,-1.7215,-1.7215,-1.7294,-1.7421,-1.7604,-1.7723,-1.7771,-1.7938,-1.82,-1.8327,-1.8438,-1.8796,-1.8827,-1.8827,-1.8827,-1.8827,-1.8827,-1.8735,-1.8743,-1.8566,-1.8381,-1.8388,-1.8288,-1.8001,-1.8094,-1.7994,-1.7815,-1.7714,-1.752,-1.7426,-1.7434,-1.7426,-1.7333,-1.7333,-1.7333,-1.7333,-1.7333,-1.7333,-1.7333,-1.7333,-1.7333,-1.7333,-1.7434,-1.7621,-1.79,-1.8265,-1.8904,-1.9355,-1.9803,-2.0872,-2.1933,-2.2022,-2.1933,-2.2648,-2.3367,-2.3724,-2.4454,-2.4454,-2.455,-2.455,-2.455,-2.455,-2.455,-2.455,-2.455,-1.8827,-1.8827,-1.8827,-1.8827,-1.8827,-1.8827,-1.8827,-1.8827,-1.8827,-1.8827,-1.8827,-1.8827,-1.8827,-1.8827,-1.8827,-1.8827,-1.8827,-1.8827,-1.8827,-1.8827,-1.8827,-1.8827,-1.8827,-1.8827,-1.8827,-1.8827,-1.8827,-1.8827,-1.8827,-1.8827,-1.8827,-1.8827,-1.8827,-1.8827,-1.8827,-1.8827,-1.8827,-1.8827,-1.8827,-1.8827,-1.8827,-1.8788,-1.8621,-1.8287,-1.8049,-1.7787,-1.7691,-1.7676,-1.7715,-1.7771,-1.7826,-1.7699,-1.7596,-1.766,-1.7906,-1.793,-1.8017,-1.8168,-1.8375,-1.8438,-1.8549,-1.8819,-1.8827,-1.8827,-1.8827,-1.8827,-1.8827,-1.8735,-1.8743,-1.8651,-1.8481,-1.8388,-1.8195,-1.8009,-1.7994,-1.8001,-1.7815,-1.79,-1.79,-1.752,-1.7426,-1.7426,-1.7426,-1.7333,-1.7333,-1.7426,-1.7426,-1.7426,-1.7426,-1.7426,-1.752,-1.752,-1.7621,-1.8257,-1.8627,-1.9438,-1.9894,-2.043,-2.0881,-2.1765,-2.3008,-2.3105,-2.3193,-2.3734,-2.4272,-2.4454,-2.4454,-2.4454,-2.455,-2.455,-2.455,-2.455,-2.455,-2.455,-2.455,-1.8827,-1.8827,-1.8827,-1.8827,-1.8827,-1.8827,-1.8827,-1.8827,-1.8827,-1.8827,-1.8827,-1.8827,-1.8827,-1.8827,-1.8827,-1.8827,-1.8827,-1.8827,-1.8827,-1.8827,-1.8827,-1.8827,-1.8827,-1.8827,-1.8827,-1.8827,-1.8827,-1.8827,-1.8827,-1.8827,-1.8827,-1.8827,-1.8827,-1.8827,-1.8827,-1.8827,-1.8827,-1.8827,-1.8827,-1.8827,-1.8827,-1.8804,-1.8692,-1.8383,-1.8247,-1.8105,-1.7874,-1.7795,-1.7763,-1.7795,-1.8057,-1.8144,-1.812,-1.8168,-1.8327,-1.8494,-1.8549,-1.8573,-1.8661,-1.8716,-1.8748,-1.8812,-1.8827,-1.8827,-1.8827,-1.8827,-1.8827,-1.8743,-1.8658,-1.8574,-1.8489,-1.8288,-1.8187,-1.8094,-1.8195,-1.8195,-1.7916,-1.8001,-1.8094,-1.7621,-1.7527,-1.7426,-1.7426,-1.752,-1.7527,-1.7621,-1.7707,-1.7885,-1.8071,-1.7986,-1.7986,-1.79,-1.7815,-1.8627,-1.9438,-2.052,-2.1338,-2.1854,-2.2296,-2.2746,-2.3637,-2.41,-2.4454,-2.4464,-2.455,-2.4454,-2.4454,-2.455,-2.455,-2.455,-2.455,-2.455,-2.455,-2.455,-2.455,-1.8827,-1.8827,-1.8827,-1.8827,-1.8827,-1.8827,-1.8827,-1.8827,-1.8827,-1.8827,-1.8827,-1.8827,-1.8827,-1.8827,-1.8827,-1.8827,-1.8827,-1.8827,-1.8827,-1.8827,-1.8827,-1.8827,-1.8827,-1.8827,-1.8827,-1.8827,-1.8827,-1.8827,-1.8827,-1.8827,-1.8827,-1.8827,-1.8827,-1.8827,-1.8827,-1.8827,-1.8827,-1.8827,-1.8827,-1.8827,-1.8827,-1.8827,-1.8708,-1.8629,-1.8557,-1.8478,-1.8383,-1.8319,-1.8327,-1.8367,-1.8486,-1.8557,-1.8565,-1.8581,-1.8645,-1.8788,-1.8827,-1.8827,-1.8827,-1.8827,-1.8819,-1.8819,-1.8827,-1.8827,-1.8827,-1.8827,-1.8827,-1.8735,-1.8658,-1.8489,-1.8489,-1.828,-1.8087,-1.8001,-1.8195,-1.8195,-1.7916,-1.8094,-1.8001,-1.7729,-1.7628,-1.7527,-1.7527,-1.7621,-1.7721,-1.7908,-1.7994,-1.8265,-1.8627,-1.8627,-1.8535,-1.9163,-1.9247,-1.9786,-2.0602,-2.1418,-2.2315,-2.2931,-2.3367,-2.3724,-2.4079,-2.4368,-2.4464,-2.4464,-2.455,-2.455,-2.455,-2.455,-2.455,-2.455,-2.455,-2.455,-2.455,-2.455,-2.455,-1.8827,-1.8827,-1.8827,-1.8827,-1.8827,-1.8827,-1.8827,-1.8827,-1.8827,-1.8827,-1.8827,-1.8827,-1.8827,-1.8827,-1.8827,-1.8827,-1.8827,-1.8827,-1.8827,-1.8827,-1.8827,-1.8827,-1.8827,-1.8827,-1.8827,-1.8827,-1.8827,-1.8827,-1.8827,-1.8827,-1.8827,-1.8827,-1.8827,-1.8827,-1.8827,-1.8827,-1.8827,-1.8827,-1.8827,-1.8827,-1.8827,-1.8827,-1.8827,-1.8827,-1.8827,-1.8804,-1.874,-1.8732,-1.874,-1.8748,-1.8788,-1.8812,-1.8819,-1.8827,-1.8827,-1.8827,-1.8827,-1.8827,-1.8827,-1.8827,-1.8827,-1.8827,-1.8827,-1.8827,-1.8827,-1.8827,-1.8727,-1.8735,-1.8558,-1.8388,-1.8195,-1.8094,-1.7807,-1.7807,-1.8001,-1.8195,-1.7815,-1.7807,-1.7807,-1.7714,-1.7628,-1.7628,-1.7527,-1.7807,-1.79,-1.8087,-1.8179,-1.8458,-1.8819,-1.9255,-1.9521,-2.0503,-2.1033,-2.1391,-2.1845,-2.2217,-2.3028,-2.356,-2.3734,-2.4003,-2.4272,-2.4454,-2.455,-2.455,-2.455,-2.455,-2.455,-2.455,-2.455,-2.455,-2.455,-2.455,-2.455,-2.455,-2.455,-1.8827,-1.8827,-1.8827,-1.8827,-1.8827,-1.8827,-1.8827,-1.8827,-1.8827,-1.8827,-1.8827,-1.8827,-1.8827,-1.8827,-1.8827,-1.8827,-1.8827,-1.8827,-1.8827,-1.8827,-1.8827,-1.8827,-1.8827,-1.8827,-1.8827,-1.8827,-1.8827,-1.8827,-1.8827,-1.8827,-1.8827,-1.8827,-1.8827,-1.8827,-1.8827,-1.8827,-1.8827,-1.8827,-1.8827,-1.8827,-1.8827,-1.8827,-1.8827,-1.8827,-1.8827,-1.8827,-1.8827,-1.8827,-1.8827,-1.8827,-1.8827,-1.8827,-1.8827,-1.8827,-1.8827,-1.8827,-1.8827,-1.8827,-1.8827,-1.8827,-1.8827,-1.8827,-1.8827,-1.8827,-1.8827,-1.8827,-1.8735,-1.8566,-1.828,-1.8094,-1.7908,-1.7621,-1.7426,-1.752,-1.7721,-1.7714,-1.752,-1.7807,-1.7807,-1.7707,-1.7621,-1.752,-1.7426,-1.78,-1.8079,-1.8272,-1.8458,-1.8735,-1.9271,-1.9977,-2.0782,-2.1756,-2.2375,-2.2648,-2.2824,-2.329,-2.3474,-2.409,-2.41,-2.4186,-2.4368,-2.455,-2.455,-2.455,-2.455,-2.455,-2.455,-2.455,-2.455,-2.455,-2.455,-2.455,-2.455,-2.455,-2.455,-1.8827,-1.8827,-1.8827,-1.8827,-1.8827,-1.8827,-1.8827,-1.8827,-1.8827,-1.8827,-1.8827,-1.8827,-1.8827,-1.8827,-1.8827,-1.8827,-1.8827,-1.8827,-1.8827,-1.8827,-1.8827,-1.8827,-1.8827,-1.8827,-1.8827,-1.8827,-1.8827,-1.8827,-1.8827,-1.8827,-1.8827,-1.8827,-1.8827,-1.8827,-1.8827,-1.8827,-1.8827,-1.8827,-1.8827,-1.8827,-1.8827,-1.8827,-1.8827,-1.8827,-1.8827,-1.8827,-1.8827,-1.8827,-1.8827,-1.8827,-1.8827,-1.8827,-1.8827,-1.8827,-1.8827,-1.8827,-1.8827,-1.8827,-1.8827,-1.8827,-1.8827,-1.8827,-1.8827,-1.8827,-1.8827,-1.8827,-1.8743,-1.8473,-1.828,-1.8001,-1.7721,-1.7434,-1.7333,-1.7426,-1.7628,-1.7527,-1.752,-1.7807,-1.79,-1.7707,-1.7613,-1.7613,-1.7707,-1.79,-1.8179,-1.8458,-1.8727,-1.9088,-2.0076,-2.123,-2.2208,-2.3193,-2.3551,-2.382,-2.3907,-2.409,-2.4003,-2.4368,-2.4368,-2.4368,-2.4454,-2.455,-2.455,-2.455,-2.455,-2.455,-2.455,-2.455,-2.455,-2.455,-2.455,-2.455,-2.455,-2.455,-2.455,-1.8827,-1.8827,-1.8827,-1.8827,-1.8827,-1.8827,-1.8827,-1.8827,-1.8827,-1.8827,-1.8827,-1.8827,-1.8827,-1.8827,-1.8827,-1.8827,-1.8827,-1.8827,-1.8827,-1.8827,-1.8827,-1.8827,-1.8827,-1.8827,-1.8827,-1.8827,-1.8827,-1.8827,-1.8827,-1.8827,-1.8827,-1.8827,-1.8827,-1.8827,-1.892,-1.9096,-1.9271,-1.9271,-1.8912,-1.8827,-1.8827,-1.8827,-1.8827,-1.8827,-1.8827,-1.8827,-1.8827,-1.8827,-1.8827,-1.8827,-1.8827,-1.8827,-1.8827,-1.8827,-1.8827,-1.8827,-1.8827,-1.8827,-1.8827,-1.8827,-1.8827,-1.8827,-1.8827,-1.8827,-1.8827,-1.8827,-1.8743,-1.8473,-1.828,-1.8001,-1.7815,-1.7527,-1.7527,-1.7621,-1.7714,-1.7621,-1.7613,-1.79,-1.7994,-1.79,-1.7893,-1.8087,-1.8087,-1.8187,-1.8373,-1.8651,-1.9012,-1.9446,-2.061,-2.2031,-2.2931,-2.3734,-2.409,-2.4272,-2.4358,-2.4454,-2.4464,-2.455,-2.455,-2.455,-2.455,-2.455,-2.455,-2.455,-2.455,-2.455,-2.455,-2.455,-2.455,-2.455,-2.455,-2.455,-2.455,-2.455,-2.455,-1.8827,-1.8827,-1.8827,-1.8827,-1.8827,-1.8827,-1.8827,-1.8827,-1.8827,-1.8827,-1.8827,-1.8827,-1.8827,-1.8827,-1.8827,-1.8827,-1.8827,-1.8827,-1.8827,-1.8827,-1.8827,-1.8827,-1.8827,-1.8827,-1.8827,-1.8827,-1.8827,-1.8827,-1.8827,-1.8827,-1.8827,-1.8827,-1.8827,-1.8827,-1.9096,-1.9538,-1.9894,-1.9803,-1.9446,-1.918,-1.9096,-1.9004,-1.892,-1.8912,-1.8827,-1.8827,-1.8827,-1.8827,-1.8827,-1.8827,-1.8827,-1.9004,-1.9004,-1.9096,-1.9096,-1.9279,-1.9271,-1.9271,-1.9271,-1.9012,-1.8827,-1.8827,-1.8827,-1.8827,-1.8827,-1.8827,-1.8651,-1.8481,-1.828,-1.8179,-1.7994,-1.79,-1.7815,-1.7807,-1.79,-1.79,-1.79,-1.7994,-1.8179,-1.8087,-1.8179,-1.8272,-1.8643,-1.8643,-1.855,-1.8743,-1.9363,-1.9712,-2.097,-2.2306,-2.3105,-2.3831,-2.4272,-2.4454,-2.4454,-2.455,-2.455,-2.455,-2.455,-2.455,-2.455,-2.455,-2.455,-2.455,-2.455,-2.455,-2.455,-2.455,-2.455,-2.455,-2.455,-2.455,-2.455,-2.455,-2.455,-1.8827,-1.8827,-1.8827,-1.8827,-1.8827,-1.8827,-1.8827,-1.8827,-1.8827,-1.8827,-1.8827,-1.8827,-1.8827,-1.8827,-1.8827,-1.8827,-1.8827,-1.8827,-1.8827,-1.8827,-1.8827,-1.8827,-1.8827,-1.8827,-1.8827,-1.8827,-1.8827,-1.8827,-1.8827,-1.8827,-1.8827,-1.8827,-1.8827,-1.8827,-1.9096,-1.9812,-2.0257,-2.0439,-2.0529,-2.0529,-2.0439,-1.9994,-1.972,-1.9712,-1.8912,-1.8827,-1.8827,-1.8827,-1.8827,-1.8827,-1.892,-1.9279,-1.9629,-1.972,-1.9985,-2.0357,-2.0348,-2.0348,-2.0175,-1.9546,-1.8827,-1.8827,-1.8827,-1.8827,-1.8827,-1.8827,-1.8651,-1.8566,-1.8381,-1.828,-1.8079,-1.7994,-1.7994,-1.8087,-1.8179,-1.8265,-1.8179,-1.828,-1.8373,-1.8365,-1.8458,-1.8643,-1.8912,-1.9279,-1.9004,-1.892,-1.9538,-2.0249,-2.1498,-2.2482,-2.329,-2.3917,-2.4368,-2.455,-2.455,-2.455,-2.455,-2.455,-2.455,-2.455,-2.455,-2.455,-2.455,-2.455,-2.455,-2.455,-2.455,-2.455,-2.455,-2.455,-2.455,-2.455,-2.455,-2.455,-2.455,-1.8827,-1.8827,-1.8827,-1.8827,-1.8827,-1.8827,-1.8827,-1.8827,-1.8827,-1.8827,-1.8827,-1.8827,-1.8827,-1.8827,-1.8827,-1.8827,-1.8827,-1.8827,-1.8827,-1.8827,-1.8827,-1.8827,-1.8827,-1.8827,-1.8827,-1.8827,-1.8827,-1.8827,-1.8827,-1.8827,-1.8827,-1.892,-1.9096,-1.9271,-1.9546,-2.0167,-2.0791,-2.1239,-2.1338,-2.1695,-2.1516,-2.1069,-2.0709,-2.0701,-2.0085,-1.9903,-1.9903,-1.9994,-1.9903,-1.9903,-1.9903,-2.0085,-2.0439,-2.0791,-2.1069,-2.1427,-2.1695,-2.1695,-2.1338,-2.0718,-1.9546,-1.9455,-1.9363,-1.9188,-1.892,-1.8827,-1.8743,-1.8658,-1.8574,-1.8481,-1.8357,-1.8542,-1.8542,-1.8635,-1.8988,-1.908,-1.8635,-1.8558,-1.8558,-1.8558,-1.8735,-1.8912,-1.972,-2.0085,-2.0357,-2.0175,-2.0439,-2.1239,-2.2208,-2.3018,-2.3377,-2.4003,-2.4454,-2.455,-2.455,-2.455,-2.455,-2.455,-2.455,-2.455,-2.455,-2.455,-2.455,-2.455,-2.455,-2.455,-2.455,-2.455,-2.455,-2.455,-2.455,-2.455,-2.455,-2.455,-2.455,-1.8827,-1.8827,-1.8827,-1.8827,-1.8827,-1.8827,-1.8827,-1.8827,-1.8827,-1.8827,-1.8827,-1.8827,-1.8827,-1.8827,-1.8827,-1.8827,-1.8827,-1.8827,-1.8827,-1.8827,-1.8827,-1.8827,-1.8827,-1.8827,-1.8827,-1.8827,-1.8827,-1.8827,-1.8827,-1.8827,-1.8827,-1.9096,-1.9546,-2.0076,-2.0348,-2.1159,-2.2041,-2.2736,-2.205,-2.1961,-2.205,-2.1872,-2.1686,-2.1596,-2.1338,-2.1069,-2.1069,-2.1069,-2.0979,-2.1069,-2.1069,-2.1338,-2.1596,-2.1686,-2.1784,-2.1971,-2.1971,-2.1882,-2.1784,-2.1704,-2.1248,-2.0348,-2.0076,-1.9803,-1.9188,-1.892,-1.9188,-1.9371,-1.9104,-1.8928,-1.9104,-1.9363,-1.9363,-1.9446,-1.9894,-1.9977,-1.9538,-1.9363,-1.9546,-1.9637,-1.9271,-1.9271,-2.0257,-2.0979,-2.1516,-2.1695,-2.1606,-2.2227,-2.3018,-2.3464,-2.382,-2.409,-2.455,-2.455,-2.455,-2.455,-2.455,-2.455,-2.455,-2.455,-2.455,-2.455,-2.455,-2.455,-2.455,-2.455,-2.455,-2.455,-2.455,-2.455,-2.455,-2.455,-2.455,-2.455,-2.455,-1.8827,-1.8827,-1.8827,-1.8827,-1.8827,-1.8827,-1.8827,-1.8827,-1.8827,-1.8827,-1.8827,-1.8827,-1.8827,-1.8827,-1.8827,-1.8827,-1.8827,-1.8827,-1.8827,-1.8827,-1.8827,-1.8827,-1.8827,-1.8827,-1.8827,-1.8827,-1.8827,-1.8827,-1.8827,-1.8827,-1.8827,-1.9004,-1.9812,-2.0257,-2.0529,-2.1159,-2.1952,-2.2217,-2.2403,-2.2931,-2.3387,-2.2931,-2.2658,-2.257,-2.2138,-2.1882,-2.1872,-2.1961,-2.1961,-2.1961,-2.1961,-2.2138,-2.2482,-2.2668,-2.2931,-2.3299,-2.3484,-2.356,-2.356,-2.3474,-2.2755,-2.1686,-2.0791,-2.061,-2.0529,-2.0076,-2.0167,-2.0439,-2.0357,-2.0447,-2.0889,-2.0889,-2.0881,-2.0889,-2.115,-2.115,-2.0889,-2.0889,-2.0889,-2.0979,-2.0799,-2.106,-2.1774,-2.2129,-2.258,-2.2843,-2.2843,-2.3115,-2.382,-2.4003,-2.4282,-2.4282,-2.455,-2.455,-2.455,-2.455,-2.455,-2.455,-2.455,-2.455,-2.455,-2.455,-2.455,-2.455,-2.455,-2.455,-2.455,-2.455,-2.455,-2.455,-2.454,-2.454,-2.455,-2.455,-2.455,-1.8827,-1.8827,-1.8827,-1.8827,-1.8827,-1.8827,-1.8827,-1.8827,-1.8827,-1.8827,-1.8827,-1.8827,-1.8827,-1.8827,-1.8827,-1.8827,-1.8827,-1.8827,-1.8827,-1.8827,-1.8827,-1.8827,-1.8827,-1.8827,-1.8827,-1.8827,-1.8827,-1.8827,-1.8827,-1.8827,-1.9004,-1.9455,-1.9985,-2.0257,-2.0619,-2.1159,-2.1961,-2.2306,-2.2833,-2.3464,-2.3907,-2.3907,-2.3551,-2.3464,-2.3115,-2.2765,-2.2668,-2.2677,-2.2677,-2.2589,-2.2765,-2.294,-2.3377,-2.3637,-2.3907,-2.4368,-2.4464,-2.4454,-2.4368,-2.4368,-2.3647,-2.294,-2.1774,-2.1418,-2.1596,-2.106,-2.1159,-2.1427,-2.1784,-2.1784,-2.1784,-2.1872,-2.2041,-2.205,-2.205,-2.205,-2.1784,-2.1695,-2.1695,-2.1784,-2.1961,-2.2482,-2.3018,-2.3377,-2.3734,-2.382,-2.3993,-2.4176,-2.4358,-2.4454,-2.455,-2.455,-2.455,-2.455,-2.455,-2.455,-2.455,-2.455,-2.455,-2.455,-2.455,-2.455,-2.455,-2.455,-2.454,-2.454,-2.455,-2.455,-2.454,-2.4625,-2.4615,-2.4625,-2.454,-2.455,-2.454,-1.8827,-1.8827,-1.8827,-1.8827,-1.8827,-1.8827,-1.8827,-1.8827,-1.8827,-1.8827,-1.8827,-1.8827,-1.8827,-1.8827,-1.8827,-1.8827,-1.8827,-1.8827,-1.8827,-1.8827,-1.8827,-1.8827,-1.8827,-1.8827,-1.8827,-1.8827,-1.8827,-1.8827,-1.8827,-1.8827,-1.9279,-1.9903,-1.9985,-2.0167,-2.0529,-2.0799,-2.1686,-2.2306,-2.2658,-2.328,-2.382,-2.4358,-2.409,-2.4003,-2.3917,-2.4003,-2.4013,-2.41,-2.4013,-2.41,-2.4282,-2.4282,-2.4368,-2.4454,-2.4454,-2.4454,-2.4368,-2.455,-2.455,-2.455,-2.4464,-2.3917,-2.3464,-2.2746,-2.2217,-2.205,-2.205,-2.2138,-2.2403,-2.2227,-2.205,-2.2492,-2.2833,-2.2843,-2.2931,-2.2668,-2.2227,-2.2138,-2.2138,-2.2227,-2.2227,-2.2668,-2.3367,-2.382,-2.4176,-2.4272,-2.4272,-2.4272,-2.4454,-2.4454,-2.455,-2.455,-2.455,-2.455,-2.455,-2.455,-2.455,-2.455,-2.455,-2.455,-2.455,-2.455,-2.455,-2.455,-2.454,-2.454,-2.4711,-2.4711,-2.4625,-2.47,-2.4786,-2.4786,-2.4711,-2.4711,-2.4711,-1.8827,-1.8827,-1.8827,-1.8827,-1.8827,-1.8827,-1.8827,-1.8827,-1.8827,-1.8827,-1.8827,-1.8827,-1.8827,-1.8827,-1.8827,-1.8827,-1.8827,-1.8827,-1.8827,-1.8827,-1.8827,-1.8827,-1.8827,-1.8827,-1.8827,-1.8827,-1.8827,-1.8827,-1.8827,-1.8827,-1.9271,-2.0076,-1.9629,-1.972,-1.9903,-1.9903,-2.0881,-2.1686,-2.2041,-2.2658,-2.3464,-2.4003,-2.3907,-2.3734,-2.409,-2.4272,-2.4368,-2.4454,-2.4272,-2.3734,-2.4186,-2.4272,-2.3551,-2.3454,-2.3454,-2.3637,-2.4003,-2.455,-2.455,-2.4464,-2.4454,-2.4454,-2.4186,-2.409,-2.356,-2.3115,-2.3018,-2.3115,-2.329,-2.3212,-2.3212,-2.3474,-2.3647,-2.3647,-2.3647,-2.3474,-2.3202,-2.3202,-2.3202,-2.3202,-2.3202,-2.3299,-2.3907,-2.409,-2.4368,-2.4454,-2.455,-2.455,-2.455,-2.455,-2.455,-2.455,-2.455,-2.455,-2.455,-2.455,-2.455,-2.455,-2.454,-2.454,-2.454,-2.454,-2.455,-2.454,-2.47,-2.4871,-2.5041,-2.4956,-2.4871,-2.4946,-2.5115,-2.4946,-2.4871,-2.4871,-2.4956,-1.8827,-1.8827,-1.8827,-1.8827,-1.8827,-1.8827,-1.8827,-1.8827,-1.8827,-1.8827,-1.8827,-1.8827,-1.8827,-1.8827,-1.8827,-1.8827,-1.8827,-1.8827,-1.8827,-1.8827,-1.8827,-1.8827,-1.8827,-1.8827,-1.8827,-1.8827,-1.8827,-1.8827,-1.8827,-1.8827,-1.9279,-1.9546,-1.9004,-1.9271,-1.9355,-1.9363,-1.9812,-2.0619,-2.1239,-2.1774,-2.2482,-2.3105,-2.2843,-2.2931,-2.3474,-2.382,-2.4003,-2.4176,-2.3917,-2.328,-2.382,-2.3464,-2.2746,-2.257,-2.257,-2.2658,-2.294,-2.3474,-2.3734,-2.3907,-2.409,-2.4368,-2.455,-2.4454,-2.4282,-2.3917,-2.4003,-2.4186,-2.4282,-2.4454,-2.4454,-2.4464,-2.4454,-2.4454,-2.4454,-2.4454,-2.4454,-2.4454,-2.4454,-2.4368,-2.4368,-2.4368,-2.4454,-2.455,-2.455,-2.455,-2.455,-2.455,-2.455,-2.455,-2.455,-2.455,-2.455,-2.455,-2.455,-2.455,-2.454,-2.454,-2.4711,-2.4711,-2.4625,-2.47,-2.4871,-2.4861,-2.4946,-2.5031,-2.5211,-2.52,-2.5115,-2.52,-2.5285,-2.5295,-2.5211,-2.5115,-2.5211,-1.8827,-1.8827,-1.8827,-1.8827,-1.8827,-1.8827,-1.8827,-1.8827,-1.8827,-1.8827,-1.8827,-1.8827,-1.8827,-1.8827,-1.8827,-1.8827,-1.8827,-1.8827,-1.8827,-1.8827,-1.8827,-1.8827,-1.8827,-1.8827,-1.8827,-1.8827,-1.8827,-1.8827,-1.8827,-1.8827,-1.8827,-1.8827,-1.8827,-1.8912,-1.9004,-1.8912,-1.9271,-1.9894,-2.0257,-2.061,-2.1329,-2.1695,-2.1695,-2.1774,-2.2394,-2.3018,-2.3183,-2.3454,-2.3831,-2.3193,-2.2833,-2.2482,-2.1952,-2.1774,-2.1774,-2.1961,-2.2315,-2.294,-2.3464,-2.3724,-2.4003,-2.4272,-2.455,-2.455,-2.4368,-2.4368,-2.4454,-2.4454,-2.4464,-2.455,-2.455,-2.455,-2.455,-2.455,-2.455,-2.455,-2.455,-2.455,-2.455,-2.455,-2.455,-2.455,-2.455,-2.455,-2.455,-2.455,-2.455,-2.455,-2.454,-2.454,-2.455,-2.455,-2.455,-2.455,-2.455,-2.454,-2.454,-2.4625,-2.4786,-2.4871,-2.4871,-2.5031,-2.52,-2.52,-2.52,-2.5285,-2.538,-2.5369,-2.5464,-2.5464,-2.5475,-2.5559,-2.5559,-2.538,-2.5464,-1.8827,-1.8827,-1.8827,-1.8827,-1.8827,-1.8827,-1.8827,-1.8827,-1.8827,-1.8827,-1.8827,-1.8827,-1.8827,-1.8827,-1.8827,-1.8827,-1.8827,-1.8827,-1.8827,-1.8827,-1.8827,-1.8912,-1.8827,-1.892,-1.892,-1.8827,-1.8827,-1.9004,-1.9096,-1.9012,-1.892,-1.892,-1.9004,-1.9096,-1.9096,-1.9096,-1.9363,-1.972,-1.972,-2.0076,-2.0791,-2.1329,-2.1516,-2.1239,-2.1498,-2.2129,-2.2306,-2.2306,-2.1952,-2.115,-2.1774,-2.1418,-2.0701,-2.1329,-2.1695,-2.1784,-2.2227,-2.2931,-2.3551,-2.382,-2.409,-2.4272,-2.455,-2.455,-2.4464,-2.455,-2.455,-2.455,-2.455,-2.455,-2.455,-2.455,-2.455,-2.455,-2.455,-2.455,-2.455,-2.455,-2.455,-2.455,-2.455,-2.455,-2.455,-2.455,-2.455,-2.455,-2.455,-2.455,-2.454,-2.454,-2.4625,-2.4625,-2.454,-2.454,-2.454,-2.4625,-2.47,-2.4786,-2.4956,-2.5031,-2.5115,-2.52,-2.5369,-2.5464,-2.5475,-2.5549,-2.5633,-2.5728,-2.5728,-2.5644,-2.5644,-2.5728,-2.5812,-2.5728,-2.5728,-1.8827,-1.8827,-1.8827,-1.8827,-1.8827,-1.8827,-1.8827,-1.8827,-1.8827,-1.8827,-1.8827,-1.8827,-1.8827,-1.8827,-1.8827,-1.8827,-1.8827,-1.8827,-1.8827,-1.8827,-1.8912,-1.9263,-1.9271,-1.9279,-1.972,-1.972,-1.9903,-1.9994,-1.9729,-2.0167,-2.0348,-2.0085,-1.9994,-1.9994,-1.9994,-2.0085,-1.9985,-2.0167,-1.9985,-2.0348,-2.0791,-2.1069,-2.0619,-2.0257,-2.106,-2.1774,-2.2138,-2.2227,-2.2394,-2.1686,-2.1863,-2.1606,-2.1248,-2.1516,-2.1695,-2.1784,-2.2227,-2.2921,-2.3647,-2.4003,-2.4176,-2.4358,-2.455,-2.455,-2.455,-2.455,-2.455,-2.455,-2.455,-2.455,-2.455,-2.455,-2.455,-2.455,-2.455,-2.455,-2.455,-2.455,-2.455,-2.455,-2.455,-2.455,-2.455,-2.455,-2.455,-2.455,-2.455,-2.47,-2.47,-2.47,-2.47,-2.4796,-2.4711,-2.4711,-2.47,-2.4786,-2.4946,-2.5031,-2.5126,-2.5295,-2.5464,-2.5549,-2.5549,-2.5644,-2.5728,-2.5728,-2.5812,-2.5895,-2.5895,-2.5812,-2.5812,-2.5895,-2.5895,-2.5895,-2.5895,-1.8827,-1.8827,-1.8827,-1.8827,-1.8827,-1.8827,-1.8827,-1.8827,-1.8827,-1.8827,-1.8827,-1.8827,-1.8827,-1.8827,-1.8827,-1.8827,-1.892,-1.8827,-1.8827,-1.9104,-1.9004,-1.9455,-1.9812,-1.9994,-2.0175,-2.0447,-2.0628,-2.0628,-2.0538,-2.1069,-2.1329,-2.1695,-2.1774,-2.1784,-2.1784,-2.1695,-2.1507,-2.1338,-2.1248,-2.1516,-2.1338,-2.0979,-2.0266,-2.0529,-2.1329,-2.2306,-2.2492,-2.2765,-2.3377,-2.2931,-2.1961,-2.1695,-2.1606,-2.1606,-2.1872,-2.205,-2.2227,-2.2755,-2.328,-2.3637,-2.3993,-2.4262,-2.4454,-2.455,-2.455,-2.455,-2.455,-2.455,-2.455,-2.455,-2.455,-2.455,-2.455,-2.455,-2.455,-2.455,-2.455,-2.455,-2.455,-2.455,-2.455,-2.455,-2.455,-2.455,-2.454,-2.4625,-2.4711,-2.4871,-2.4946,-2.4946,-2.4946,-2.5041,-2.5041,-2.5041,-2.4956,-2.5031,-2.5115,-2.5295,-2.5391,-2.5644,-2.5812,-2.5728,-2.5728,-2.5812,-2.5895,-2.5895,-2.5895,-2.5895,-2.5895,-2.5895,-2.5895,-2.5895,-2.5895,-2.5895,-2.5895,-1.8827,-1.8827,-1.8827,-1.8827,-1.8827,-1.8827,-1.8827,-1.8827,-1.8827,-1.8827,-1.8827,-1.8827,-1.8827,-1.8827,-1.8827,-1.892,-1.9288,-1.9104,-1.9463,-1.9928,-1.9554,-1.992,-2.0275,-2.0628,-2.0184,-2.0357,-2.0718,-2.0637,-2.1338,-2.1606,-2.1686,-2.212,-2.2375,-2.2287,-2.2041,-2.2041,-2.2129,-2.2138,-2.205,-2.205,-2.1872,-2.1606,-2.1436,-2.1516,-2.1606,-2.1872,-2.1872,-2.2059,-2.205,-2.1961,-2.1961,-2.1961,-2.1961,-2.2138,-2.2315,-2.2755,-2.2843,-2.329,-2.3734,-2.4003,-2.4358,-2.4358,-2.455,-2.455,-2.455,-2.455,-2.455,-2.455,-2.455,-2.455,-2.455,-2.455,-2.455,-2.455,-2.455,-2.455,-2.455,-2.455,-2.455,-2.455,-2.455,-2.455,-2.455,-2.454,-2.4625,-2.4711,-2.4871,-2.4946,-2.5126,-2.52,-2.5285,-2.5285,-2.538,-2.5285,-2.52,-2.5211,-2.5295,-2.5475,-2.5559,-2.5728,-2.5812,-2.5895,-2.5895,-2.5895,-2.5895,-2.5895,-2.5895,-2.5895,-2.5895,-2.5895,-2.5895,-2.5895,-2.5895,-2.5895,-2.5895]},{"header":{"parameterUnit":"m.s-1","parameterCategory":1,"la1":31.0,"la2":29.5877,"lo1":-88.7671,"lo2":-86.6584,"dy":0.0162,"dx":0.0185,"nx":115,"ny":88,"refTime":"2024-08-13T06:00:00:Z","depth":0,"parameterNumber":3,"parameterNumberName":"V-component_of_WINDS"},"data":[0.0,0.0,0.0,0.0,0.0,0.0,0.0,0.0,0.0,0.0,0.0,0.0,0.0,0.0,0.0,0.0,0.0,0.0,0.0,0.0,0.0,0.0,0.0,0.0,0.0,0.0,0.0,0.0,0.0,0.0,0.0,0.0,0.0,0.0,0.0,0.0,0.0,0.0,0.0,0.0,0.0,0.0,0.0,0.0,0.0,0.0,0.0,0.0,0.0,0.0,0.0,0.0,0.0,0.0,0.0,0.0,0.0,0.0,0.0,0.0,0.0,0.0,0.0,0.0,0.0,0.0,0.0,0.0,0.0,0.0,0.0,0.0,0.0,0.0,0.0,0.0,0.0,0.0,0.0,0.0,0.0,0.0,0.0,0.0,0.0,0.0,0.0,0.0,0.0,0.0,0.0,0.0,0.0,0.0,0.0,0.0,0.0,0.0,0.0,0.0,0.0,0.0,0.0,0.0,0.0,0.0,0.0,0.0,0.0,0.0,0.0,0.0,0.0,0.0,0.0,0.0,0.0,0.0,0.0,0.0,0.0,0.0,0.0,0.0,0.0,0.0,0.0,0.0,0.0,0.0,0.0,0.0,0.0,0.0,0.0,0.0,0.0,0.0,0.0,0.0,0.0,0.0,0.0,0.0,0.0,0.0,0.0,0.0,0.0,0.0,0.0,0.0,0.0,0.0,0.0,0.0,0.0,0.0,0.0,0.0,0.0,0.0,0.0,0.0,0.0,0.0,0.0,0.0,0.0,0.0,0.0,0.0,0.0,0.0,0.0,0.0,0.0,0.0,0.0,0.0,0.0,0.0,0.0,0.0,0.0,0.0,0.0,0.0,0.0,0.0,0.0,0.0,0.0,0.0,0.0,0.0,0.0,0.0,0.0,0.0,0.0,0.0,0.0,0.0,0.0,0.0,0.0,0.0,0.0,0.0,0.0,0.0,0.0,0.0,0.0,0.0,0.0,0.0,0.0,0.0,0.0,0.0,0.0,0.0,0.0,0.0,0.0,0.0,0.0,0.0,0.0,0.0,0.0,0.0,0.0,0.0,0.0,0.0,0.0,0.0,0.0,0.0,0.0,0.0,0.0,0.0,0.0,0.0,0.0,0.0,0.0,0.0,0.0,0.0,0.0,0.0,0.0,0.0,0.0,0.0,0.0,0.0,0.0,0.0,0.0,0.0,0.0,0.0,0.0,0.0,0.0,0.0,0.0,0.0,0.0,0.0,0.0,0.0,0.0,0.0,0.0,0.0,0.0,0.0,0.0,0.0,0.0,0.0,0.0,0.0,0.0,0.0,0.0,0.0,0.0,0.0,0.0,0.0,0.0,0.0,0.0,0.0,0.0,0.0,0.0,0.0,0.0,0.0,0.0,0.0,0.0,0.0,0.0,0.0,0.0,0.0,0.0,0.0,0.0,0.0,0.0,0.0,0.0,0.0,0.0,0.0,0.0,0.0,0.0,0.0,0.0,0.0,0.0,0.0,0.0,0.0,0.0,0.0,0.0,0.0,0.0,0.0,0.0,0.0,0.0,0.0,0.0,0.0,0.0,0.0,0.0,0.0,0.0,0.0,0.0,0.0,0.0,0.0,0.0,0.0,0.0,0.0,0.0,0.0,0.0,0.0,0.0,0.0,0.0,0.0,0.0,0.0,0.0,0.0,0.0,0.0,0.0,0.0,0.0,0.0,0.0,0.0,0.0,0.0,0.0,0.0,0.0,0.0,0.0,0.0,0.0,0.0,0.0,0.0,0.0,0.0,0.0,0.0,0.0,0.0,0.0,0.0,0.0,0.0,0.0,0.0,0.0,0.0,0.0,0.0,0.0,0.0,0.0,0.0,0.0,0.0,0.0,0.0,0.0,0.0,0.0,0.0,0.0,0.0,0.0,0.0,0.0,0.0,0.0,0.0,0.0,0.0,0.0,0.0,0.0,0.0,0.0,0.0,0.0,0.0,0.0,0.0,0.0,0.0,0.0,0.0,0.0,0.0,0.0,0.0,0.0,0.0,0.0,0.0,0.0,0.0,0.0,0.0,0.0,0.0,0.0,0.0,0.0,0.0,0.0,0.0,0.0,0.0,0.0,0.0,0.0,0.0,0.0,0.0,0.0,0.0,0.0,0.0,0.0,0.0,0.0,0.0,0.0,0.0,0.0,0.0,0.0,0.0,0.0,0.0,0.0,0.0,0.0,0.0,0.0,0.0,0.0,0.0,0.0,0.0,0.0,0.0,0.0,0.0,0.0,0.0,0.0,0.0,0.0,0.0,0.0,0.0,0.0,0.0,0.0,0.0,0.0,0.0,0.0,0.0,0.0,0.0,0.0,0.0,0.0,0.0,0.0,0.0,0.0,0.0,0.0,0.0,0.0,0.0,0.0,0.0,0.0,0.0,0.0,0.0,0.0,0.0,0.0,0.0,0.0,0.0,0.0,0.0,0.0,0.0,0.0,0.0,0.0,0.0,0.0,0.0,0.0,0.0,0.0,0.0,0.0,0.0,0.0,0.0,0.0,0.0,0.0,0.0,0.0,0.0,0.0,0.0,0.0,0.0,0.0,0.0,0.0,0.0,0.0,0.0,0.0,0.0,0.0,0.0,0.0,0.0,0.0,0.0,0.0,0.0,0.0,0.0,0.0,0.0,0.0,0.0,0.0,0.0,0.0,0.0,0.0,0.0,0.0,0.0,0.0,0.0,0.0,0.0,0.0,0.0,0.0,0.0,0.0,0.0,0.0,0.0,0.0,0.0,0.0,0.0,0.0,0.0,0.0,0.0,0.0,0.0,0.0,0.0,0.0,0.0,0.0,0.0,0.0,0.0,0.0,0.0,0.0,0.0,0.0,0.0,0.0,0.0,0.0,0.0,0.0,0.0,0.0,0.0,0.0,0.0,0.0,0.0,0.0,0.0,0.0,0.0,0.0,0.0,0.0,0.0,0.0,0.0,0.0,0.0,0.0,0.0,0.0,0.0,0.0,0.0,0.0,0.0,0.0,0.0,0.0,0.0,0.0,0.0,0.0,0.0,0.0,0.0,0.0,0.0,0.0,0.0,0.0,0.0,0.0,0.0,0.0,0.0,0.0,0.0,0.0,0.0,0.0,0.0,0.0,0.0,0.0,0.0,0.0,0.0,0.0,0.0,0.0,0.0,0.0,0.0,0.0,0.0,0.0,0.0,0.0,0.0,0.0,0.0,0.0,0.0,0.0,0.0,0.0,0.0,0.0,0.0,0.0,0.0,0.0,0.0,0.0,0.0,0.0,0.0,0.0,0.0,0.0,0.0,0.0,0.0,0.0,0.0,0.0,0.0,0.0,0.0,0.0,0.0,0.0,0.0,0.0,0.0,0.0,0.0,0.0,0.0,0.0,0.0,0.0,0.0,0.0,0.0,0.0,0.0,0.0,0.0,0.0,0.0,0.0,0.0,0.0,0.0,0.0,0.0,0.0,0.0,0.0,0.0,0.0,0.0,0.0,0.0,0.0,0.0,0.0,0.0,0.0,0.0,0.0,0.0,0.0,0.0,0.0,0.0,0.0,0.0,0.0,0.0,0.0,0.0,0.0,0.0,0.0,0.0,0.0,0.0,0.0,0.0,0.0,0.0,0.0,0.0,0.0,0.0,0.0,0.0,0.0,0.0,0.0,0.0,0.0,0.0,0.0,0.0,0.0,0.0,0.0,0.0,0.0,0.0,0.0,0.0,0.0,0.0,0.0,0.0,0.0,0.0,0.0,0.0,0.0,0.0,0.0,0.0,0.0,0.0,0.0,0.0,0.0,0.0,0.0,0.0,0.0,0.0,0.0,0.0,0.0,0.0,0.0,0.0,0.0,0.0,0.0,0.0,0.0,0.0,0.0,0.0,0.0,0.0,0.0,0.0,0.0,0.0,0.0,0.0,0.0,0.0,0.0,0.0,0.0,0.0,0.0,0.0,0.0,0.0,0.0,0.0,0.0,0.0,0.0,0.0,0.0,0.0,0.0,0.0,0.0,0.0,0.0,0.0,0.0,0.0,0.0,0.0,0.0,0.0,0.0,0.0,0.0,0.0,0.0,0.0,0.0,0.0,0.0,0.0,0.0,0.0,0.0,0.0,0.0,0.0,0.0,0.0,0.0,0.0,0.0,0.0,0.0,0.0,0.0,0.0,0.0,0.0,0.0,0.0,0.0,0.0,0.0,0.0,0.0,0.0,0.0,0.0,0.0,0.0,0.0,0.0,0.0,0.0,0.0,0.0,0.0,0.0,0.0,0.0,0.0,0.0,0.0,0.0,0.0,0.0,0.0,0.0,0.0,0.0,-1.1087,0.0,0.0,0.0,0.0,0.0,0.0,0.0,0.0,0.0,0.0,0.0,0.0,0.0,0.0,0.0,0.0,0.0,0.0,0.0,0.0,0.0,0.0,0.0,0.0,0.0,0.0,0.0,0.0,0.0,0.0,0.0,0.0,0.0,0.0,0.0,0.0,0.0,0.0,0.0,0.0,0.0,0.0,0.0,0.0,0.0,0.0,0.0,0.0,0.0,0.0,0.0,0.0,0.0,0.0,0.0,0.0,0.0,0.0,0.0,0.0,0.0,0.0,0.0,0.0,0.0,0.0,0.0,0.0,0.0,0.0,0.0,0.0,0.0,0.0,0.0,0.0,0.0,0.0,0.0,0.0,0.0,0.0,0.0,0.0,0.0,0.0,0.0,0.0,0.0,0.0,0.0,0.0,0.0,0.0,0.0,0.0,0.0,0.0,0.0,0.0,0.0,0.0,0.0,0.0,0.0,0.0,0.0,0.0,0.0,0.0,-1.2307,-1.2005,-1.1353,-1.0874,-1.0621,0.0,0.0,0.0,0.0,0.0,0.0,0.0,0.0,0.0,0.0,0.0,0.0,0.0,0.0,0.0,0.0,0.0,0.0,0.0,0.0,0.0,0.0,0.0,0.0,0.0,0.0,0.0,0.0,0.0,0.0,0.0,0.0,0.0,0.0,0.0,0.0,0.0,0.0,0.0,0.0,0.0,0.0,0.0,0.0,0.0,0.0,0.0,0.0,0.0,0.0,0.0,0.0,0.0,0.0,0.0,0.0,0.0,0.0,0.0,0.0,0.0,0.0,0.0,0.0,0.0,0.0,0.0,0.0,0.0,0.0,0.0,0.0,0.0,0.0,0.0,0.0,0.0,0.0,0.0,0.0,0.0,0.0,0.0,0.0,0.0,0.0,0.0,0.0,0.0,0.0,0.0,0.0,0.0,0.0,0.0,0.0,0.0,0.0,0.0,0.0,0.0,0.0,0.0,0.0,0.0,0.0,0.0,0.0,0.0,0.0,0.0,0.0,-1.1766,-1.1479,-1.1088,0.0,0.0,0.0,0.0,0.0,0.0,0.0,0.0,0.0,0.0,0.0,0.0,0.0,0.0,0.0,0.0,0.0,0.0,0.0,0.0,0.0,0.0,0.0,0.0,0.0,0.0,0.0,0.0,0.0,0.0,0.0,0.0,0.0,0.0,0.0,0.0,0.0,0.0,0.0,0.0,0.0,0.0,0.0,0.0,0.0,0.0,0.0,0.0,0.0,0.0,0.0,0.0,0.0,0.0,0.0,0.0,0.0,0.0,0.0,0.0,0.0,0.0,0.0,0.0,0.0,0.0,0.0,0.0,0.0,0.0,0.0,0.0,0.0,0.0,0.0,0.0,0.0,0.0,0.0,0.0,0.0,0.0,0.0,0.0,0.0,0.0,0.0,0.0,0.0,0.0,0.0,0.0,0.0,0.0,0.0,0.0,0.0,0.0,0.0,0.0,0.0,0.0,0.0,0.0,0.0,0.0,0.0,0.0,0.0,0.0,-1.2295,-1.4382,-1.3793,0.0,-1.3577,0.0,0.0,0.0,0.0,0.0,0.0,0.0,0.0,0.0,0.0,0.0,0.0,0.0,0.0,0.0,0.0,0.0,0.0,0.0,0.0,0.0,0.0,0.0,0.0,0.0,0.0,0.0,0.0,0.0,0.0,0.0,0.0,0.0,0.0,0.0,0.0,0.0,0.0,0.0,0.0,0.0,0.0,0.0,0.0,0.0,0.0,0.0,0.0,0.0,0.0,0.0,0.0,0.0,0.0,0.0,0.0,0.0,0.0,0.0,0.0,0.0,0.0,0.0,0.0,0.0,0.0,0.0,0.0,0.0,0.0,0.0,0.0,0.0,0.0,0.0,0.0,0.0,0.0,0.0,0.0,0.0,0.0,0.0,0.0,0.0,0.0,0.0,0.0,0.0,0.0,0.0,0.0,0.0,0.0,0.0,0.0,0.0,0.0,0.0,0.0,0.0,0.0,0.0,0.0,0.0,0.0,0.0,0.0,0.0,0.0,0.0,-1.3599,-1.3316,-1.3197,0.0,0.0,0.0,0.0,0.0,0.0,0.0,0.0,0.0,0.0,0.0,0.0,0.0,0.0,0.0,0.0,0.0,0.0,0.0,0.0,0.0,0.0,0.0,0.0,0.0,0.0,0.0,0.0,0.0,0.0,0.0,0.0,0.0,0.0,0.0,0.0,0.0,0.0,0.0,0.0,0.0,0.0,0.0,0.0,0.0,0.0,0.0,0.0,0.0,0.0,0.0,0.0,0.0,0.0,0.0,0.0,0.0,0.0,0.0,0.0,0.0,0.0,0.0,0.0,0.0,0.0,0.0,0.0,0.0,0.0,0.0,0.0,0.0,0.0,0.0,0.0,0.0,0.0,0.0,0.0,0.0,0.0,0.0,0.0,0.0,0.0,0.0,0.0,0.0,0.0,0.0,0.0,0.0,0.0,0.0,0.0,0.0,0.0,0.0,0.0,0.0,0.0,0.0,0.0,0.0,0.0,0.0,0.0,0.0,0.0,-1.3053,0.0,-1.3772,-1.3789,-1.3516,-1.2928,0.0,0.0,0.0,0.0,0.0,0.0,0.0,0.0,0.0,0.0,0.0,0.0,0.0,0.0,0.0,0.0,0.0,0.0,0.0,0.0,0.0,0.0,0.0,0.0,0.0,0.0,0.0,0.0,0.0,0.0,0.0,0.0,0.0,0.0,0.0,0.0,0.0,0.0,0.0,0.0,0.0,0.0,0.0,0.0,0.0,0.0,0.0,0.0,0.0,0.0,0.0,0.0,0.0,0.0,0.0,0.0,0.0,0.0,0.0,0.0,0.0,0.0,0.0,0.0,0.0,0.0,0.0,0.0,0.0,0.0,0.0,0.0,0.0,0.0,0.0,0.0,0.0,0.0,0.0,0.0,0.0,0.0,0.0,0.0,0.0,0.0,0.0,0.0,0.0,0.0,0.0,0.0,0.0,0.0,0.0,0.0,0.0,0.0,0.0,0.0,0.0,0.0,0.0,0.0,0.0,0.0,0.0,0.0,0.0,-1.4015,-1.3997,-1.6148,-1.6219,-1.5169,0.0,0.0,0.0,0.0,0.0,0.0,0.0,0.0,0.0,0.0,0.0,0.0,0.0,0.0,0.0,0.0,0.0,0.0,0.0,0.0,0.0,0.0,0.0,0.0,0.0,0.0,0.0,0.0,0.0,0.0,0.0,0.0,0.0,0.0,0.0,0.0,0.0,0.0,0.0,0.0,0.0,0.0,0.0,0.0,0.0,0.0,0.0,0.0,0.0,0.0,0.0,0.0,0.0,0.0,0.0,0.0,0.0,0.0,0.0,0.0,0.0,0.0,0.0,0.0,0.0,0.0,0.0,0.0,0.0,0.0,0.0,0.0,0.0,0.0,0.0,0.0,0.0,0.0,0.0,0.0,0.0,0.0,0.0,0.0,0.0,0.0,0.0,0.0,0.0,0.0,0.0,0.0,0.0,0.0,0.0,0.0,0.0,0.0,0.0,0.0,0.0,0.0,0.0,0.0,0.0,0.0,0.0,0.0,0.0,-1.1865,-1.2549,-1.4816,-1.8535,-1.5819,-1.4512,0.0,0.0,0.0,0.0,0.0,0.0,0.0,0.0,0.0,0.0,0.0,0.0,0.0,0.0,0.0,0.0,0.0,0.0,0.0,0.0,0.0,0.0,0.0,0.0,0.0,0.0,0.0,0.0,0.0,0.0,0.0,0.0,0.0,0.0,0.0,0.0,0.0,0.0,0.0,0.0,0.0,0.0,0.0,0.0,0.0,0.0,0.0,0.0,0.0,0.0,0.0,0.0,0.0,0.0,0.0,0.0,0.0,0.0,0.0,0.0,0.0,0.0,0.0,0.0,0.0,0.0,0.0,0.0,0.0,0.0,0.0,0.0,0.0,0.0,0.0,0.0,0.0,0.0,0.0,0.0,0.0,0.0,0.0,0.0,0.0,0.0,0.0,0.0,0.0,0.0,0.0,0.0,0.0,0.0,0.0,0.0,0.0,0.0,0.0,0.0,0.0,0.0,0.0,0.0,0.0,0.0,0.0,0.0,0.0,-1.1692,0.0,-1.6489,0.0,-1.5857,-1.4198,0.0,0.0,0.0,0.0,0.0,0.0,0.0,0.0,0.0,0.0,0.0,0.0,0.0,0.0,0.0,0.0,0.0,0.0,0.0,0.0,0.0,0.0,0.0,0.0,0.0,0.0,0.0,0.0,0.0,0.0,0.0,0.0,0.0,0.0,0.0,0.0,0.0,0.0,0.0,0.0,0.0,0.0,0.0,0.0,0.0,0.0,0.0,0.0,0.0,0.0,0.0,0.0,0.0,0.0,0.0,0.0,0.0,0.0,0.0,0.0,0.0,0.0,0.0,0.0,0.0,0.0,0.0,0.0,0.0,0.0,0.0,0.0,0.0,0.0,0.0,0.0,0.0,0.0,0.0,0.0,0.0,0.0,0.0,0.0,0.0,0.0,0.0,0.0,0.0,0.0,0.0,0.0,0.0,0.0,0.0,0.0,0.0,0.0,0.0,0.0,0.0,0.0,0.0,0.0,0.0,0.0,0.0,0.0,-1.1739,-1.624,-1.8626,-1.8785,-1.6874,-1.6577,-1.4397,0.0,0.0,0.0,0.0,0.0,0.0,0.0,0.0,0.0,0.0,0.0,0.0,0.0,0.0,0.0,0.0,0.0,0.0,0.0,0.0,0.0,0.0,0.0,0.0,0.0,0.0,0.0,0.0,0.0,0.0,0.0,0.0,0.0,0.0,0.0,0.0,0.0,0.0,0.0,0.0,0.0,0.0,0.0,0.0,0.0,0.0,0.0,0.0,0.0,0.0,0.0,0.0,0.0,0.0,0.0,0.0,0.0,0.0,0.0,0.0,0.0,0.0,0.0,0.0,0.0,0.0,0.0,0.0,0.0,0.0,0.0,0.0,0.0,0.0,0.0,0.0,0.0,0.0,0.0,0.0,0.0,0.0,0.0,0.0,0.0,0.0,0.0,0.0,0.0,0.0,0.0,0.0,0.0,0.0,0.0,0.0,0.0,0.0,0.0,0.0,0.0,0.0,0.0,0.0,0.0,0.0,0.0,0.0,0.0,-1.4932,-1.6715,-1.8231,-1.9253,-1.6543,-1.4958,0.0,0.0,0.0,0.0,0.0,0.0,0.0,0.0,0.0,0.0,0.0,0.0,0.0,0.0,0.0,0.0,0.0,0.0,0.0,0.0,0.0,0.0,0.0,0.0,0.0,0.0,0.0,0.0,0.0,0.0,0.0,0.0,0.0,0.0,0.0,0.0,0.0,0.0,0.0,0.0,0.0,0.0,0.0,0.0,0.0,0.0,0.0,0.0,0.0,0.0,0.0,0.0,0.0,0.0,0.0,0.0,0.0,0.0,0.0,0.0,0.0,0.0,0.0,0.0,0.0,0.0,0.0,0.0,0.0,0.0,0.0,0.0,0.0,0.0,0.0,0.0,0.0,0.0,0.0,0.0,0.0,0.0,0.0,0.0,0.0,0.0,0.0,0.0,0.0,0.0,0.0,0.0,0.0,0.0,0.0,0.0,0.0,0.0,0.0,0.0,0.0,0.0,0.0,0.0,0.0,0.0,0.0,0.0,0.0,-1.717,-1.8522,-1.9664,-2.0496,-1.7369,-1.585,-1.6176,0.0,0.0,0.0,0.0,0.0,0.0,0.0,0.0,0.0,0.0,0.0,0.0,0.0,0.0,0.0,0.0,0.0,0.0,0.0,0.0,0.0,0.0,0.0,0.0,0.0,0.0,0.0,0.0,0.0,0.0,0.0,0.0,0.0,0.0,0.0,0.0,0.0,0.0,0.0,0.0,0.0,0.0,0.0,0.0,0.0,0.0,0.0,0.0,0.0,0.0,0.0,0.0,0.0,0.0,0.0,0.0,0.0,0.0,0.0,0.0,0.0,0.0,0.0,0.0,0.0,0.0,0.0,0.0,0.0,0.0,0.0,0.0,0.0,0.0,0.0,0.0,0.0,0.0,0.0,0.0,0.0,0.0,0.0,0.0,0.0,0.0,0.0,0.0,0.0,0.0,0.0,0.0,0.0,0.0,0.0,0.0,0.0,0.0,0.0,0.0,0.0,0.0,0.0,0.0,0.0,0.0,0.0,0.0,-2.2032,-2.3306,-2.2915,-2.0814,-1.9104,-1.7165,0.0,0.0,0.0,0.0,0.0,0.0,0.0,0.0,0.0,0.0,0.0,0.0,0.0,0.0,0.0,0.0,0.0,0.0,0.0,0.0,0.0,0.0,0.0,0.0,0.0,0.0,0.0,0.0,0.0,0.0,0.0,0.0,0.0,0.0,0.0,0.0,0.0,0.0,0.0,0.0,0.0,0.0,0.0,0.0,0.0,0.0,0.0,0.0,0.0,0.0,0.0,0.0,0.0,0.0,0.0,0.0,0.0,0.0,0.0,0.0,0.0,0.0,0.0,0.0,0.0,0.0,0.0,0.0,0.0,0.0,0.0,0.0,0.0,0.0,0.0,0.0,0.0,0.0,0.0,0.0,0.0,0.0,0.0,0.0,0.0,0.0,0.0,0.0,0.0,0.0,0.0,0.0,0.0,0.0,0.0,0.0,0.0,0.0,0.0,0.0,0.0,0.0,0.0,0.0,0.0,0.0,0.0,0.0,0.0,-2.2837,-2.4931,-2.5486,-2.4381,-2.2101,-1.9855,0.0,0.0,0.0,0.0,0.0,0.0,0.0,0.0,0.0,0.0,0.0,0.0,0.0,0.0,0.0,0.0,0.0,0.0,0.0,0.0,0.0,0.0,0.0,0.0,0.0,0.0,0.0,0.0,0.0,0.0,0.0,0.0,0.0,0.0,0.0,0.0,0.0,0.0,0.0,0.0,0.0,0.0,0.0,0.0,0.0,0.0,0.0,0.0,0.0,0.0,0.0,0.0,0.0,0.0,0.0,0.0,0.0,0.0,0.0,0.0,0.0,0.0,0.0,0.0,0.0,0.0,0.0,0.0,0.0,0.0,0.0,0.0,0.0,0.0,0.0,0.0,0.0,0.0,0.0,0.0,0.0,0.0,0.0,0.0,0.0,0.0,0.0,0.0,0.0,0.0,0.0,0.0,0.0,0.0,0.0,0.0,0.0,0.0,0.0,0.0,0.0,0.0,0.0,0.0,0.0,0.0,0.0,0.0,-2.1857,-2.4422,-2.6338,-2.7233,-2.7043,-2.4396,-2.1745,0.0,0.0,0.0,0.0,0.0,0.0,0.0,0.0,0.0,0.0,0.0,0.0,0.0,0.0,0.0,0.0,0.0,0.0,0.0,0.0,0.0,0.0,0.0,0.0,0.0,0.0,0.0,0.0,0.0,0.0,0.0,0.0,0.0,0.0,0.0,0.0,0.0,0.0,0.0,0.0,0.0,0.0,0.0,0.0,0.0,0.0,0.0,0.0,0.0,0.0,0.0,0.0,0.0,0.0,0.0,0.0,0.0,0.0,0.0,0.0,0.0,0.0,0.0,0.0,0.0,0.0,0.0,0.0,0.0,0.0,0.0,0.0,0.0,0.0,0.0,0.0,0.0,0.0,0.0,0.0,0.0,0.0,0.0,0.0,0.0,0.0,0.0,0.0,0.0,0.0,0.0,0.0,0.0,0.0,0.0,0.0,0.0,0.0,0.0,0.0,0.0,0.0,0.0,0.0,0.0,0.0,0.0,0.0,-2.3551,-2.6152,-2.7564,-2.8408,-2.8572,-2.604,-2.3129,0.0,0.0,0.0,0.0,0.0,0.0,0.0,0.0,0.0,0.0,0.0,0.0,0.0,0.0,0.0,0.0,0.0,0.0,0.0,0.0,0.0,0.0,0.0,0.0,0.0,0.0,0.0,0.0,0.0,0.0,0.0,0.0,0.0,0.0,0.0,0.0,0.0,0.0,0.0,0.0,0.0,0.0,0.0,0.0,0.0,0.0,0.0,0.0,0.0,0.0,0.0,0.0,0.0,0.0,0.0,0.0,0.0,0.0,0.0,0.0,0.0,0.0,0.0,0.0,0.0,0.0,0.0,0.0,0.0,0.0,0.0,0.0,0.0,0.0,0.0,0.0,0.0,0.0,0.0,0.0,0.0,0.0,0.0,0.0,0.0,0.0,0.0,0.0,0.0,0.0,0.0,0.0,0.0,0.0,0.0,0.0,0.0,0.0,0.0,0.0,0.0,0.0,0.0,0.0,0.0,0.0,0.0,0.0,-2.4913,-2.619,-2.8383,-2.9185,-2.8476,-2.6521,-2.4286,0.0,0.0,0.0,0.0,0.0,0.0,0.0,0.0,0.0,0.0,0.0,0.0,0.0,0.0,0.0,0.0,0.0,0.0,0.0,0.0,0.0,0.0,0.0,0.0,0.0,0.0,0.0,0.0,0.0,0.0,0.0,0.0,0.0,0.0,0.0,0.0,0.0,0.0,0.0,0.0,0.0,0.0,0.0,0.0,0.0,0.0,0.0,0.0,-1.6213,0.0,0.0,0.0,0.0,0.0,0.0,0.0,0.0,0.0,0.0,0.0,0.0,0.0,0.0,0.0,0.0,0.0,0.0,0.0,0.0,0.0,0.0,0.0,0.0,0.0,0.0,0.0,0.0,0.0,0.0,0.0,0.0,0.0,0.0,0.0,0.0,0.0,0.0,0.0,0.0,0.0,0.0,0.0,0.0,0.0,0.0,0.0,0.0,0.0,0.0,0.0,0.0,0.0,0.0,0.0,0.0,0.0,0.0,0.0,-2.5905,-2.683,-2.8796,-2.9616,-2.9072,-2.7323,-2.5032,0.0,0.0,0.0,0.0,0.0,0.0,0.0,0.0,0.0,0.0,0.0,0.0,0.0,0.0,0.0,0.0,0.0,0.0,0.0,0.0,0.0,0.0,0.0,0.0,0.0,0.0,0.0,0.0,0.0,0.0,0.0,0.0,0.0,0.0,0.0,0.0,0.0,0.0,0.0,0.0,0.0,0.0,0.0,0.0,0.0,0.0,0.0,0.0,0.0,0.0,0.0,0.0,0.0,0.0,0.0,0.0,0.0,0.0,0.0,0.0,0.0,0.0,0.0,0.0,0.0,0.0,0.0,0.0,0.0,0.0,0.0,0.0,0.0,0.0,0.0,0.0,0.0,0.0,0.0,0.0,0.0,0.0,0.0,0.0,0.0,0.0,0.0,0.0,0.0,0.0,0.0,0.0,0.0,0.0,0.0,0.0,0.0,0.0,0.0,0.0,0.0,0.0,0.0,0.0,0.0,0.0,0.0,-2.3634,-2.6435,-2.7464,-2.8992,-2.9806,-2.9836,-2.8103,-2.5645,-2.2526,0.0,0.0,0.0,0.0,0.0,0.0,0.0,0.0,0.0,0.0,0.0,0.0,0.0,0.0,0.0,0.0,0.0,0.0,0.0,0.0,0.0,0.0,0.0,0.0,0.0,0.0,0.0,0.0,0.0,0.0,0.0,0.0,0.0,0.0,0.0,0.0,0.0,0.0,-1.4637,-1.6885,0.0,0.0,0.0,0.0,0.0,0.0,0.0,0.0,-1.8161,0.0,0.0,0.0,0.0,0.0,0.0,0.0,0.0,0.0,0.0,0.0,0.0,0.0,0.0,0.0,0.0,0.0,0.0,0.0,0.0,0.0,0.0,0.0,0.0,0.0,0.0,0.0,0.0,0.0,0.0,0.0,0.0,0.0,0.0,0.0,0.0,0.0,0.0,0.0,0.0,0.0,0.0,0.0,0.0,0.0,0.0,0.0,0.0,0.0,0.0,0.0,0.0,0.0,0.0,0.0,0.0,-2.1727,-2.3968,-2.5819,-2.7299,-2.894,-2.9773,-2.97,-2.8137,-2.6301,-2.4166,0.0,0.0,0.0,0.0,0.0,0.0,0.0,0.0,0.0,0.0,0.0,0.0,0.0,0.0,0.0,0.0,0.0,0.0,0.0,0.0,0.0,0.0,0.0,0.0,0.0,0.0,0.0,0.0,0.0,0.0,0.0,0.0,0.0,0.0,0.0,0.0,0.0,0.0,0.0,-1.9883,-2.1166,0.0,0.0,0.0,0.0,0.0,0.0,0.0,0.0,-1.9399,0.0,0.0,0.0,0.0,0.0,0.0,0.0,0.0,0.0,0.0,0.0,0.0,0.0,0.0,0.0,0.0,0.0,0.0,0.0,0.0,0.0,0.0,0.0,0.0,0.0,0.0,0.0,0.0,0.0,0.0,0.0,0.0,0.0,0.0,0.0,0.0,0.0,0.0,0.0,0.0,0.0,0.0,0.0,0.0,0.0,0.0,0.0,0.0,0.0,0.0,0.0,0.0,0.0,0.0,0.0,-2.1023,-2.4468,-2.6605,-2.732,-2.8923,-2.9755,-2.9626,-2.7223,-2.5311,0.0,0.0,0.0,0.0,0.0,0.0,0.0,0.0,0.0,0.0,0.0,0.0,0.0,0.0,0.0,0.0,0.0,0.0,0.0,0.0,0.0,0.0,0.0,0.0,0.0,0.0,0.0,0.0,0.0,0.0,0.0,0.0,0.0,0.0,0.0,0.0,0.0,0.0,0.0,0.0,-2.0888,-2.2004,-2.2869,0.0,0.0,0.0,0.0,0.0,0.0,-2.085,-2.0211,0.0,0.0,0.0,0.0,0.0,0.0,0.0,0.0,0.0,0.0,0.0,0.0,0.0,0.0,0.0,0.0,0.0,0.0,0.0,0.0,0.0,0.0,0.0,0.0,0.0,0.0,0.0,0.0,0.0,0.0,0.0,0.0,0.0,0.0,0.0,0.0,0.0,0.0,0.0,0.0,0.0,0.0,0.0,0.0,0.0,0.0,0.0,0.0,0.0,0.0,0.0,0.0,0.0,0.0,0.0,-2.0132,-2.4615,-2.7153,-2.7549,-2.9019,-2.9737,-2.9608,-2.6686,-2.4556,0.0,0.0,0.0,0.0,0.0,0.0,0.0,0.0,0.0,0.0,0.0,0.0,0.0,0.0,0.0,0.0,0.0,0.0,0.0,0.0,0.0,0.0,0.0,0.0,0.0,0.0,0.0,0.0,0.0,0.0,0.0,0.0,0.0,0.0,0.0,0.0,0.0,0.0,0.0,0.0,0.0,-2.2882,-2.4025,-2.3043,0.0,0.0,0.0,0.0,-2.2997,-2.23,0.0,0.0,0.0,0.0,0.0,0.0,0.0,0.0,0.0,0.0,0.0,0.0,0.0,0.0,0.0,0.0,0.0,0.0,0.0,0.0,0.0,0.0,0.0,0.0,0.0,0.0,0.0,0.0,0.0,0.0,0.0,0.0,0.0,0.0,0.0,0.0,0.0,0.0,0.0,0.0,0.0,0.0,0.0,0.0,0.0,0.0,0.0,0.0,0.0,0.0,0.0,0.0,0.0,0.0,0.0,0.0,-2.0866,-2.3761,-2.6204,-2.8198,-2.9213,-2.9664,-2.9493,-2.7699,-2.5699,0.0,0.0,0.0,0.0,0.0,0.0,0.0,0.0,0.0,0.0,0.0,0.0,0.0,0.0,0.0,0.0,0.0,0.0,0.0,0.0,0.0,0.0,0.0,0.0,0.0,0.0,0.0,0.0,0.0,0.0,0.0,0.0,0.0,0.0,0.0,0.0,0.0,0.0,0.0,0.0,0.0,-2.4839,-2.4281,-2.4031,-2.3902,0.0,0.0,-2.4699,-2.4157,-2.5124,0.0,0.0,0.0,0.0,0.0,0.0,0.0,0.0,0.0,0.0,0.0,0.0,0.0,0.0,0.0,0.0,0.0,0.0,0.0,0.0,0.0,0.0,0.0,0.0,0.0,0.0,0.0,0.0,0.0,0.0,0.0,0.0,0.0,0.0,0.0,0.0,0.0,0.0,0.0,0.0,0.0,0.0,0.0,0.0,0.0,0.0,0.0,0.0,0.0,0.0,0.0,0.0,0.0,0.0,0.0,-1.7839,-2.0977,-2.4535,-2.7013,-2.8368,-2.9251,-2.942,-2.8839,-2.6729,-2.442,0.0,0.0,0.0,0.0,0.0,0.0,0.0,0.0,0.0,0.0,0.0,0.0,0.0,0.0,0.0,0.0,0.0,0.0,0.0,0.0,0.0,0.0,0.0,0.0,0.0,0.0,0.0,0.0,0.0,0.0,0.0,0.0,0.0,0.0,0.0,0.0,0.0,0.0,0.0,0.0,0.0,0.0,-2.4975,-2.4974,0.0,0.0,0.0,-2.5704,-2.6265,0.0,0.0,0.0,0.0,0.0,0.0,0.0,0.0,0.0,0.0,0.0,0.0,0.0,0.0,0.0,0.0,0.0,0.0,0.0,0.0,0.0,0.0,0.0,0.0,0.0,0.0,0.0,0.0,0.0,0.0,0.0,0.0,0.0,0.0,0.0,0.0,0.0,0.0,0.0,0.0,0.0,0.0,0.0,0.0,0.0,0.0,0.0,0.0,0.0,0.0,0.0,0.0,0.0,0.0,0.0,0.0,0.0,-2.1241,-2.5322,-2.7829,-2.8651,-2.9326,-2.9214,-2.8259,-2.619,0.0,0.0,0.0,0.0,0.0,0.0,0.0,0.0,0.0,0.0,0.0,0.0,0.0,0.0,0.0,0.0,0.0,0.0,0.0,0.0,0.0,0.0,0.0,0.0,0.0,0.0,0.0,-1.0417,0.0,0.0,0.0,0.0,0.0,0.0,0.0,0.0,0.0,0.0,0.0,0.0,0.0,0.0,-2.5018,-2.5512,-2.5904,-2.6374,0.0,0.0,-2.6729,-2.7542,-2.7,-2.5936,0.0,0.0,0.0,0.0,0.0,0.0,0.0,0.0,0.0,0.0,0.0,0.0,0.0,0.0,0.0,0.0,0.0,0.0,0.0,0.0,0.0,0.0,0.0,0.0,0.0,0.0,0.0,0.0,0.0,0.0,0.0,0.0,0.0,0.0,0.0,0.0,0.0,0.0,0.0,0.0,0.0,0.0,0.0,0.0,0.0,0.0,0.0,0.0,0.0,0.0,0.0,0.0,0.0,0.0,0.0,-2.2098,-2.5461,-2.7957,-2.9362,-2.9493,-2.9081,-2.8124,-2.7232,-2.4854,0.0,0.0,0.0,0.0,0.0,0.0,0.0,0.0,0.0,0.0,0.0,0.0,0.0,0.0,0.0,0.0,0.0,0.0,0.0,0.0,0.0,0.0,0.0,0.0,0.0,0.0,0.0,0.0,0.0,0.0,0.0,0.0,0.0,0.0,0.0,0.0,0.0,0.0,0.0,0.0,0.0,-2.635,-2.5623,-2.6897,-2.7912,0.0,0.0,-2.8528,-2.7031,-2.8064,-2.7948,-2.4718,0.0,0.0,0.0,0.0,0.0,0.0,0.0,0.0,0.0,0.0,0.0,0.0,0.0,0.0,0.0,0.0,0.0,0.0,0.0,0.0,0.0,0.0,0.0,0.0,0.0,0.0,0.0,0.0,0.0,0.0,0.0,0.0,0.0,0.0,0.0,0.0,0.0,0.0,0.0,0.0,0.0,0.0,0.0,0.0,0.0,0.0,0.0,0.0,0.0,0.0,0.0,0.0,0.0,-1.8908,-2.2055,-2.548,-2.7993,-2.9437,-2.9511,-2.9081,-2.824,-2.7344,-2.5207,0.0,0.0,0.0,0.0,0.0,0.0,0.0,0.0,0.0,0.0,0.0,0.0,0.0,0.0,0.0,0.0,0.0,0.0,0.0,0.0,0.0,0.0,0.0,0.0,0.0,0.0,0.0,0.0,-1.2781,-1.3119,-1.4016,0.0,0.0,0.0,0.0,0.0,0.0,0.0,0.0,0.0,0.0,-2.6737,-2.6892,-2.7922,0.0,0.0,-2.8893,-2.9094,-2.8948,-2.8636,-2.7798,-2.5976,-2.4566,0.0,0.0,0.0,0.0,0.0,0.0,0.0,0.0,0.0,0.0,0.0,0.0,0.0,0.0,0.0,0.0,0.0,0.0,0.0,0.0,0.0,0.0,0.0,0.0,0.0,0.0,0.0,0.0,0.0,0.0,0.0,0.0,0.0,0.0,0.0,0.0,0.0,0.0,0.0,0.0,0.0,0.0,0.0,0.0,0.0,0.0,0.0,0.0,0.0,0.0,0.0,0.0,-1.8971,-2.233,-2.5546,-2.794,-2.9434,-2.9471,-2.908,-2.824,-2.7382,-2.5467,0.0,0.0,0.0,0.0,0.0,0.0,0.0,0.0,0.0,0.0,0.0,0.0,0.0,0.0,0.0,0.0,0.0,0.0,0.0,0.0,0.0,0.0,0.0,0.0,0.0,0.0,0.0,0.0,-1.3925,-1.4331,-1.493,0.0,0.0,0.0,0.0,0.0,0.0,0.0,0.0,0.0,0.0,-2.7522,-2.8065,-2.8867,-2.9468,-2.9716,-2.9538,-2.9506,-2.9871,-2.9152,-2.8129,-2.6792,0.0,0.0,0.0,0.0,0.0,0.0,0.0,0.0,0.0,0.0,0.0,0.0,0.0,0.0,0.0,0.0,0.0,0.0,0.0,0.0,0.0,0.0,0.0,0.0,0.0,0.0,0.0,0.0,0.0,0.0,-1.0933,0.0,0.0,0.0,0.0,0.0,0.0,0.0,0.0,0.0,0.0,0.0,0.0,0.0,0.0,0.0,0.0,0.0,0.0,0.0,0.0,0.0,0.0,-1.9137,-2.3128,-2.5671,-2.7734,-2.9351,-2.9388,-2.8998,-2.8143,-2.7325,-2.5708,-2.3203,0.0,0.0,0.0,0.0,0.0,0.0,0.0,0.0,0.0,0.0,0.0,0.0,0.0,0.0,0.0,0.0,0.0,0.0,0.0,0.0,0.0,0.0,0.0,0.0,0.0,0.0,-1.3543,-1.4417,-1.4973,0.0,0.0,0.0,0.0,0.0,0.0,0.0,0.0,0.0,0.0,-2.7386,-2.8976,-2.8995,-2.9724,-3.0567,-3.1314,-3.0778,-2.9992,-2.9251,-2.9673,-2.934,0.0,0.0,0.0,0.0,0.0,0.0,0.0,0.0,0.0,0.0,0.0,0.0,0.0,0.0,0.0,0.0,0.0,0.0,0.0,0.0,0.0,0.0,0.0,0.0,0.0,0.0,0.0,-1.7849,-1.6757,0.0,0.0,0.0,0.0,0.0,0.0,0.0,0.0,0.0,0.0,0.0,-2.4872,-2.569,0.0,0.0,0.0,0.0,0.0,0.0,0.0,0.0,0.0,0.0,0.0,0.0,-2.0546,-2.3998,-2.6562,-2.8351,-2.9351,-2.9388,-2.9277,-2.8959,-2.7641,-2.5485,-2.2497,0.0,0.0,0.0,0.0,0.0,0.0,0.0,0.0,0.0,0.0,0.0,0.0,0.0,0.0,0.0,0.0,0.0,0.0,0.0,0.0,0.0,0.0,0.0,0.0,0.0,-1.3467,0.0,0.0,0.0,0.0,0.0,0.0,0.0,0.0,0.0,0.0,0.0,-2.632,-2.8204,-2.966,-3.0509,-3.0468,-3.1175,-3.1784,0.0,0.0,0.0,0.0,0.0,0.0,0.0,0.0,0.0,0.0,0.0,0.0,0.0,0.0,-2.9433,-2.5025,-2.3992,-2.379,-2.3765,0.0,0.0,0.0,0.0,0.0,0.0,0.0,0.0,0.0,0.0,0.0,0.0,0.0,0.0,-2.1886,0.0,-1.9607,0.0,0.0,0.0,0.0,0.0,0.0,0.0,0.0,-2.5652,-2.7455,-2.8217,-2.8996,-2.8897,0.0,-2.728,-2.4801,0.0,0.0,0.0,0.0,0.0,0.0,0.0,0.0,-2.1962,-2.4853,-2.7121,-2.8611,-2.9351,-2.9388,-2.9388,-2.937,-2.779,-2.5634,-2.2959,-2.1569,-2.0196,0.0,0.0,0.0,0.0,0.0,0.0,0.0,0.0,0.0,0.0,0.0,0.0,0.0,0.0,0.0,0.0,0.0,0.0,0.0,0.0,0.0,0.0,0.0,-1.4697,0.0,0.0,0.0,0.0,0.0,0.0,0.0,0.0,0.0,-2.5628,-2.7058,-2.8802,-3.0643,-3.1331,-3.1789,-3.2027,0.0,0.0,0.0,0.0,0.0,0.0,0.0,-3.2186,-3.2129,-3.1794,-3.1478,-3.142,-3.2768,-3.3479,-3.2319,0.0,0.0,-2.837,-2.7346,-2.7157,-2.7157,-2.7801,-2.8237,-2.7991,-2.8806,-2.9507,0.0,0.0,0.0,0.0,0.0,0.0,0.0,0.0,-2.5521,-2.5559,0.0,-2.3622,0.0,0.0,0.0,0.0,0.0,-2.3927,0.0,0.0,-2.9959,-3.1426,-3.0757,-3.1481,-3.1444,-3.072,-3.1144,-3.0129,-2.7552,-2.251,0.0,0.0,0.0,0.0,0.0,0.0,-2.3351,-2.5783,-2.7398,-2.8567,-2.9405,-2.9405,-2.9368,-2.9314,-2.7808,-2.6191,-2.4611,-2.3721,-2.2163,-1.9824,-1.884,0.0,0.0,0.0,0.0,0.0,0.0,0.0,0.0,0.0,0.0,0.0,0.0,0.0,0.0,0.0,0.0,0.0,0.0,0.0,0.0,-1.5122,0.0,0.0,0.0,0.0,0.0,0.0,0.0,0.0,0.0,0.0,-2.6887,-2.9353,-3.1632,-3.2386,0.0,0.0,0.0,0.0,-3.3145,-3.4756,-3.432,-3.4112,-3.4851,-3.5628,-3.559,-3.4074,0.0,0.0,-3.4093,-3.5135,-3.5666,-3.4112,-3.4491,-3.4472,-3.2823,-3.1762,-3.125,-3.1231,-3.0701,-3.0438,-3.1137,-3.1459,-3.1686,-3.2842,0.0,0.0,0.0,0.0,-2.9876,-3.0926,-3.2807,-3.2002,-3.1123,-3.0188,-2.8914,0.0,0.0,0.0,0.0,0.0,0.0,-2.8712,-3.0453,-3.2216,-3.2883,-3.27,-3.3515,-3.3086,-3.1719,-3.1973,-3.1063,-2.9091,-2.7638,-2.5029,-2.1322,0.0,0.0,0.0,0.0,-2.614,-2.7793,-2.891,-2.9627,-2.9964,-2.9451,-2.8944,-2.8476,-2.8013,-2.7009,-2.541,-2.5132,-2.4111,-2.2256,-2.0845,0.0,0.0,0.0,0.0,0.0,0.0,0.0,0.0,0.0,0.0,0.0,0.0,0.0,0.0,0.0,0.0,0.0,0.0,0.0,-1.5904,-1.6597,-1.7727,0.0,0.0,0.0,0.0,0.0,0.0,0.0,0.0,0.0,-3.2406,-3.2764,-3.3314,0.0,0.0,-3.5628,-3.468,-3.5363,-3.614,-3.6613,-3.65,0.0,-3.6632,-3.6405,-3.6215,-3.6329,-3.6727,-3.6879,-3.6405,-3.6727,-3.6898,-3.6405,-3.6519,-3.65,-3.6026,-3.4794,-3.3903,-3.3847,-3.4112,-3.4453,-3.4699,-3.4756,-3.4813,-3.8467,-3.5878,-3.4177,-3.353,-3.3616,-3.338,-3.4209,-3.567,-3.5184,-3.4585,-3.3911,-3.3063,-3.1376,-2.9077,-2.7803,0.0,0.0,0.0,-3.1511,-3.3302,-3.4095,-3.4459,-3.4488,-3.4943,-3.4629,-3.3604,-3.3325,-3.2614,-3.1495,-3.0892,-2.9075,-2.6095,0.0,0.0,-2.5577,-2.7193,-2.8489,-2.9444,-3.027,-3.0617,-3.0341,-2.9625,-2.9003,-2.8625,-2.8292,-2.7492,-2.6247,-2.5875,-2.5077,-2.3776,-2.246,-2.0864,0.0,0.0,0.0,0.0,0.0,0.0,0.0,0.0,0.0,0.0,0.0,-1.3294,0.0,0.0,0.0,0.0,-1.4888,-1.7041,-1.9445,-2.0064,0.0,0.0,0.0,0.0,0.0,0.0,0.0,-3.1195,-3.3619,-3.5344,-3.5817,-3.578,-3.5836,-3.6348,-3.6973,-3.7144,-3.65,0.0,-3.7523,-3.7845,-3.7902,-3.8035,-3.8338,-3.7997,-3.7845,-3.8319,-3.8414,-3.8395,-3.8395,-3.8395,-3.8395,-3.8395,-3.8395,-3.8395,-3.8395,-3.748,-3.6512,-3.6006,-3.631,-3.6612,-3.6547,-3.6507,-3.6486,-4.247,-4.1952,-3.7952,-3.5885,-3.5259,-3.5834,-3.6133,-3.6189,-3.6185,-3.6503,-3.6967,-3.6136,-3.5286,-3.4386,-3.257,0.0,-3.2963,-3.3486,-3.4134,-3.4963,-3.5684,-3.6012,-3.5957,-3.5939,-3.5903,-3.583,-3.4907,-3.4438,-3.4348,-3.2813,-3.1655,-3.106,-2.9781,-2.9229,-2.945,-3.0033,-3.0457,-3.0691,-3.1413,-3.138,-3.055,-2.9826,-2.9439,-2.9328,-2.853,-2.7675,-2.6896,-2.6098,-2.5318,-2.4501,-2.3722,-2.224,-1.9991,0.0,0.0,0.0,0.0,0.0,0.0,0.0,0.0,0.0,0.0,0.0,0.0,0.0,0.0,0.0,-1.8812,0.0,-2.3563,-2.4629,0.0,0.0,0.0,-2.7603,-3.0219,-3.173,-3.3015,-3.4074,0.0,0.0,-3.7788,-3.849,-3.8982,-3.8982,-3.8167,-3.7845,-3.8624,-3.8054,-3.7864,-3.8698,-3.8774,-3.9058,-3.9608,-3.97,-3.9662,-3.9719,-3.9889,-3.9794,-3.9775,-3.9816,-3.9851,-3.9775,-3.987,-3.9832,-3.9829,-3.9458,-3.9086,-3.7702,-3.7537,-3.7473,-3.7268,-3.7146,-3.6999,-4.36,-4.287,-4.1734,-4.0862,-4.0253,-4.0312,-3.9978,-3.9462,-3.9349,-3.8599,-3.7378,-3.7165,-3.649,-3.5512,-3.4902,-3.5041,-3.5802,-3.5723,-3.6161,-3.6896,-3.7094,-3.686,-3.6269,-3.6269,-3.5946,-3.5372,-3.5109,-3.5003,-3.4986,-3.4595,-3.4071,-3.352,-3.3037,-3.1743,-2.966,-3.0903,-3.1526,-3.1441,-3.1621,-3.1128,-2.9973,-2.988,-2.9551,-2.8975,-2.815,-2.7343,-2.6533,-2.5849,-2.5096,-2.4321,-2.4063,-2.3489,-2.2386,-1.9501,0.0,0.0,0.0,0.0,0.0,0.0,0.0,0.0,0.0,-1.8091,-1.4766,0.0,-1.9814,0.0,-2.23,-2.4236,-2.5344,-2.6808,0.0,0.0,-3.145,-3.2675,-3.5305,-3.5322,-3.5984,-3.8165,-3.8944,-3.9797,-4.1067,-4.1389,-4.1522,-4.1484,-4.0252,-3.9153,-3.8793,-3.9077,-3.938,-3.9551,-3.9589,-3.9683,-3.9832,-3.9889,-3.9889,-3.9889,-3.9889,-3.9889,-3.9889,-3.9889,-3.9889,-3.9889,-3.9889,-3.9826,-3.9623,-3.9551,-3.9321,-3.8782,-3.8618,-3.8592,-3.854,-3.8066,-3.7594,-4.4233,-4.3755,-4.3529,-4.322,-4.2829,-4.2072,-4.1398,-4.0855,-4.0785,-4.0068,-3.8907,-3.8907,-3.8405,-3.7499,-3.729,-3.7262,-3.73,-3.7058,-3.7166,-3.7577,-3.7577,-3.7345,-3.6934,-3.6934,-3.6684,-3.6256,-3.5899,-3.5739,-3.5721,-3.5382,-3.5057,-3.476,-3.4646,-3.3577,-3.1715,-3.2247,-3.2541,-3.2541,-3.2216,-3.166,-3.0921,-3.0301,-2.963,-2.8834,-2.8359,-2.7429,-2.5932,-2.5853,-2.5287,-2.4169,-2.4096,-2.3823,-2.312,-2.0903,-1.935,0.0,0.0,0.0,0.0,0.0,0.0,0.0,0.0,0.0,0.0,0.0,-2.3168,-2.4356,-2.645,-2.8339,-2.9789,-3.1163,-3.2693,-3.4396,-3.4924,-3.6039,-3.826,-3.805,-3.8577,-4.0741,-4.1029,-4.137,-4.228,-4.2393,-4.2393,-4.2393,-4.1616,-4.0745,-3.9968,-3.9911,-3.9889,-3.9889,-3.9889,-3.9889,-3.9889,-3.9889,-3.9889,-3.9889,-3.9889,-3.9889,-3.9889,-3.9889,-3.9848,-3.9758,-3.9735,-3.9604,-3.9338,-3.9163,-3.9036,-3.8876,-3.873,-3.8718,-3.8789,-3.8467,-3.8143,-4.4411,-4.4411,-4.4114,-4.3986,-4.3813,-4.2463,-4.1632,-4.1319,-4.1287,-4.1049,-4.065,-4.0615,-4.0199,-3.9545,-3.9372,-3.8905,-3.8239,-3.79,-3.7737,-3.7737,-3.763,-3.7577,-3.7577,-3.7577,-3.7577,-3.7541,-3.6881,-3.656,-3.6524,-3.5846,-3.5453,-3.5364,-3.5364,-3.4989,-3.424,-3.3611,-3.3388,-3.3502,-3.2829,-3.2401,-3.2292,-3.0929,-2.9784,-2.89,-2.8688,-2.7541,-2.543,-2.5867,-2.5579,-2.421,-2.4213,-2.3963,-2.3309,-2.2337,-2.1152,0.0,-1.9529,0.0,0.0,0.0,0.0,0.0,0.0,0.0,0.0,-2.5229,-2.6896,-2.898,-3.0879,-3.2824,-3.4793,-3.5892,-3.6822,-3.7618,-3.7807,-3.8509,-3.9984,-4.0211,-4.084,-4.2393,-4.2583,-4.2579,-4.2683,-4.2669,-4.2664,-4.2629,-4.2478,-4.2082,-4.1548,-4.0817,-4.0366,-4.0211,-4.0116,-4.0116,-3.9927,-3.9889,-3.9889,-3.9889,-3.9889,-3.987,-3.9826,-3.9845,-3.9739,-3.9508,-3.9433,-3.9313,-3.9027,-3.8778,-3.8615,-3.8572,-3.8387,-3.8322,-3.8478,-3.8535,-3.8496,-4.4079,-4.4097,-4.4017,-4.3873,-4.3642,-4.3365,-4.2769,-4.1992,-4.1823,-4.125,-4.0384,-4.0163,-3.9978,-3.9835,-3.9759,-3.9687,-3.9508,-3.8881,-3.8576,-3.8558,-3.7898,-3.7577,-3.7577,-3.7577,-3.7577,-3.7577,-3.7434,-3.7362,-3.7362,-3.722,-3.6809,-3.6185,-3.6185,-3.5774,-3.5007,0.0,0.0,0.0,-3.288,-3.2504,-3.1858,-3.1524,-3.0718,-2.9303,-2.8022,0.0,-2.5763,-2.536,-2.505,-2.4761,-2.5357,0.0,0.0,0.0,0.0,0.0,0.0,0.0,0.0,0.0,0.0,0.0,-2.6737,-2.6042,-2.5581,-2.9466,-3.22,-3.2657,-3.4813,-3.614,-3.5949,-3.7334,-3.8546,-3.9342,-4.0044,-4.0877,-4.1806,-4.1897,-4.2356,-4.3322,-4.3474,-4.3585,-4.389,-4.4014,-4.3895,-4.3557,-4.304,-4.2744,-4.2803,-4.2233,-4.1897,-4.1901,-4.1332,-4.0707,-4.0003,-3.9946,-4.0041,-3.9889,-3.9889,-3.9823,-3.9679,-3.9575,-3.9458,-3.9163,-3.9109,-3.8999,-3.8748,-3.8646,-3.851,-3.834,-3.8241,-3.8207,-3.8274,-3.8274,-3.8274,-4.373,0.0,-4.3442,-4.3284,0.0,-4.3014,-4.2703,-4.2248,-4.2304,-4.1901,-4.1271,-4.1171,-4.086,-4.0503,-4.0503,-4.0289,-3.9896,-3.9521,-3.9361,-3.9343,-3.8915,-3.854,-3.8183,-3.8183,-3.7987,-3.7577,-3.7577,-3.7577,-3.7577,-3.7577,-3.738,-3.6988,-3.6988,-3.6595,-3.5774,-3.4668,-3.3705,-3.2916,-3.2916,-3.2719,-3.2295,-3.1903,-3.1135,-2.9976,-2.8816,0.0,0.0,0.0,0.0,0.0,0.0,0.0,0.0,0.0,0.0,-2.5005,-2.5267,-2.5641,-2.6116,-2.6904,-2.7955,-2.9234,-3.0186,-3.0304,-2.9388,-3.2505,-3.4817,-3.5619,-3.6883,-3.7751,-3.8164,-3.8952,-3.9758,-4.054,-4.1027,-4.1616,-4.2366,-4.2535,-4.2873,-4.3632,-4.3801,-4.3915,-4.4128,-4.4154,-4.4095,-4.3924,-4.37,-4.3527,-4.3473,-4.2758,-4.2189,-4.237,-4.2109,-4.1654,-4.1275,-4.112,-4.1056,-4.0906,-4.0561,-4.0196,-3.9885,-3.9522,-3.9163,-3.8876,-3.8818,-3.8718,-3.8478,-3.8401,-3.8354,-3.8241,-3.8192,-3.8192,-3.8192,-3.8192,-3.8192,-4.3426,-4.316,-4.292,-4.275,-4.2673,-4.2454,-4.2369,-4.2328,0.0,0.0,0.0,-4.2287,-4.1912,-4.1306,-4.1306,-4.0949,-4.0342,-4.0182,-4.0128,-4.011,-3.9968,-3.9593,-3.9022,-3.9004,-3.8594,-3.7809,-3.7809,-3.7719,-3.7577,-3.7577,-3.7577,-3.7577,-3.7577,-3.7202,-3.6363,-3.515,-3.4097,-3.3312,-3.3009,-3.2916,-3.2898,-3.2242,-3.1528,-3.0743,-2.9993,-2.8905,-2.7496,-2.7424,-2.7121,-2.6478,-2.6568,-2.6637,-2.6698,-2.7271,-2.7629,-2.7723,-2.8945,-2.9482,-2.898,-3.0202,-3.0869,-3.0456,-3.2762,-3.4101,-3.3759,-3.4995,-3.6366,-3.7858,-3.8118,-3.8748,-4.0065,-4.0325,-4.0733,-4.1549,-4.1642,-4.1957,-4.2786,-4.2897,-4.3188,-4.3751,-4.3906,-4.3862,-4.3799,-4.3799,-4.3786,-4.3754,-4.3825,-4.4076,-4.3745,-4.2994,-4.2423,-4.2454,-4.2404,-4.2353,-4.2208,-4.207,-4.2096,-4.1721,-4.1207,-4.0726,-4.0364,-3.9785,-3.928,-3.9103,-3.8962,-3.8907,-3.8694,-3.8751,-3.8554,-3.8427,-3.8391,-3.8337,-3.8228,-3.8192,-3.8192,-4.3426,-4.3196,-4.316,-4.2957,-4.2693,-4.2673,-4.2494,-4.2287,-4.2369,-4.2328,-4.2287,-4.2287,-4.2234,-4.2109,-4.2126,-4.2055,-4.1912,-4.1252,-4.0931,-4.0895,-4.0235,-3.986,-3.9771,-3.9753,-3.9361,-3.8665,-3.8647,-3.8272,-3.7648,-3.7577,-3.7577,-3.7577,-3.7577,-3.7202,-3.6435,-3.6185,-3.5685,-3.4865,-3.3562,-3.2916,-3.2916,-3.2809,-3.2331,-3.1546,-3.0761,-2.9976,-2.9101,-2.9066,-2.9012,-2.8905,-2.9494,-2.9565,-2.9005,-2.9583,-2.9744,-2.9201,-3.0009,-3.0754,-3.1255,-3.1667,-3.2379,-3.3602,-3.5271,-3.6508,-3.7081,-3.7302,-3.7821,-3.8655,-3.9293,-3.9878,-4.0174,-4.0755,-4.1496,-4.2365,-4.2514,-4.2841,-4.3553,-4.3645,-4.3682,-4.3812,-4.3862,-4.3754,-4.3523,-4.3456,-4.3371,-4.3142,-4.3249,-4.3249,-4.3471,-4.3569,-4.3311,-4.2832,-4.2646,-4.2348,-4.1977,-4.1585,-4.1696,-4.1471,-4.1434,-4.1215,-4.0933,-4.0666,-4.0423,-4.0251,-4.009,-4.0109,-4.0075,-4.0184,-3.984,-3.9351,-3.9224,-3.9025,-3.8464,-3.8282,-3.8246,-4.2957,-4.2709,-4.2709,-4.2613,-4.2494,-4.2512,-4.2391,-4.2287,-4.2287,-4.2287,-4.2287,-4.2287,-4.2287,-4.2287,-4.2287,-4.2287,-4.2269,-4.1895,-4.1752,-4.1716,-4.1359,-4.0967,-4.0574,-4.0556,-4.0164,-3.9414,-3.8986,-3.8611,-3.8237,-3.7809,-3.7577,-3.7577,-3.7577,-3.7434,-3.7041,-3.6613,-3.6221,-3.5828,-3.4329,-3.3544,-3.3544,-3.3116,-3.2719,-3.2362,-3.1564,-3.1011,-3.0654,-3.0243,-2.9993,-3.0011,-3.0332,-3.035,-3.0047,-3.0725,-3.0993,-3.0689,-3.1433,-3.2036,-3.2358,-3.2872,-3.3834,-3.539,-3.6231,-3.6994,-3.7781,-3.7849,-3.8191,-3.8958,-3.9429,-4.0014,-4.0851,-4.1309,-4.1857,-4.2732,-4.2805,-4.2951,-4.3279,-4.3371,-4.3371,-4.3371,-4.3353,-4.3301,-4.3142,-4.3124,-4.3087,-4.292,-4.29,-4.3032,-4.3336,-4.3371,-4.3379,-4.3354,-4.3342,-4.3194,-4.2804,-4.2767,-4.2674,-4.2548,-4.2129,-4.1746,-4.1407,-4.1119,-4.0741,-4.0545,-4.0528,-4.051,-4.0528,-4.051,-4.0329,-4.0166,-4.0003,-3.9677,-3.9079,-3.8844,-3.8699,-4.2534,-4.2287,-4.2287,-4.2287,-4.2287,-4.2287,-4.2287,-4.2287,-4.2287,-4.2287,-4.2287,-4.2287,-4.2287,-4.2287,-4.2287,-4.2287,-4.2287,-4.2287,-4.2287,-4.2287,-4.2287,-4.1966,-4.1413,-4.1359,-4.0949,-4.0199,-3.9575,-3.9147,-3.8772,-3.8165,-3.7755,-3.7612,-3.7577,-3.7577,-3.7577,-3.697,-3.6667,-3.6577,-3.5311,-3.4526,-3.4329,-3.3562,-3.3184,-3.3116,-3.2384,-3.1956,-3.192,-3.1367,-3.1046,-3.1046,-3.1046,-3.1046,-3.1064,-3.1617,-3.1956,-3.2028,-3.2706,-3.3241,-3.3437,-3.4151,-3.5166,-3.6433,-3.6719,-3.7094,-3.7739,-3.799,-3.8402,-3.9067,-3.9355,-4.0077,-4.1343,-4.1849,-4.2193,-4.2828,-4.29,-4.2902,-4.2938,-4.29,-4.29,-4.29,-4.29,-4.2938,-4.29,-4.29,-4.29,-4.2938,-4.29,-4.3032,-4.3213,-4.305,-4.3142,-4.3474,-4.3689,-4.3601,-4.3689,-4.3582,-4.345,-4.3301,-4.2789,-4.232,-4.1996,-4.1433,-4.1126,-4.118,-4.1126,-4.118,-4.1107,-4.1107,-4.1035,-4.089,-4.0782,-4.0546,-3.9822,-3.9659,-3.9387,-4.2516,-4.2328,-4.2287,-4.2287,-4.2287,-4.2287,-4.2287,-4.2287,-4.2287,-4.2287,-4.2287,-4.2287,-4.2287,-4.2287,-4.2287,-4.2287,-4.2287,-4.2287,-4.2287,-4.2287,-4.2287,-4.2234,-4.2144,-4.2162,-4.177,-4.1056,-4.0877,-4.011,-3.8968,-3.8736,-3.8308,-3.7666,-3.7577,-3.7577,-3.7559,-3.7505,-3.747,-3.7452,-3.6613,-3.5846,-3.5114,-3.4383,-3.399,-3.399,-3.3205,-3.2777,-3.2809,-3.2688,-3.267,-3.2684,-3.2652,-3.2684,-3.2652,-3.2741,-3.2777,-3.2844,-3.3544,-3.4276,-3.4954,-3.5739,-3.6221,-3.6435,-3.7113,-3.7524,-3.7667,-3.8292,-3.8813,-3.9175,-3.9715,-4.0562,-4.1502,-4.2244,-4.268,-4.2846,-4.29,-4.29,-4.29,-4.29,-4.29,-4.29,-4.29,-4.29,-4.29,-4.29,-4.29,-4.29,-4.29,-4.292,-4.2995,-4.2957,-4.292,-4.3032,-4.3014,-4.3014,-4.305,-4.2995,-4.305,-4.2976,-4.2903,-4.2758,-4.263,-4.2611,-4.2629,-4.2212,-4.2484,-4.2429,-4.2484,-4.2647,-4.2321,-4.1723,-4.1506,-4.1288,-4.0655,-4.0419,-4.013,-4.2391,-4.2287,-4.2287,-4.2287,-4.2287,-4.2287,-4.2287,-4.2287,-4.2287,-4.2287,-4.2287,-4.2287,-4.2287,-4.2287,-4.2287,-4.2287,-4.2287,-4.2287,-4.2287,-4.2287,-4.2287,-4.2287,-4.2287,-4.2287,-4.2109,-4.177,-4.1341,-4.0788,-4.011,-3.9272,-3.838,-3.7666,-3.7577,-3.7577,-3.7577,-3.7577,-3.7577,-3.7577,-3.7273,-3.6934,-3.6524,-3.54,-3.4775,-3.4722,-3.4418,-3.4044,-3.3705,-3.4008,-3.383,-3.3045,-3.3758,-3.4062,-3.3633,-3.4008,-3.4258,-3.4276,-3.4561,-3.5096,-3.5864,-3.6221,-3.6613,-3.7059,-3.738,-3.7577,-3.7612,-3.8344,-3.9062,-3.9768,-4.047,-4.1299,-4.217,-4.2662,-4.288,-4.2882,-4.29,-4.29,-4.29,-4.29,-4.29,-4.29,-4.29,-4.29,-4.29,-4.29,-4.29,-4.29,-4.29,-4.29,-4.29,-4.29,-4.29,-4.29,-4.29,-4.29,-4.29,-4.29,-4.29,-4.29,-4.29,-4.29,-4.29,-4.29,-4.2882,-4.29,-4.29,-4.29,-4.281,-4.29,-4.2737,-4.2339,-4.1904,-4.156,-4.127,-4.1234,-4.1053,-4.2287,-4.2287,-4.2287,-4.2287,-4.2287,-4.2287,-4.2287,-4.2287,-4.2287,-4.2287,-4.2287,-4.2287,-4.2287,-4.2287,-4.2287,-4.2287,-4.2287,-4.2287,-4.2287,-4.2287,-4.2287,-4.2287,-4.2287,-4.2287,-4.2287,-4.2198,-4.1716,-4.1306,-4.0967,-3.9557,-3.8504,-3.7969,-3.7702,-3.7577,-3.7577,-3.7577,-3.7577,-3.7577,-3.7577,-3.7577,-3.7416,-3.6453,-3.5757,-3.5543,-3.5311,-3.4954,-3.4472,-3.4918,-3.4704,-3.3633,-3.4633,-3.4972,-3.449,-3.4918,-3.5311,-3.5507,-3.5525,-3.5882,-3.6649,-3.6738,-3.6988,-3.7487,-3.7577,-3.7684,-3.8005,-3.8647,-3.9508,-4.043,-4.124,-4.2055,-4.2678,-4.2862,-4.29,-4.29,-4.29,-4.29,-4.29,-4.29,-4.29,-4.29,-4.29,-4.29,-4.29,-4.29,-4.29,-4.29,-4.29,-4.29,-4.29,-4.29,-4.29,-4.29,-4.29,-4.29,-4.29,-4.29,-4.29,-4.29,-4.29,-4.29,-4.29,-4.29,-4.29,-4.29,-4.29,-4.29,-4.29,-4.29,-4.29,-4.2774,-4.2429,-4.2031,-4.2031,-4.2031,-4.2031,-4.2287,-4.2287,-4.2287,-4.2287,-4.2287,-4.2287,-4.2287,-4.2287,-4.2287,-4.2287,-4.2287,-4.2287,-4.2287,-4.2287,-4.2287,-4.2287,-4.2287,-4.2287,-4.2287,-4.2287,-4.2287,-4.2287,-4.2287,-4.2287,-4.2287,-4.2287,-4.2198,-4.1787,-4.1038,-3.9629,-3.879,-3.8701,-3.8023,-3.7612,-3.7577,-3.7577,-3.7577,-3.7577,-3.7577,-3.7577,-3.7577,-3.7487,-3.7041,-3.6363,-3.565,-3.5293,-3.5186,-3.5204,-3.5168,-3.5079,-3.5221,-3.5239,-3.5168,-3.5239,-3.5632,-3.6238,-3.6345,-3.6684,-3.7362,-3.7452,-3.7505,-3.7577,-3.7648,-3.7916,-3.8611,-3.9414,-4.0164,-4.0989,-4.1862,-4.2598,-4.2826,-4.2882,-4.29,-4.29,-4.29,-4.29,-4.29,-4.29,-4.29,-4.29,-4.29,-4.29,-4.29,-4.29,-4.29,-4.29,-4.29,-4.29,-4.29,-4.29,-4.29,-4.29,-4.29,-4.29,-4.29,-4.29,-4.29,-4.29,-4.29,-4.29,-4.29,-4.29,-4.29,-4.29,-4.29,-4.29,-4.29,-4.29,-4.29,-4.2864,-4.2846,-4.2665,-4.2538,-4.2737,-4.2625,-4.2287,-4.2287,-4.2287,-4.2287,-4.2287,-4.2287,-4.2287,-4.2287,-4.2287,-4.2287,-4.2287,-4.2287,-4.2287,-4.2287,-4.2287,-4.2287,-4.2287,-4.2287,-4.2287,-4.2287,-4.2287,-4.2287,-4.2287,-4.2287,-4.2287,-4.2287,-4.2287,-4.1895,-4.1145,-4.0521,-3.9753,-3.8897,-3.854,-3.813,-3.7684,-3.7577,-3.7577,-3.7577,-3.7577,-3.7577,-3.7577,-3.7577,-3.7434,-3.7166,-3.6881,-3.6488,-3.5971,-3.6453,-3.6274,-3.5275,-3.6167,-3.6488,-3.6078,-3.647,-3.6845,-3.7113,-3.7148,-3.7291,-3.7541,-3.7577,-3.7577,-3.7612,-3.8076,-3.8469,-3.895,-3.9932,-4.0846,-4.1318,-4.2063,-4.2652,-4.2804,-4.2862,-4.29,-4.29,-4.29,-4.29,-4.29,-4.29,-4.29,-4.29,-4.29,-4.29,-4.29,-4.29,-4.29,-4.29,-4.29,-4.29,-4.29,-4.29,-4.29,-4.29,-4.29,-4.29,-4.29,-4.29,-4.29,-4.29,-4.29,-4.29,-4.29,-4.29,-4.29,-4.29,-4.29,-4.29,-4.29,-4.29,-4.29,-4.29,-4.29,-4.29,-4.29,-4.2711,-4.2537,-4.2287,-4.2287,-4.2287,-4.2287,-4.2287,-4.2287,-4.2287,-4.2287,-4.2287,-4.2287,-4.2287,-4.2287,-4.2287,-4.2287,-4.2287,-4.2287,-4.2287,-4.2287,-4.2287,-4.2287,-4.2287,-4.2287,-4.2287,-4.2287,-4.2287,-4.2287,-4.2287,-4.1966,-4.152,-4.1234,-4.0556,-3.9611,-3.9325,-3.8915,-3.838,-3.8112,-3.7987,-3.7951,-3.7719,-3.7577,-3.7577,-3.7577,-3.7577,-3.7577,-3.7577,-3.7345,-3.6809,-3.7309,-3.7148,-3.6292,-3.7041,-3.7345,-3.6916,-3.7291,-3.7577,-3.7577,-3.7577,-3.7577,-3.7577,-3.7577,-3.7702,-3.7969,-3.8469,-3.895,-3.9521,-4.0521,-4.1167,-4.1658,-4.2149,-4.2627,-4.2727,-4.2786,-4.2862,-4.29,-4.29,-4.29,-4.29,-4.29,-4.29,-4.29,-4.29,-4.29,-4.29,-4.29,-4.29,-4.29,-4.29,-4.29,-4.29,-4.29,-4.29,-4.29,-4.29,-4.29,-4.29,-4.29,-4.29,-4.29,-4.29,-4.29,-4.29,-4.29,-4.29,-4.29,-4.29,-4.29,-4.2862,-4.288,-4.2862,-4.2824,-4.288,-4.2842,-4.2691,-4.2418,-4.2198,-4.2287,-4.2287,-4.2287,-4.2287,-4.2287,-4.2287,-4.2287,-4.2287,-4.2287,-4.2287,-4.2287,-4.2287,-4.2287,-4.2287,-4.2287,-4.2287,-4.2287,-4.2287,-4.2287,-4.2287,-4.2287,-4.2287,-4.2287,-4.2287,-4.2287,-4.2287,-4.2287,-4.2269,-4.2162,-4.1538,-4.1109,-4.0895,-4.0235,-3.9843,-3.9843,-3.9129,-3.8808,-3.8683,-3.8112,-3.7684,-3.7594,-3.7612,-3.7577,-3.7577,-3.7577,-3.7559,-3.7505,-3.7577,-3.7523,-3.747,-3.7505,-3.7577,-3.7487,-3.7577,-3.7577,-3.7577,-3.7577,-3.7577,-3.7577,-3.7648,-3.8041,-3.8576,-3.8861,-3.9575,-4.061,-4.1074,-4.1484,-4.2078,-4.2374,-4.2526,-4.2627,-4.2727,-4.2822,-4.29,-4.2882,-4.29,-4.29,-4.29,-4.29,-4.29,-4.29,-4.29,-4.29,-4.29,-4.29,-4.29,-4.29,-4.29,-4.29,-4.29,-4.29,-4.29,-4.29,-4.29,-4.29,-4.29,-4.29,-4.29,-4.29,-4.29,-4.29,-4.29,-4.29,-4.2862,-4.2824,-4.2786,-4.2573,-4.2534,-4.2476,-4.2476,-4.2613,-4.2534,-4.2257,-4.1931,-4.1778,-4.2287,-4.2287,-4.2287,-4.2287,-4.2287,-4.2287,-4.2287,-4.2287,-4.2287,-4.2287,-4.2287,-4.2287,-4.2287,-4.2287,-4.2287,-4.2287,-4.2287,-4.2287,-4.2287,-4.2287,-4.2287,-4.2287,-4.2287,-4.2287,-4.2287,-4.2287,-4.2287,-4.2287,-4.2234,-4.2019,-4.168,-4.1145,-4.086,-4.0431,-3.9985,-3.9682,-3.9575,-3.9486,-3.8826,-3.8433,-3.8362,-3.7862,-3.7594,-3.7577,-3.7577,-3.7577,-3.7577,-3.7577,-3.7577,-3.7577,-3.7577,-3.7577,-3.7577,-3.7577,-3.7577,-3.7577,-3.7577,-3.7577,-3.7666,-3.8112,-3.8487,-3.895,-3.9736,-4.0503,-4.1074,-4.1609,-4.1966,-4.2269,-4.2405,-4.2503,-4.2526,-4.2609,-4.2688,-4.2804,-4.2862,-4.29,-4.2862,-4.2862,-4.29,-4.29,-4.29,-4.29,-4.29,-4.29,-4.29,-4.29,-4.29,-4.29,-4.29,-4.29,-4.29,-4.29,-4.29,-4.29,-4.29,-4.29,-4.29,-4.29,-4.29,-4.29,-4.29,-4.29,-4.2862,-4.2747,-4.2709,-4.2534,-4.2292,-4.2151,-4.2032,-4.1846,-4.17,-4.1656,-4.1569,-4.1437,-4.1185,-4.2287,-4.2287,-4.2287,-4.2287,-4.2287,-4.2287,-4.2287,-4.2287,-4.2287,-4.2287,-4.2287,-4.2287,-4.2287,-4.2287,-4.2287,-4.2287,-4.2287,-4.2287,-4.2287,-4.2287,-4.2287,-4.2287,-4.2287,-4.2287,-4.2287,-4.2287,-4.2287,-4.2287,-4.2287,-4.2269,-4.2019,-4.1627,-4.1556,-4.1324,-4.0788,-4.0503,-4.036,-4.0253,-3.9611,-3.9093,-3.8772,-3.8308,-3.788,-3.7648,-3.7577,-3.7577,-3.7577,-3.7577,-3.7577,-3.7577,-3.7577,-3.7577,-3.7577,-3.7577,-3.7577,-3.7577,-3.7577,-3.7577,-3.7666,-3.8308,-3.8968,-3.9361,-4.0396,-4.1234,-4.152,-4.2091,-4.2269,-4.2328,-4.2387,-4.2427,-4.2508,-4.2588,-4.2667,-4.2783,-4.2842,-4.288,-4.2842,-4.2862,-4.2882,-4.29,-4.29,-4.29,-4.29,-4.29,-4.29,-4.29,-4.29,-4.29,-4.29,-4.29,-4.29,-4.29,-4.29,-4.29,-4.29,-4.29,-4.29,-4.29,-4.29,-4.29,-4.29,-4.29,-4.2862,-4.2458,-4.2338,-4.199,-4.1735,-4.1587,-4.1437,-4.115,-4.0949,-4.1105,-4.115,-4.0685,-4.048,-4.2287,-4.2287,-4.2287,-4.2287,-4.2287,-4.2287,-4.2287,-4.2287,-4.2287,-4.2287,-4.2287,-4.2287,-4.2287,-4.2287,-4.2287,-4.2287,-4.2287,-4.2287,-4.2287,-4.2287,-4.2287,-4.2287,-4.2287,-4.2287,-4.2287,-4.2287,-4.2287,-4.2287,-4.2287,-4.2287,-4.2287,-4.2198,-4.2162,-4.2251,-4.1948,-4.1484,-4.1163,-4.1056,-4.0378,-3.9682,-3.9075,-3.879,-3.8451,-3.7755,-3.763,-3.7577,-3.7577,-3.7577,-3.7577,-3.7577,-3.7577,-3.7577,-3.7577,-3.7577,-3.7577,-3.7577,-3.7577,-3.7702,-3.7809,-3.854,-3.9289,-3.9968,-4.0788,-4.1466,-4.2091,-4.2216,-4.2287,-4.2287,-4.2346,-4.2427,-4.253,-4.2609,-4.2649,-4.2783,-4.2804,-4.2842,-4.29,-4.29,-4.29,-4.29,-4.29,-4.29,-4.29,-4.29,-4.29,-4.29,-4.29,-4.29,-4.29,-4.29,-4.29,-4.29,-4.29,-4.29,-4.29,-4.29,-4.29,-4.29,-4.29,-4.29,-4.2862,-4.2862,-4.2691,-4.2297,-4.1888,-4.1525,-4.1168,-4.0984,-4.078,-4.0559,-4.0542,-4.078,-4.059,-4.0086,-3.9952,-4.2287,-4.2287,-4.2287,-4.2287,-4.2287,-4.2287,-4.2287,-4.2287,-4.2287,-4.2287,-4.2287,-4.2287,-4.2287,-4.2287,-4.2287,-4.2287,-4.2287,-4.2287,-4.2287,-4.2287,-4.2287,-4.2287,-4.2287,-4.2287,-4.2287,-4.2287,-4.2287,-4.2287,-4.2287,-4.2287,-4.2287,-4.2287,-4.2287,-4.2287,-4.2216,-4.2055,-4.2002,-4.1859,-4.1181,-4.0717,-4.0324,-3.9343,-3.8736,-3.8504,-3.7916,-3.763,-3.7577,-3.7577,-3.7577,-3.7577,-3.7577,-3.7577,-3.7577,-3.7577,-3.7577,-3.7577,-3.7594,-3.788,-3.8469,-3.9165,-3.995,-4.0753,-4.1448,-4.2055,-4.2234,-4.2287,-4.2287,-4.2328,-4.2387,-4.2427,-4.2409,-4.253,-4.2649,-4.2783,-4.2783,-4.2842,-4.29,-4.29,-4.29,-4.29,-4.29,-4.29,-4.29,-4.29,-4.29,-4.29,-4.29,-4.29,-4.29,-4.29,-4.29,-4.29,-4.29,-4.29,-4.29,-4.29,-4.29,-4.29,-4.29,-4.2844,-4.2824,-4.2804,-4.2494,-4.211,-4.163,-4.1258,-4.0655,-4.0285,-4.0086,-3.9952,-3.9919,-3.9969,-3.9833,-3.9504,-3.9556,-4.2287,-4.2287,-4.2287,-4.2287,-4.2287,-4.2287,-4.2287,-4.2287,-4.2287,-4.2287,-4.2287,-4.2287,-4.2287,-4.2287,-4.2287,-4.2287,-4.2287,-4.2287,-4.2287,-4.2287,-4.2287,-4.2287,-4.2287,-4.2287,-4.2287,-4.2287,-4.2287,-4.2287,-4.2287,-4.2287,-4.2287,-4.2287,-4.2287,-4.2287,-4.2287,-4.2287,-4.2287,-4.2198,-4.1787,-4.1466,-4.102,-4.0253,-3.9414,-3.895,-3.8308,-3.8005,-3.7666,-3.7577,-3.7577,-3.7577,-3.7577,-3.7577,-3.7577,-3.7577,-3.7577,-3.7577,-3.7577,-3.7951,-3.8736,-3.9504,-4.0253,-4.1038,-4.1841,-4.2216,-4.2287,-4.2287,-4.2287,-4.2328,-4.2387,-4.2387,-4.2427,-4.2588,-4.2727,-4.2804,-4.2842,-4.2862,-4.29,-4.29,-4.29,-4.29,-4.29,-4.29,-4.29,-4.29,-4.29,-4.29,-4.29,-4.29,-4.29,-4.29,-4.29,-4.29,-4.2862,-4.288,-4.2842,-4.2842,-4.2747,-4.2747,-4.2691,-4.2673,-4.2458,-4.2396,-4.199,-4.1561,-4.1276,-4.0891,-4.0252,-3.9731,-3.9644,-3.9504,-3.9325,-3.9288,-3.9288,-3.9288,-3.9288,-4.2287,-4.2287,-4.2287,-4.2287,-4.2287,-4.2287,-4.2287,-4.2287,-4.2287,-4.2287,-4.2287,-4.2287,-4.2287,-4.2287,-4.2287,-4.2287,-4.2287,-4.2287,-4.2287,-4.2287,-4.2287,-4.2287,-4.2287,-4.2287,-4.2287,-4.2287,-4.2287,-4.2287,-4.2287,-4.2287,-4.2287,-4.2287,-4.2287,-4.2287,-4.2287,-4.2287,-4.2287,-4.2287,-4.2216,-4.1877,-4.1413,-4.0985,-4.0324,-3.945,-3.8826,-3.8308,-3.7791,-3.7577,-3.7577,-3.7577,-3.7577,-3.7648,-3.7684,-3.7737,-3.7844,-3.7969,-3.8112,-3.838,-3.9022,-3.986,-4.0431,-4.127,-4.1948,-4.2269,-4.2287,-4.2287,-4.2287,-4.2287,-4.231,-4.2387,-4.2468,-4.2667,-4.2745,-4.2804,-4.2844,-4.2862,-4.2882,-4.2882,-4.29,-4.29,-4.29,-4.29,-4.29,-4.29,-4.29,-4.29,-4.29,-4.29,-4.29,-4.29,-4.29,-4.29,-4.288,-4.2822,-4.2783,-4.2745,-4.2609,-4.2512,-4.2414,-4.2257,-4.1828,-4.1613,-4.1213,-4.0908,-4.075,-4.0334,-3.9696,-3.9379,-3.9325,-3.9325,-3.9342,-3.9288,-3.9288,-3.9288,-3.9288,-4.2287,-4.2287,-4.2287,-4.2287,-4.2287,-4.2287,-4.2287,-4.2287,-4.2287,-4.2287,-4.2287,-4.2287,-4.2287,-4.2287,-4.2287,-4.2287,-4.2287,-4.2287,-4.2287,-4.2287,-4.2287,-4.2287,-4.2287,-4.2287,-4.2287,-4.2287,-4.2287,-4.2287,-4.2287,-4.2287,-4.2287,-4.2287,-4.2287,-4.2287,-4.2287,-4.2287,-4.2287,-4.2287,-4.2287,-4.2198,-4.193,-4.1431,-4.0967,-4.0396,-3.9432,-3.8469,-3.7773,-3.7577,-3.7577,-3.7577,-3.7684,-3.8005,-3.8362,-3.8522,-3.8754,-3.9111,-3.9307,-3.97,-4.0431,-4.0699,-4.1163,-4.1859,-4.2126,-4.2287,-4.2287,-4.2287,-4.2287,-4.2328,-4.2387,-4.2486,-4.2548,-4.2566,-4.2645,-4.2688,-4.267,-4.2709,-4.2804,-4.288,-4.29,-4.29,-4.29,-4.29,-4.29,-4.29,-4.29,-4.29,-4.29,-4.29,-4.29,-4.29,-4.29,-4.29,-4.288,-4.2822,-4.2745,-4.2627,-4.2391,-4.221,-4.2068,-4.1735,-4.1258,-4.1105,-4.0844,-4.0559,-4.0317,-3.9817,-3.9379,-3.9288,-3.9325,-3.9342,-3.9288,-3.9288,-3.9288,-3.9288,-3.9288,-4.2287,-4.2287,-4.2287,-4.2287,-4.2287,-4.2287,-4.2287,-4.2287,-4.2287,-4.2287,-4.2287,-4.2287,-4.2287,-4.2287,-4.2287,-4.2287,-4.2287,-4.2287,-4.2287,-4.2287,-4.2287,-4.2287,-4.2287,-4.2287,-4.2287,-4.2287,-4.2287,-4.2287,-4.2287,-4.2287,-4.2287,-4.2287,-4.2287,-4.2287,-4.2287,-4.2287,-4.2287,-4.2287,-4.2287,-4.2287,-4.218,-4.1895,-4.1395,-4.1002,-3.9968,-3.9075,-3.8772,-3.8701,-3.8701,-3.8665,-3.8665,-3.8665,-3.8843,-3.9129,-3.9539,-3.9807,-3.9914,-4.0289,-4.0877,-4.1163,-4.1413,-4.2216,-4.2287,-4.2287,-4.2287,-4.2287,-4.2287,-4.2328,-4.2346,-4.2445,-4.2526,-4.2544,-4.2566,-4.2667,-4.2627,-4.2649,-4.2745,-4.2765,-4.2824,-4.2862,-4.288,-4.2862,-4.29,-4.29,-4.29,-4.29,-4.29,-4.29,-4.29,-4.29,-4.29,-4.29,-4.288,-4.2804,-4.2688,-4.2512,-4.221,-4.1984,-4.1753,-4.1185,-4.0607,-4.0559,-4.0607,-4.0235,-3.9868,-3.9679,-3.9325,-3.9325,-3.9288,-3.9288,-3.9288,-3.9288,-3.9288,-3.9288,-3.9288,-4.2287,-4.2287,-4.2287,-4.2287,-4.2287,-4.2287,-4.2287,-4.2287,-4.2287,-4.2287,-4.2287,-4.2287,-4.2287,-4.2287,-4.2287,-4.2287,-4.2287,-4.2287,-4.2287,-4.2287,-4.2287,-4.2287,-4.2287,-4.2287,-4.2287,-4.2287,-4.2287,-4.2287,-4.2287,-4.2287,-4.2287,-4.2287,-4.2287,-4.2287,-4.2287,-4.2287,-4.2287,-4.2287,-4.2287,-4.2287,-4.2287,-4.2198,-4.1823,-4.1074,-4.0538,-3.995,-3.9736,-3.97,-3.9789,-3.9914,-4.0039,-3.9753,-3.9521,-3.9664,-4.0217,-4.0271,-4.0467,-4.0806,-4.127,-4.1413,-4.1663,-4.2269,-4.2287,-4.2287,-4.2287,-4.2287,-4.2287,-4.2328,-4.2346,-4.2387,-4.2503,-4.2544,-4.2606,-4.2685,-4.2649,-4.2667,-4.2745,-4.2688,-4.2688,-4.2824,-4.2862,-4.2862,-4.2862,-4.29,-4.29,-4.2862,-4.2862,-4.2862,-4.2862,-4.2862,-4.2824,-4.2824,-4.2804,-4.2494,-4.2333,-4.1924,-4.1709,-4.1428,-4.1202,-4.072,-4.0053,-4.002,-3.9969,-3.9696,-3.9415,-3.9325,-3.9325,-3.9325,-3.9288,-3.9288,-3.9288,-3.9288,-3.9288,-3.9288,-3.9288,-4.2287,-4.2287,-4.2287,-4.2287,-4.2287,-4.2287,-4.2287,-4.2287,-4.2287,-4.2287,-4.2287,-4.2287,-4.2287,-4.2287,-4.2287,-4.2287,-4.2287,-4.2287,-4.2287,-4.2287,-4.2287,-4.2287,-4.2287,-4.2287,-4.2287,-4.2287,-4.2287,-4.2287,-4.2287,-4.2287,-4.2287,-4.2287,-4.2287,-4.2287,-4.2287,-4.2287,-4.2287,-4.2287,-4.2287,-4.2287,-4.2287,-4.2234,-4.1984,-4.1288,-4.0985,-4.0663,-4.0146,-3.9968,-3.9896,-3.9968,-4.0556,-4.0753,-4.0699,-4.0806,-4.1163,-4.1538,-4.1663,-4.1716,-4.1912,-4.2037,-4.2109,-4.2251,-4.2287,-4.2287,-4.2287,-4.2287,-4.2287,-4.2346,-4.2405,-4.2463,-4.2521,-4.2566,-4.2588,-4.2627,-4.2606,-4.2606,-4.2724,-4.2667,-4.2627,-4.2804,-4.2842,-4.2862,-4.2862,-4.2824,-4.2842,-4.2804,-4.2747,-4.2652,-4.2573,-4.2631,-4.2631,-4.2688,-4.2745,-4.2333,-4.1924,-4.1383,-4.099,-4.0672,-4.0431,-4.0203,-3.9731,-3.952,-3.9325,-3.9342,-3.9288,-3.9325,-3.9325,-3.9288,-3.9288,-3.9288,-3.9288,-3.9288,-3.9288,-3.9288,-3.9288,-4.2287,-4.2287,-4.2287,-4.2287,-4.2287,-4.2287,-4.2287,-4.2287,-4.2287,-4.2287,-4.2287,-4.2287,-4.2287,-4.2287,-4.2287,-4.2287,-4.2287,-4.2287,-4.2287,-4.2287,-4.2287,-4.2287,-4.2287,-4.2287,-4.2287,-4.2287,-4.2287,-4.2287,-4.2287,-4.2287,-4.2287,-4.2287,-4.2287,-4.2287,-4.2287,-4.2287,-4.2287,-4.2287,-4.2287,-4.2287,-4.2287,-4.2287,-4.2019,-4.1841,-4.168,-4.1502,-4.1288,-4.1145,-4.1163,-4.1252,-4.152,-4.168,-4.1698,-4.1734,-4.1877,-4.2198,-4.2287,-4.2287,-4.2287,-4.2287,-4.2269,-4.2269,-4.2287,-4.2287,-4.2287,-4.2287,-4.2287,-4.2328,-4.2405,-4.2521,-4.2521,-4.2548,-4.2609,-4.2667,-4.2606,-4.2606,-4.2724,-4.2627,-4.2667,-4.2802,-4.2822,-4.2842,-4.2842,-4.2804,-4.2783,-4.2706,-4.2649,-4.2512,-4.2333,-4.2333,-4.2374,-4.205,-4.199,-4.1717,-4.1321,-4.0926,-4.0466,-4.012,-3.9868,-3.9679,-3.9487,-3.9379,-3.9342,-3.9342,-3.9288,-3.9288,-3.9288,-3.9288,-3.9288,-3.9288,-3.9288,-3.9288,-3.9288,-3.9288,-3.9288,-4.2287,-4.2287,-4.2287,-4.2287,-4.2287,-4.2287,-4.2287,-4.2287,-4.2287,-4.2287,-4.2287,-4.2287,-4.2287,-4.2287,-4.2287,-4.2287,-4.2287,-4.2287,-4.2287,-4.2287,-4.2287,-4.2287,-4.2287,-4.2287,-4.2287,-4.2287,-4.2287,-4.2287,-4.2287,-4.2287,-4.2287,-4.2287,-4.2287,-4.2287,-4.2287,-4.2287,-4.2287,-4.2287,-4.2287,-4.2287,-4.2287,-4.2287,-4.2287,-4.2287,-4.2287,-4.2234,-4.2091,-4.2073,-4.2091,-4.2109,-4.2198,-4.2251,-4.2269,-4.2287,-4.2287,-4.2287,-4.2287,-4.2287,-4.2287,-4.2287,-4.2287,-4.2287,-4.2287,-4.2287,-4.2287,-4.2287,-4.231,-4.2328,-4.2427,-4.2544,-4.2606,-4.2627,-4.2727,-4.2727,-4.2667,-4.2606,-4.2745,-4.2727,-4.2727,-4.2765,-4.2822,-4.2822,-4.2842,-4.2727,-4.2688,-4.2609,-4.257,-4.245,-4.2269,-4.2008,-4.1864,-4.1348,-4.1059,-4.0874,-4.0655,-4.0497,-4.0087,-3.9799,-3.9696,-3.9556,-3.9415,-3.9325,-3.9288,-3.9288,-3.9288,-3.9288,-3.9288,-3.9288,-3.9288,-3.9288,-3.9288,-3.9288,-3.9288,-3.9288,-3.9288,-4.2287,-4.2287,-4.2287,-4.2287,-4.2287,-4.2287,-4.2287,-4.2287,-4.2287,-4.2287,-4.2287,-4.2287,-4.2287,-4.2287,-4.2287,-4.2287,-4.2287,-4.2287,-4.2287,-4.2287,-4.2287,-4.2287,-4.2287,-4.2287,-4.2287,-4.2287,-4.2287,-4.2287,-4.2287,-4.2287,-4.2287,-4.2287,-4.2287,-4.2287,-4.2287,-4.2287,-4.2287,-4.2287,-4.2287,-4.2287,-4.2287,-4.2287,-4.2287,-4.2287,-4.2287,-4.2287,-4.2287,-4.2287,-4.2287,-4.2287,-4.2287,-4.2287,-4.2287,-4.2287,-4.2287,-4.2287,-4.2287,-4.2287,-4.2287,-4.2287,-4.2287,-4.2287,-4.2287,-4.2287,-4.2287,-4.2287,-4.2328,-4.2445,-4.2548,-4.2627,-4.2706,-4.2804,-4.2862,-4.2824,-4.2783,-4.2765,-4.2824,-4.2727,-4.2727,-4.2747,-4.2804,-4.2824,-4.2862,-4.2709,-4.2591,-4.253,-4.245,-4.2328,-4.2044,-4.1648,-4.123,-4.0703,-4.0366,-4.0235,-4.0136,-3.9935,-3.985,-3.9504,-3.952,-3.9468,-3.9379,-3.9288,-3.9288,-3.9288,-3.9288,-3.9288,-3.9288,-3.9288,-3.9288,-3.9288,-3.9288,-3.9288,-3.9288,-3.9288,-3.9288,-4.2287,-4.2287,-4.2287,-4.2287,-4.2287,-4.2287,-4.2287,-4.2287,-4.2287,-4.2287,-4.2287,-4.2287,-4.2287,-4.2287,-4.2287,-4.2287,-4.2287,-4.2287,-4.2287,-4.2287,-4.2287,-4.2287,-4.2287,-4.2287,-4.2287,-4.2287,-4.2287,-4.2287,-4.2287,-4.2287,-4.2287,-4.2287,-4.2287,-4.2287,-4.2287,-4.2287,-4.2287,-4.2287,-4.2287,-4.2287,-4.2287,-4.2287,-4.2287,-4.2287,-4.2287,-4.2287,-4.2287,-4.2287,-4.2287,-4.2287,-4.2287,-4.2287,-4.2287,-4.2287,-4.2287,-4.2287,-4.2287,-4.2287,-4.2287,-4.2287,-4.2287,-4.2287,-4.2287,-4.2287,-4.2287,-4.2287,-4.2346,-4.2486,-4.2548,-4.2667,-4.2783,-4.288,-4.29,-4.2862,-4.2822,-4.2842,-4.2824,-4.2727,-4.2688,-4.2747,-4.2786,-4.2786,-4.2747,-4.2688,-4.257,-4.245,-4.231,-4.2127,-4.1622,-4.1001,-4.048,-3.9969,-3.9782,-3.9644,-3.9592,-3.9504,-3.9556,-3.9379,-3.9379,-3.9379,-3.9325,-3.9288,-3.9288,-3.9288,-3.9288,-3.9288,-3.9288,-3.9288,-3.9288,-3.9288,-3.9288,-3.9288,-3.9288,-3.9288,-3.9288,-4.2287,-4.2287,-4.2287,-4.2287,-4.2287,-4.2287,-4.2287,-4.2287,-4.2287,-4.2287,-4.2287,-4.2287,-4.2287,-4.2287,-4.2287,-4.2287,-4.2287,-4.2287,-4.2287,-4.2287,-4.2287,-4.2287,-4.2287,-4.2287,-4.2287,-4.2287,-4.2287,-4.2287,-4.2287,-4.2287,-4.2287,-4.2287,-4.2287,-4.2287,-4.2246,-4.2145,-4.2044,-4.2044,-4.2228,-4.2287,-4.2287,-4.2287,-4.2287,-4.2287,-4.2287,-4.2287,-4.2287,-4.2287,-4.2287,-4.2287,-4.2287,-4.2287,-4.2287,-4.2287,-4.2287,-4.2287,-4.2287,-4.2287,-4.2287,-4.2287,-4.2287,-4.2287,-4.2287,-4.2287,-4.2287,-4.2287,-4.2346,-4.2486,-4.2548,-4.2667,-4.2745,-4.2842,-4.2842,-4.2804,-4.2765,-4.2804,-4.2786,-4.2688,-4.2649,-4.2688,-4.267,-4.2609,-4.2609,-4.2588,-4.2508,-4.2387,-4.2205,-4.1941,-4.1338,-4.0577,-4.012,-3.9696,-3.9504,-3.9415,-3.9362,-3.9325,-3.9342,-3.9288,-3.9288,-3.9288,-3.9288,-3.9288,-3.9288,-3.9288,-3.9288,-3.9288,-3.9288,-3.9288,-3.9288,-3.9288,-3.9288,-3.9288,-3.9288,-3.9288,-3.9288,-4.2287,-4.2287,-4.2287,-4.2287,-4.2287,-4.2287,-4.2287,-4.2287,-4.2287,-4.2287,-4.2287,-4.2287,-4.2287,-4.2287,-4.2287,-4.2287,-4.2287,-4.2287,-4.2287,-4.2287,-4.2287,-4.2287,-4.2287,-4.2287,-4.2287,-4.2287,-4.2287,-4.2287,-4.2287,-4.2287,-4.2287,-4.2287,-4.2287,-4.2287,-4.2145,-4.1899,-4.1709,-4.1753,-4.1941,-4.2086,-4.2145,-4.2187,-4.2246,-4.2228,-4.2287,-4.2287,-4.2287,-4.2287,-4.2287,-4.2287,-4.2287,-4.2187,-4.2187,-4.2145,-4.2145,-4.2061,-4.2044,-4.2044,-4.2044,-4.2205,-4.2287,-4.2287,-4.2287,-4.2287,-4.2287,-4.2287,-4.2387,-4.2503,-4.2548,-4.257,-4.2649,-4.2688,-4.2745,-4.2727,-4.2688,-4.2688,-4.2688,-4.2649,-4.257,-4.2609,-4.257,-4.253,-4.2369,-4.2369,-4.2409,-4.2346,-4.2002,-4.1796,-4.1157,-4.0449,-4.002,-3.9661,-3.9415,-3.9325,-3.9325,-3.9288,-3.9288,-3.9288,-3.9288,-3.9288,-3.9288,-3.9288,-3.9288,-3.9288,-3.9288,-3.9288,-3.9288,-3.9288,-3.9288,-3.9288,-3.9288,-3.9288,-3.9288,-3.9288,-3.9288,-4.2287,-4.2287,-4.2287,-4.2287,-4.2287,-4.2287,-4.2287,-4.2287,-4.2287,-4.2287,-4.2287,-4.2287,-4.2287,-4.2287,-4.2287,-4.2287,-4.2287,-4.2287,-4.2287,-4.2287,-4.2287,-4.2287,-4.2287,-4.2287,-4.2287,-4.2287,-4.2287,-4.2287,-4.2287,-4.2287,-4.2287,-4.2287,-4.2287,-4.2287,-4.2145,-4.177,-4.1534,-4.1445,-4.1401,-4.1401,-4.1445,-4.1683,-4.1813,-4.1796,-4.2228,-4.2287,-4.2287,-4.2287,-4.2287,-4.2287,-4.2246,-4.2061,-4.1856,-4.1813,-4.1666,-4.1507,-4.149,-4.149,-4.1596,-4.1917,-4.2287,-4.2287,-4.2287,-4.2287,-4.2287,-4.2287,-4.2387,-4.2445,-4.2526,-4.2548,-4.2591,-4.2649,-4.2649,-4.2609,-4.257,-4.2512,-4.257,-4.2548,-4.2508,-4.249,-4.245,-4.2369,-4.2228,-4.2061,-4.2187,-4.2246,-4.1899,-4.1516,-4.0861,-4.0351,-3.9935,-3.9609,-3.9379,-3.9288,-3.9288,-3.9288,-3.9288,-3.9288,-3.9288,-3.9288,-3.9288,-3.9288,-3.9288,-3.9288,-3.9288,-3.9288,-3.9288,-3.9288,-3.9288,-3.9288,-3.9288,-3.9288,-3.9288,-3.9288,-3.9288,-4.2287,-4.2287,-4.2287,-4.2287,-4.2287,-4.2287,-4.2287,-4.2287,-4.2287,-4.2287,-4.2287,-4.2287,-4.2287,-4.2287,-4.2287,-4.2287,-4.2287,-4.2287,-4.2287,-4.2287,-4.2287,-4.2287,-4.2287,-4.2287,-4.2287,-4.2287,-4.2287,-4.2287,-4.2287,-4.2287,-4.2287,-4.2246,-4.2145,-4.2044,-4.1917,-4.1578,-4.1248,-4.1019,-4.099,-4.0802,-4.0896,-4.1128,-4.1311,-4.1293,-4.164,-4.1727,-4.1727,-4.1683,-4.1727,-4.1727,-4.1727,-4.164,-4.1445,-4.1248,-4.1128,-4.0943,-4.0802,-4.0802,-4.099,-4.1328,-4.1917,-4.1959,-4.2002,-4.2103,-4.2246,-4.2287,-4.2346,-4.2405,-4.2463,-4.2503,-4.2472,-4.2391,-4.2391,-4.2351,-4.2151,-4.211,-4.2351,-4.2427,-4.2427,-4.2427,-4.2328,-4.2228,-4.1813,-4.164,-4.1507,-4.1596,-4.1445,-4.1019,-4.048,-4.007,-3.9885,-3.9556,-3.9325,-3.9288,-3.9288,-3.9288,-3.9288,-3.9288,-3.9288,-3.9288,-3.9288,-3.9288,-3.9288,-3.9288,-3.9288,-3.9288,-3.9288,-3.9288,-3.9288,-3.9288,-3.9288,-3.9288,-3.9288,-3.9288,-3.9288,-4.2287,-4.2287,-4.2287,-4.2287,-4.2287,-4.2287,-4.2287,-4.2287,-4.2287,-4.2287,-4.2287,-4.2287,-4.2287,-4.2287,-4.2287,-4.2287,-4.2287,-4.2287,-4.2287,-4.2287,-4.2287,-4.2287,-4.2287,-4.2287,-4.2287,-4.2287,-4.2287,-4.2287,-4.2287,-4.2287,-4.2287,-4.2145,-4.1917,-4.1622,-4.149,-4.1082,-4.0594,-4.0186,-4.0611,-4.0659,-4.0611,-4.0707,-4.0784,-4.0832,-4.099,-4.1128,-4.1128,-4.1128,-4.1174,-4.1128,-4.1128,-4.099,-4.0832,-4.0784,-4.0754,-4.0676,-4.0676,-4.0724,-4.0754,-4.0819,-4.1036,-4.149,-4.1622,-4.1753,-4.2103,-4.2246,-4.2103,-4.2019,-4.2163,-4.2264,-4.2163,-4.2002,-4.2002,-4.1941,-4.1709,-4.1648,-4.1899,-4.2002,-4.1917,-4.1874,-4.2044,-4.2044,-4.1534,-4.1174,-4.0896,-4.0802,-4.0849,-4.0514,-4.007,-3.9833,-3.9644,-3.9504,-3.9288,-3.9288,-3.9288,-3.9288,-3.9288,-3.9288,-3.9288,-3.9288,-3.9288,-3.9288,-3.9288,-3.9288,-3.9288,-3.9288,-3.9288,-3.9288,-3.9288,-3.9288,-3.9288,-3.9288,-3.9288,-3.9288,-3.9288,-4.2287,-4.2287,-4.2287,-4.2287,-4.2287,-4.2287,-4.2287,-4.2287,-4.2287,-4.2287,-4.2287,-4.2287,-4.2287,-4.2287,-4.2287,-4.2287,-4.2287,-4.2287,-4.2287,-4.2287,-4.2287,-4.2287,-4.2287,-4.2287,-4.2287,-4.2287,-4.2287,-4.2287,-4.2287,-4.2287,-4.2287,-4.2187,-4.177,-4.1534,-4.1401,-4.1082,-4.0642,-4.0497,-4.0417,-4.012,-3.9901,-4.012,-4.0252,-4.0302,-4.0563,-4.0724,-4.0707,-4.0659,-4.0659,-4.0659,-4.0659,-4.0563,-4.0351,-4.0269,-4.012,-3.9952,-3.9867,-3.9799,-3.9799,-3.985,-4.022,-4.0784,-4.1248,-4.1338,-4.1401,-4.1622,-4.1578,-4.1445,-4.1507,-4.1463,-4.122,-4.122,-4.1202,-4.122,-4.1065,-4.1065,-4.122,-4.122,-4.122,-4.1174,-4.1265,-4.1111,-4.0737,-4.0546,-4.0319,-4.017,-4.017,-4.0037,-3.9644,-3.9556,-3.9432,-3.9432,-3.9288,-3.9288,-3.9288,-3.9288,-3.9288,-3.9288,-3.9288,-3.9288,-3.9288,-3.9288,-3.9288,-3.9288,-3.9288,-3.9288,-3.9288,-3.9288,-3.9288,-3.9288,-3.9272,-3.9272,-3.9288,-3.9288,-3.9288,-4.2287,-4.2287,-4.2287,-4.2287,-4.2287,-4.2287,-4.2287,-4.2287,-4.2287,-4.2287,-4.2287,-4.2287,-4.2287,-4.2287,-4.2287,-4.2287,-4.2287,-4.2287,-4.2287,-4.2287,-4.2287,-4.2287,-4.2287,-4.2287,-4.2287,-4.2287,-4.2287,-4.2287,-4.2287,-4.2287,-4.2187,-4.1959,-4.1666,-4.1534,-4.1356,-4.1082,-4.0659,-4.0449,-4.0153,-3.9833,-3.9592,-3.9592,-3.9782,-3.9833,-4.0037,-4.0237,-4.0269,-4.0286,-4.0286,-4.0336,-4.0237,-4.0137,-3.9885,-3.9731,-3.9592,-3.9379,-3.9342,-3.9325,-3.9379,-3.9379,-3.9747,-4.0137,-4.0737,-4.0926,-4.0832,-4.1111,-4.1082,-4.0943,-4.0754,-4.0754,-4.0754,-4.0707,-4.0594,-4.0611,-4.0611,-4.0611,-4.0754,-4.0802,-4.0802,-4.0754,-4.0659,-4.0351,-4.007,-3.9885,-3.9696,-3.9644,-3.954,-3.9451,-3.9362,-3.9325,-3.9288,-3.9288,-3.9288,-3.9288,-3.9288,-3.9288,-3.9288,-3.9288,-3.9288,-3.9288,-3.9288,-3.9288,-3.9288,-3.9288,-3.9272,-3.9272,-3.9288,-3.9288,-3.9272,-3.9218,-3.9202,-3.9218,-3.9272,-3.9288,-3.9272,-4.2287,-4.2287,-4.2287,-4.2287,-4.2287,-4.2287,-4.2287,-4.2287,-4.2287,-4.2287,-4.2287,-4.2287,-4.2287,-4.2287,-4.2287,-4.2287,-4.2287,-4.2287,-4.2287,-4.2287,-4.2287,-4.2287,-4.2287,-4.2287,-4.2287,-4.2287,-4.2287,-4.2287,-4.2287,-4.2287,-4.2061,-4.1727,-4.1666,-4.1578,-4.1401,-4.1265,-4.0784,-4.0449,-4.0252,-3.9919,-3.9644,-3.9362,-3.9504,-3.9556,-3.9609,-3.9556,-3.9573,-3.952,-3.9573,-3.952,-3.9432,-3.9432,-3.9379,-3.9325,-3.9325,-3.9325,-3.9379,-3.9288,-3.9288,-3.9288,-3.9342,-3.9609,-3.9833,-4.0203,-4.0497,-4.0611,-4.0611,-4.0563,-4.0417,-4.0514,-4.0611,-4.0368,-4.0153,-4.017,-4.012,-4.0269,-4.0514,-4.0563,-4.0563,-4.0514,-4.0514,-4.0269,-3.9868,-3.9644,-3.9451,-3.9415,-3.9415,-3.9415,-3.9325,-3.9325,-3.9288,-3.9288,-3.9288,-3.9288,-3.9288,-3.9288,-3.9288,-3.9288,-3.9288,-3.9288,-3.9288,-3.9288,-3.9288,-3.9288,-3.9272,-3.9272,-3.9164,-3.9164,-3.9218,-3.9148,-3.9094,-3.9094,-3.9164,-3.9164,-3.9164,-4.2287,-4.2287,-4.2287,-4.2287,-4.2287,-4.2287,-4.2287,-4.2287,-4.2287,-4.2287,-4.2287,-4.2287,-4.2287,-4.2287,-4.2287,-4.2287,-4.2287,-4.2287,-4.2287,-4.2287,-4.2287,-4.2287,-4.2287,-4.2287,-4.2287,-4.2287,-4.2287,-4.2287,-4.2287,-4.2287,-4.2044,-4.1622,-4.1856,-4.1813,-4.1727,-4.1727,-4.1202,-4.0784,-4.0594,-4.0252,-3.9833,-3.9556,-3.9592,-3.9696,-3.9504,-3.9415,-3.9379,-3.9325,-3.9415,-3.9696,-3.9468,-3.9415,-3.9782,-3.9817,-3.9817,-3.9731,-3.9556,-3.9288,-3.9288,-3.9342,-3.9325,-3.9325,-3.9468,-3.9504,-3.9799,-4.0037,-4.007,-4.0037,-3.9935,-4.0003,-4.0003,-3.985,-3.9747,-3.9747,-3.9747,-3.985,-3.9986,-3.9986,-3.9986,-3.9986,-3.9986,-3.9952,-3.9592,-3.9504,-3.9379,-3.9325,-3.9288,-3.9288,-3.9288,-3.9288,-3.9288,-3.9288,-3.9288,-3.9288,-3.9288,-3.9288,-3.9288,-3.9288,-3.9272,-3.9272,-3.9272,-3.9272,-3.9288,-3.9272,-3.9148,-3.904,-3.8931,-3.8985,-3.904,-3.8969,-3.886,-3.8969,-3.904,-3.904,-3.8985,-4.2287,-4.2287,-4.2287,-4.2287,-4.2287,-4.2287,-4.2287,-4.2287,-4.2287,-4.2287,-4.2287,-4.2287,-4.2287,-4.2287,-4.2287,-4.2287,-4.2287,-4.2287,-4.2287,-4.2287,-4.2287,-4.2287,-4.2287,-4.2287,-4.2287,-4.2287,-4.2287,-4.2287,-4.2287,-4.2287,-4.2061,-4.1917,-4.2187,-4.2044,-4.1984,-4.2002,-4.177,-4.1356,-4.1019,-4.0737,-4.0351,-4.002,-4.017,-4.012,-3.985,-3.9644,-3.9556,-3.9451,-3.9609,-3.9919,-3.9644,-3.9833,-4.0203,-4.0302,-4.0302,-4.0252,-4.0137,-3.985,-3.9696,-3.9592,-3.9504,-3.9379,-3.9288,-3.9325,-3.9432,-3.9609,-3.9556,-3.9468,-3.9432,-3.9325,-3.9325,-3.9342,-3.9325,-3.9325,-3.9325,-3.9325,-3.9325,-3.9325,-3.9325,-3.9379,-3.9379,-3.9379,-3.9325,-3.9288,-3.9288,-3.9288,-3.9288,-3.9288,-3.9288,-3.9288,-3.9288,-3.9288,-3.9288,-3.9288,-3.9288,-3.9288,-3.9272,-3.9272,-3.9164,-3.9164,-3.9218,-3.9148,-3.904,-3.9023,-3.8969,-3.8914,-3.8821,-3.8805,-3.886,-3.8805,-3.875,-3.8766,-3.8821,-3.886,-3.8821,-4.2287,-4.2287,-4.2287,-4.2287,-4.2287,-4.2287,-4.2287,-4.2287,-4.2287,-4.2287,-4.2287,-4.2287,-4.2287,-4.2287,-4.2287,-4.2287,-4.2287,-4.2287,-4.2287,-4.2287,-4.2287,-4.2287,-4.2287,-4.2287,-4.2287,-4.2287,-4.2287,-4.2287,-4.2287,-4.2287,-4.2287,-4.2287,-4.2287,-4.2228,-4.2187,-4.2228,-4.2044,-4.1709,-4.1534,-4.1338,-4.0972,-4.0802,-4.0802,-4.0737,-4.04,-4.007,-3.9952,-3.9817,-3.9661,-3.9969,-4.0153,-4.0351,-4.0642,-4.0737,-4.0737,-4.0659,-4.0466,-4.0137,-3.9833,-3.9679,-3.9556,-3.9415,-3.9288,-3.9288,-3.9379,-3.9379,-3.9325,-3.9325,-3.9342,-3.9288,-3.9288,-3.9288,-3.9288,-3.9288,-3.9288,-3.9288,-3.9288,-3.9288,-3.9288,-3.9288,-3.9288,-3.9288,-3.9288,-3.9288,-3.9288,-3.9288,-3.9288,-3.9288,-3.9272,-3.9272,-3.9288,-3.9288,-3.9288,-3.9288,-3.9288,-3.9272,-3.9272,-3.9218,-3.9094,-3.904,-3.904,-3.8914,-3.8805,-3.8805,-3.8805,-3.875,-3.8711,-3.8694,-3.8655,-3.8655,-3.8672,-3.8616,-3.8616,-3.8711,-3.8655,-4.2287,-4.2287,-4.2287,-4.2287,-4.2287,-4.2287,-4.2287,-4.2287,-4.2287,-4.2287,-4.2287,-4.2287,-4.2287,-4.2287,-4.2287,-4.2287,-4.2287,-4.2287,-4.2287,-4.2287,-4.2287,-4.2228,-4.2287,-4.2246,-4.2246,-4.2287,-4.2287,-4.2187,-4.2145,-4.2205,-4.2246,-4.2246,-4.2187,-4.2145,-4.2145,-4.2145,-4.2002,-4.1813,-4.1813,-4.1622,-4.1248,-4.0972,-4.0896,-4.1019,-4.0861,-4.0546,-4.0449,-4.0449,-4.0642,-4.1065,-4.0737,-4.0926,-4.1293,-4.0972,-4.0802,-4.0754,-4.0514,-4.012,-3.9782,-3.9644,-3.9504,-3.9415,-3.9288,-3.9288,-3.9342,-3.9288,-3.9288,-3.9288,-3.9288,-3.9288,-3.9288,-3.9288,-3.9288,-3.9288,-3.9288,-3.9288,-3.9288,-3.9288,-3.9288,-3.9288,-3.9288,-3.9288,-3.9288,-3.9288,-3.9288,-3.9288,-3.9288,-3.9288,-3.9272,-3.9272,-3.9218,-3.9218,-3.9272,-3.9272,-3.9272,-3.9218,-3.9148,-3.9094,-3.8985,-3.8914,-3.886,-3.8805,-3.8694,-3.8655,-3.8672,-3.86,-3.8544,-3.8504,-3.8504,-3.856,-3.856,-3.8504,-3.8448,-3.8504,-3.8504,-4.2287,-4.2287,-4.2287,-4.2287,-4.2287,-4.2287,-4.2287,-4.2287,-4.2287,-4.2287,-4.2287,-4.2287,-4.2287,-4.2287,-4.2287,-4.2287,-4.2287,-4.2287,-4.2287,-4.2287,-4.2228,-4.2026,-4.2044,-4.2061,-4.1813,-4.1813,-4.1727,-4.1683,-4.1831,-4.1578,-4.149,-4.164,-4.1683,-4.1683,-4.1683,-4.164,-4.1666,-4.1578,-4.1666,-4.149,-4.1248,-4.1128,-4.1356,-4.1534,-4.1111,-4.0737,-4.0563,-4.0514,-4.04,-4.0784,-4.0689,-4.0849,-4.1036,-4.0896,-4.0802,-4.0754,-4.0514,-4.0103,-3.9747,-3.9556,-3.9451,-3.9362,-3.9288,-3.9288,-3.9288,-3.9288,-3.9288,-3.9288,-3.9288,-3.9288,-3.9288,-3.9288,-3.9288,-3.9288,-3.9288,-3.9288,-3.9288,-3.9288,-3.9288,-3.9288,-3.9288,-3.9288,-3.9288,-3.9288,-3.9288,-3.9288,-3.9288,-3.9148,-3.9148,-3.9148,-3.9148,-3.911,-3.9164,-3.9164,-3.9148,-3.9094,-3.8969,-3.8914,-3.8876,-3.8766,-3.8655,-3.86,-3.86,-3.856,-3.8504,-3.8504,-3.8448,-3.8391,-3.8391,-3.8448,-3.8448,-3.8391,-3.8391,-3.8391,-3.8391,-4.2287,-4.2287,-4.2287,-4.2287,-4.2287,-4.2287,-4.2287,-4.2287,-4.2287,-4.2287,-4.2287,-4.2287,-4.2287,-4.2287,-4.2287,-4.2287,-4.2246,-4.2287,-4.2287,-4.2163,-4.2187,-4.1959,-4.177,-4.1683,-4.1596,-4.1463,-4.1373,-4.1373,-4.1418,-4.1128,-4.0972,-4.0802,-4.0737,-4.0754,-4.0754,-4.0802,-4.0879,-4.099,-4.1036,-4.0896,-4.099,-4.1174,-4.1552,-4.1401,-4.0972,-4.0449,-4.0368,-4.0237,-3.9885,-4.012,-4.0659,-4.0802,-4.0849,-4.0849,-4.0707,-4.0611,-4.0514,-4.022,-3.9919,-3.9731,-3.954,-3.9398,-3.9325,-3.9288,-3.9288,-3.9288,-3.9288,-3.9288,-3.9288,-3.9288,-3.9288,-3.9288,-3.9288,-3.9288,-3.9288,-3.9288,-3.9288,-3.9288,-3.9288,-3.9288,-3.9288,-3.9288,-3.9288,-3.9288,-3.9272,-3.9218,-3.9164,-3.904,-3.8969,-3.8969,-3.8969,-3.8931,-3.8931,-3.8931,-3.8985,-3.8914,-3.886,-3.8766,-3.8727,-3.856,-3.8448,-3.8504,-3.8504,-3.8448,-3.8391,-3.8391,-3.8391,-3.8391,-3.8391,-3.8391,-3.8391,-3.8391,-3.8391,-3.8391,-3.8391,-4.2287,-4.2287,-4.2287,-4.2287,-4.2287,-4.2287,-4.2287,-4.2287,-4.2287,-4.2287,-4.2287,-4.2287,-4.2287,-4.2287,-4.2287,-4.2246,-4.2079,-4.2163,-4.1977,-4.178,-4.1934,-4.1762,-4.1569,-4.1373,-4.1613,-4.1507,-4.1328,-4.1391,-4.099,-4.0849,-4.0784,-4.0528,-4.0366,-4.0414,-4.0594,-4.0594,-4.0546,-4.0563,-4.0611,-4.0611,-4.0707,-4.0849,-4.096,-4.0896,-4.0849,-4.0707,-4.0707,-4.0628,-4.0611,-4.0659,-4.0659,-4.0659,-4.0659,-4.0563,-4.0466,-4.022,-4.017,-3.9935,-3.9696,-3.9556,-3.9362,-3.9362,-3.9288,-3.9288,-3.9288,-3.9288,-3.9288,-3.9288,-3.9288,-3.9288,-3.9288,-3.9288,-3.9288,-3.9288,-3.9288,-3.9288,-3.9288,-3.9288,-3.9288,-3.9288,-3.9288,-3.9288,-3.9288,-3.9272,-3.9218,-3.9164,-3.904,-3.8969,-3.8876,-3.8805,-3.875,-3.875,-3.8711,-3.875,-3.8805,-3.8821,-3.8766,-3.8672,-3.8616,-3.8504,-3.8448,-3.8391,-3.8391,-3.8391,-3.8391,-3.8391,-3.8391,-3.8391,-3.8391,-3.8391,-3.8391,-3.8391,-3.8391,-3.8391,-3.8391]}]]